Wetterdaten: Mittwoch, 04.11.2015
Datum Zeit Temp. A. Feuchte A. Luftdruck Regen Wind Richtung Richtung Sonnenschein ET UV Solar Taupunkt Windchill Windben Empfang
04.11.2015 00:00 1,1 C 98 % 1022,8 hPa 0,0 l/m 0,9 km/h (0 Bft) S 173 0 min 0,000 mm 0,0 UV-I 0 W/m 0,8 C 1,1 C 1,6 km/h (1 Bft) 96,30 %
04.11.2015 00:01 1,1 C 98 % 1022,8 hPa 0,0 l/m 1,2 km/h (1 Bft) S 173 0 min 0,000 mm 0,0 UV-I 0 W/m 0,8 C 1,1 C 1,6 km/h (1 Bft) 100,00 %
04.11.2015 00:02 1,0 C 98 % 1022,8 hPa 0,0 l/m 0,2 km/h (0 Bft) S 173 0 min 0,000 mm 0,0 UV-I 0 W/m 0,7 C 1,0 C 1,6 km/h (1 Bft) 100,00 %
04.11.2015 00:03 1,0 C 98 % 1022,8 hPa 0,0 l/m 0,7 km/h (0 Bft) S 173 0 min 0,000 mm 0,0 UV-I 0 W/m 0,7 C 1,0 C 1,6 km/h (1 Bft) 100,00 %
04.11.2015 00:04 1,0 C 98 % 1022,8 hPa 0,0 l/m 0,3 km/h (0 Bft) S 173 0 min 0,000 mm 0,0 UV-I 0 W/m 0,7 C 1,0 C 1,6 km/h (1 Bft) 100,00 %
04.11.2015 00:05 1,0 C 98 % 1022,8 hPa 0,0 l/m 0,1 km/h (0 Bft) S 173 0 min 0,000 mm 0,0 UV-I 0 W/m 0,7 C 1,0 C 1,6 km/h (1 Bft) 100,00 %
04.11.2015 00:06 1,0 C 98 % 1022,8 hPa 0,0 l/m 0,0 km/h (0 Bft) S 173 0 min 0,000 mm 0,0 UV-I 0 W/m 0,7 C 1,0 C 0,0 km/h (0 Bft) 100,00 %
04.11.2015 00:07 1,0 C 98 % 1022,8 hPa 0,0 l/m 0,0 km/h (0 Bft) S 173 0 min 0,000 mm 0,0 UV-I 0 W/m 0,7 C 1,0 C 0,0 km/h (0 Bft) 95,65 %
04.11.2015 00:08 1,0 C 98 % 1022,8 hPa 0,0 l/m 0,0 km/h (0 Bft) S 173 0 min 0,000 mm 0,0 UV-I 0 W/m 0,7 C 1,0 C 0,0 km/h (0 Bft) 100,00 %
04.11.2015 00:09 1,0 C 98 % 1022,7 hPa 0,0 l/m 0,0 km/h (0 Bft) S 173 0 min 0,000 mm 0,0 UV-I 0 W/m 0,7 C 1,0 C 0,0 km/h (0 Bft) 100,00 %
04.11.2015 00:10 1,0 C 98 % 1022,7 hPa 0,0 l/m 0,0 km/h (0 Bft) S 173 0 min 0,000 mm 0,0 UV-I 0 W/m 0,7 C 1,0 C 0,0 km/h (0 Bft) 100,00 %
04.11.2015 00:11 1,0 C 98 % 1022,7 hPa 0,0 l/m 0,0 km/h (0 Bft) S 173 0 min 0,000 mm 0,0 UV-I 0 W/m 0,7 C 1,0 C 0,0 km/h (0 Bft) 95,65 %
04.11.2015 00:12 1,1 C 98 % 1022,7 hPa 0,0 l/m 0,0 km/h (0 Bft) S 173 0 min 0,000 mm 0,0 UV-I 0 W/m 0,8 C 1,1 C 0,0 km/h (0 Bft) 100,00 %
04.11.2015 00:13 1,1 C 98 % 1022,7 hPa 0,0 l/m 0,0 km/h (0 Bft) S 173 0 min 0,000 mm 0,0 UV-I 0 W/m 0,8 C 1,1 C 0,0 km/h (0 Bft) 100,00 %
04.11.2015 00:14 1,1 C 98 % 1022,7 hPa 0,0 l/m 0,7 km/h (0 Bft) S 173 0 min 0,000 mm 0,0 UV-I 0 W/m 0,8 C 1,1 C 1,6 km/h (1 Bft) 100,00 %
04.11.2015 00:15 1,1 C 98 % 1022,8 hPa 0,0 l/m 1,9 km/h (1 Bft) S 173 0 min 0,000 mm 0,0 UV-I 0 W/m 0,8 C 1,1 C 3,2 km/h (1 Bft) 100,00 %
04.11.2015 00:16 1,0 C 98 % 1022,8 hPa 0,0 l/m 0,7 km/h (0 Bft) S 173 0 min 0,000 mm 0,0 UV-I 0 W/m 0,7 C 1,0 C 1,6 km/h (1 Bft) 100,00 %
04.11.2015 00:17 1,0 C 98 % 1022,8 hPa 0,0 l/m 0,0 km/h (0 Bft) S 173 0 min 0,000 mm 0,0 UV-I 0 W/m 0,7 C 1,0 C 0,0 km/h (0 Bft) 100,00 %
04.11.2015 00:18 1,0 C 98 % 1022,8 hPa 0,0 l/m 0,0 km/h (0 Bft) S 173 0 min 0,000 mm 0,0 UV-I 0 W/m 0,7 C 1,0 C 0,0 km/h (0 Bft) 100,00 %
04.11.2015 00:19 1,0 C 98 % 1022,8 hPa 0,0 l/m 0,1 km/h (0 Bft) S 173 0 min 0,000 mm 0,0 UV-I 0 W/m 0,7 C 1,0 C 1,6 km/h (1 Bft) 100,00 %
04.11.2015 00:20 1,0 C 98 % 1022,8 hPa 0,0 l/m 1,6 km/h (1 Bft) S 173 0 min 0,000 mm 0,0 UV-I 0 W/m 0,7 C 1,0 C 3,2 km/h (1 Bft) 96,15 %
04.11.2015 00:21 1,0 C 98 % 1022,8 hPa 0,0 l/m 0,8 km/h (0 Bft) S 173 0 min 0,000 mm 0,0 UV-I 0 W/m 0,7 C 1,0 C 3,2 km/h (1 Bft) 100,00 %
04.11.2015 00:22 1,0 C 98 % 1022,8 hPa 0,0 l/m 0,1 km/h (0 Bft) S 173 0 min 0,000 mm 0,0 UV-I 0 W/m 0,7 C 1,0 C 1,6 km/h (1 Bft) 95,65 %
04.11.2015 00:23 1,0 C 98 % 1022,8 hPa 0,0 l/m 0,0 km/h (0 Bft) S 173 0 min 0,000 mm 0,0 UV-I 0 W/m 0,7 C 1,0 C 0,0 km/h (0 Bft) 100,00 %
04.11.2015 00:24 1,0 C 98 % 1022,8 hPa 0,0 l/m 1,2 km/h (1 Bft) S 178 0 min 0,000 mm 0,0 UV-I 0 W/m 0,7 C 1,0 C 4,8 km/h (1 Bft) 100,00 %
04.11.2015 00:25 1,0 C 98 % 1022,9 hPa 0,0 l/m 2,3 km/h (1 Bft) S 182 0 min 0,000 mm 0,0 UV-I 0 W/m 0,7 C 1,0 C 3,2 km/h (1 Bft) 95,83 %
04.11.2015 00:26 1,0 C 98 % 1022,9 hPa 0,0 l/m 2,5 km/h (1 Bft) S 184 0 min 0,000 mm 0,0 UV-I 0 W/m 0,7 C 1,0 C 3,2 km/h (1 Bft) 92,31 %
04.11.2015 00:27 1,0 C 98 % 1022,9 hPa 0,0 l/m 2,6 km/h (1 Bft) S-SW 213 0 min 0,000 mm 0,0 UV-I 0 W/m 0,7 C 1,0 C 3,2 km/h (1 Bft) 100,00 %
04.11.2015 00:28 1,0 C 98 % 1022,9 hPa 0,0 l/m 2,4 km/h (1 Bft) S-SW 213 0 min 0,000 mm 0,0 UV-I 0 W/m 0,7 C 1,0 C 3,2 km/h (1 Bft) 100,00 %
04.11.2015 00:29 1,0 C 98 % 1022,9 hPa 0,0 l/m 1,1 km/h (1 Bft) S-SW 213 0 min 0,000 mm 0,0 UV-I 0 W/m 0,7 C 1,0 C 3,2 km/h (1 Bft) 100,00 %
04.11.2015 00:30 1,0 C 98 % 1022,9 hPa 0,0 l/m 0,0 km/h (0 Bft) S-SW 213 0 min 0,000 mm 0,0 UV-I 0 W/m 0,7 C 1,0 C 0,0 km/h (0 Bft) 100,00 %
04.11.2015 00:31 1,0 C 98 % 1022,9 hPa 0,0 l/m 0,0 km/h (0 Bft) S-SW 213 0 min 0,000 mm 0,0 UV-I 0 W/m 0,7 C 1,0 C 0,0 km/h (0 Bft) 100,00 %
04.11.2015 00:32 1,1 C 98 % 1023,0 hPa 0,0 l/m 0,0 km/h (0 Bft) S-SW 213 0 min 0,000 mm 0,0 UV-I 0 W/m 0,8 C 1,1 C 0,0 km/h (0 Bft) 100,00 %
04.11.2015 00:33 1,1 C 98 % 1023,0 hPa 0,0 l/m 0,0 km/h (0 Bft) S-SW 213 0 min 0,000 mm 0,0 UV-I 0 W/m 0,8 C 1,1 C 0,0 km/h (0 Bft) 100,00 %
04.11.2015 00:34 1,1 C 98 % 1023,0 hPa 0,0 l/m 0,0 km/h (0 Bft) S-SW 213 0 min 0,000 mm 0,0 UV-I 0 W/m 0,8 C 1,1 C 0,0 km/h (0 Bft) 100,00 %
04.11.2015 00:35 1,1 C 98 % 1023,0 hPa 0,0 l/m 0,0 km/h (0 Bft) S-SW 213 0 min 0,000 mm 0,0 UV-I 0 W/m 0,8 C 1,1 C 0,0 km/h (0 Bft) 100,00 %
04.11.2015 00:36 1,1 C 98 % 1023,0 hPa 0,0 l/m 0,1 km/h (0 Bft) S-SW 213 0 min 0,000 mm 0,0 UV-I 0 W/m 0,8 C 1,1 C 1,6 km/h (1 Bft) 95,83 %
04.11.2015 00:37 1,1 C 98 % 1023,0 hPa 0,0 l/m 0,3 km/h (0 Bft) S-SW 213 0 min 0,000 mm 0,0 UV-I 0 W/m 0,8 C 1,1 C 1,6 km/h (1 Bft) 100,00 %
04.11.2015 00:38 1,1 C 98 % 1023,0 hPa 0,0 l/m 0,0 km/h (0 Bft) S-SW 213 0 min 0,000 mm 0,0 UV-I 0 W/m 0,8 C 1,1 C 0,0 km/h (0 Bft) 100,00 %
04.11.2015 00:39 1,1 C 98 % 1023,0 hPa 0,0 l/m 0,2 km/h (0 Bft) S-SW 213 0 min 0,000 mm 0,0 UV-I 0 W/m 0,8 C 1,1 C 1,6 km/h (1 Bft) 100,00 %
04.11.2015 00:40 1,1 C 98 % 1023,0 hPa 0,0 l/m 0,0 km/h (0 Bft) S-SW 213 0 min 0,000 mm 0,0 UV-I 0 W/m 0,8 C 1,1 C 0,0 km/h (0 Bft) 100,00 %
04.11.2015 00:41 1,1 C 98 % 1023,0 hPa 0,0 l/m 1,5 km/h (1 Bft) S-SW 213 0 min 0,000 mm 0,0 UV-I 0 W/m 0,8 C 1,1 C 3,2 km/h (1 Bft) 100,00 %
04.11.2015 00:42 1,1 C 98 % 1023,1 hPa 0,0 l/m 2,7 km/h (1 Bft) S-SW 213 0 min 0,000 mm 0,0 UV-I 0 W/m 0,8 C 1,1 C 4,8 km/h (1 Bft) 100,00 %
04.11.2015 00:43 1,1 C 98 % 1023,1 hPa 0,0 l/m 0,6 km/h (0 Bft) S-SW 213 0 min 0,000 mm 0,0 UV-I 0 W/m 0,8 C 1,1 C 1,6 km/h (1 Bft) 100,00 %
04.11.2015 00:44 1,1 C 98 % 1023,2 hPa 0,0 l/m 0,3 km/h (0 Bft) S-SW 213 0 min 0,000 mm 0,0 UV-I 0 W/m 0,8 C 1,1 C 1,6 km/h (1 Bft) 100,00 %
04.11.2015 00:45 1,1 C 98 % 1023,2 hPa 0,0 l/m 2,0 km/h (1 Bft) S-SW 200 0 min 0,000 mm 0,0 UV-I 0 W/m 0,8 C 1,1 C 4,8 km/h (1 Bft) 100,00 %
04.11.2015 00:46 1,2 C 98 % 1023,2 hPa 0,0 l/m 1,7 km/h (1 Bft) S-SW 200 0 min 0,000 mm 0,0 UV-I 0 W/m 0,9 C 1,2 C 4,8 km/h (1 Bft) 100,00 %
04.11.2015 00:47 1,1 C 98 % 1023,2 hPa 0,0 l/m 1,2 km/h (1 Bft) S-SW 197 0 min 0,000 mm 0,0 UV-I 0 W/m 0,8 C 1,1 C 3,2 km/h (1 Bft) 100,00 %
04.11.2015 00:48 1,2 C 98 % 1023,2 hPa 0,0 l/m 0,1 km/h (0 Bft) S-SW 197 0 min 0,000 mm 0,0 UV-I 0 W/m 0,9 C 1,2 C 1,6 km/h (1 Bft) 100,00 %
04.11.2015 00:49 1,2 C 98 % 1023,3 hPa 0,0 l/m 1,0 km/h (0 Bft) S-SW 197 0 min 0,000 mm 0,0 UV-I 0 W/m 0,9 C 1,2 C 3,2 km/h (1 Bft) 100,00 %
04.11.2015 00:50 1,2 C 98 % 1023,3 hPa 0,0 l/m 1,4 km/h (1 Bft) S-SW 197 0 min 0,000 mm 0,0 UV-I 0 W/m 0,9 C 1,2 C 3,2 km/h (1 Bft) 100,00 %
04.11.2015 00:51 1,2 C 98 % 1023,2 hPa 0,0 l/m 1,7 km/h (1 Bft) S-SW 197 0 min 0,000 mm 0,0 UV-I 0 W/m 0,9 C 1,2 C 3,2 km/h (1 Bft) 100,00 %
04.11.2015 00:52 1,2 C 98 % 1023,3 hPa 0,0 l/m 0,5 km/h (0 Bft) S-SW 197 0 min 0,000 mm 0,0 UV-I 0 W/m 0,9 C 1,2 C 1,6 km/h (1 Bft) 100,00 %
04.11.2015 00:53 1,2 C 98 % 1023,2 hPa 0,0 l/m 0,0 km/h (0 Bft) S-SW 197 0 min 0,000 mm 0,0 UV-I 0 W/m 0,9 C 1,2 C 0,0 km/h (0 Bft) 100,00 %
04.11.2015 00:54 1,2 C 98 % 1023,2 hPa 0,0 l/m 0,0 km/h (0 Bft) S-SW 197 0 min 0,000 mm 0,0 UV-I 0 W/m 0,9 C 1,2 C 0,0 km/h (0 Bft) 100,00 %
04.11.2015 00:55 1,2 C 98 % 1023,2 hPa 0,0 l/m 0,0 km/h (0 Bft) S-SW 197 0 min 0,000 mm 0,0 UV-I 0 W/m 0,9 C 1,2 C 0,0 km/h (0 Bft) 100,00 %
04.11.2015 00:56 1,2 C 98 % 1023,2 hPa 0,0 l/m 0,0 km/h (0 Bft) S-SW 197 0 min 0,000 mm 0,0 UV-I 0 W/m 0,9 C 1,2 C 0,0 km/h (0 Bft) 95,65 %
04.11.2015 00:57 1,2 C 98 % 1023,2 hPa 0,0 l/m 0,0 km/h (0 Bft) S-SW 197 0 min 0,000 mm 0,0 UV-I 0 W/m 0,9 C 1,2 C 0,0 km/h (0 Bft) 100,00 %
04.11.2015 00:58 1,2 C 98 % 1023,1 hPa 0,0 l/m 0,0 km/h (0 Bft) S-SW 197 0 min 0,000 mm 0,0 UV-I 0 W/m 0,9 C 1,2 C 0,0 km/h (0 Bft) 95,65 %
04.11.2015 00:59 1,2 C 98 % 1023,1 hPa 0,0 l/m 0,2 km/h (0 Bft) S-SW 197 0 min 0,000 mm 0,0 UV-I 0 W/m 0,9 C 1,2 C 1,6 km/h (1 Bft) 91,67 %
04.11.2015 01:00 1,2 C 98 % 1023,1 hPa 0,0 l/m 0,7 km/h (0 Bft) S-SW 197 0 min 0,000 mm 0,0 UV-I 0 W/m 0,9 C 1,2 C 1,6 km/h (1 Bft) 100,00 %
04.11.2015 01:01 1,2 C 98 % 1023,1 hPa 0,0 l/m 0,1 km/h (0 Bft) S-SW 197 0 min 0,000 mm 0,0 UV-I 0 W/m 0,9 C 1,2 C 1,6 km/h (1 Bft) 100,00 %
04.11.2015 01:02 1,2 C 98 % 1023,1 hPa 0,0 l/m 0,3 km/h (0 Bft) S-SW 197 0 min 0,000 mm 0,0 UV-I 0 W/m 0,9 C 1,2 C 1,6 km/h (1 Bft) 100,00 %
04.11.2015 01:03 1,2 C 98 % 1023,1 hPa 0,0 l/m 0,0 km/h (0 Bft) S-SW 197 0 min 0,000 mm 0,0 UV-I 0 W/m 0,9 C 1,2 C 0,0 km/h (0 Bft) 100,00 %
04.11.2015 01:04 1,2 C 98 % 1023,1 hPa 0,0 l/m 0,0 km/h (0 Bft) S-SW 197 0 min 0,000 mm 0,0 UV-I 0 W/m 0,9 C 1,2 C 0,0 km/h (0 Bft) 100,00 %
04.11.2015 01:05 1,2 C 98 % 1023,1 hPa 0,0 l/m 0,1 km/h (0 Bft) S-SW 197 0 min 0,000 mm 0,0 UV-I 0 W/m 0,9 C 1,2 C 1,6 km/h (1 Bft) 95,83 %
04.11.2015 01:06 1,2 C 98 % 1023,1 hPa 0,0 l/m 0,0 km/h (0 Bft) S-SW 197 0 min 0,000 mm 0,0 UV-I 0 W/m 0,9 C 1,2 C 0,0 km/h (0 Bft) 100,00 %
04.11.2015 01:07 1,2 C 98 % 1023,1 hPa 0,0 l/m 0,3 km/h (0 Bft) S-SW 197 0 min 0,000 mm 0,0 UV-I 0 W/m 0,9 C 1,2 C 1,6 km/h (1 Bft) 95,83 %
04.11.2015 01:08 1,2 C 98 % 1023,1 hPa 0,0 l/m 0,1 km/h (0 Bft) S-SW 197 0 min 0,000 mm 0,0 UV-I 0 W/m 0,9 C 1,2 C 1,6 km/h (1 Bft) 100,00 %
04.11.2015 01:09 1,2 C 98 % 1023,1 hPa 0,0 l/m 0,0 km/h (0 Bft) S-SW 197 0 min 0,000 mm 0,0 UV-I 0 W/m 0,9 C 1,2 C 0,0 km/h (0 Bft) 100,00 %
04.11.2015 01:10 1,2 C 98 % 1023,1 hPa 0,0 l/m 0,1 km/h (0 Bft) S-SW 197 0 min 0,000 mm 0,0 UV-I 0 W/m 0,9 C 1,2 C 1,6 km/h (1 Bft) 100,00 %
04.11.2015 01:11 1,2 C 98 % 1023,1 hPa 0,0 l/m 1,0 km/h (0 Bft) O 98 0 min 0,000 mm 0,0 UV-I 0 W/m 0,9 C 1,2 C 3,2 km/h (1 Bft) 100,00 %
04.11.2015 01:12 1,2 C 98 % 1023,1 hPa 0,0 l/m 1,5 km/h (1 Bft) O 98 0 min 0,000 mm 0,0 UV-I 0 W/m 0,9 C 1,2 C 3,2 km/h (1 Bft) 100,00 %
04.11.2015 01:13 1,2 C 98 % 1023,1 hPa 0,0 l/m 2,3 km/h (1 Bft) SO 128 0 min 0,000 mm 0,0 UV-I 0 W/m 0,9 C 1,2 C 4,8 km/h (1 Bft) 100,00 %
04.11.2015 01:14 1,2 C 98 % 1023,2 hPa 0,0 l/m 2,7 km/h (1 Bft) O-SO 122 0 min 0,000 mm 0,0 UV-I 0 W/m 0,9 C 1,2 C 4,8 km/h (1 Bft) 100,00 %
04.11.2015 01:15 1,2 C 98 % 1023,2 hPa 0,0 l/m 1,9 km/h (1 Bft) O-SO 122 0 min 0,000 mm 0,0 UV-I 0 W/m 0,9 C 1,2 C 3,2 km/h (1 Bft) 96,15 %
04.11.2015 01:16 1,2 C 98 % 1023,1 hPa 0,0 l/m 1,6 km/h (1 Bft) O-SO 122 0 min 0,000 mm 0,0 UV-I 0 W/m 0,9 C 1,2 C 3,2 km/h (1 Bft) 100,00 %
04.11.2015 01:17 1,1 C 98 % 1023,1 hPa 0,0 l/m 0,6 km/h (0 Bft) O-SO 122 0 min 0,000 mm 0,0 UV-I 0 W/m 0,8 C 1,1 C 1,6 km/h (1 Bft) 100,00 %
04.11.2015 01:18 1,1 C 98 % 1023,1 hPa 0,0 l/m 0,8 km/h (0 Bft) O 80 0 min 0,000 mm 0,0 UV-I 0 W/m 0,8 C 1,1 C 1,6 km/h (1 Bft) 100,00 %
04.11.2015 01:19 1,1 C 98 % 1023,1 hPa 0,0 l/m 1,7 km/h (1 Bft) O 80 0 min 0,000 mm 0,0 UV-I 0 W/m 0,8 C 1,1 C 3,2 km/h (1 Bft) 100,00 %
04.11.2015 01:20 1,1 C 98 % 1023,1 hPa 0,0 l/m 0,5 km/h (0 Bft) O 80 0 min 0,000 mm 0,0 UV-I 0 W/m 0,8 C 1,1 C 1,6 km/h (1 Bft) 100,00 %
04.11.2015 01:21 1,1 C 98 % 1023,1 hPa 0,0 l/m 0,0 km/h (0 Bft) O 80 0 min 0,000 mm 0,0 UV-I 0 W/m 0,8 C 1,1 C 0,0 km/h (0 Bft) 100,00 %
04.11.2015 01:22 1,1 C 98 % 1023,1 hPa 0,0 l/m 0,0 km/h (0 Bft) O 80 0 min 0,000 mm 0,0 UV-I 0 W/m 0,8 C 1,1 C 0,0 km/h (0 Bft) 100,00 %
04.11.2015 01:23 1,1 C 98 % 1023,1 hPa 0,0 l/m 0,0 km/h (0 Bft) O 80 0 min 0,000 mm 0,0 UV-I 0 W/m 0,8 C 1,1 C 0,0 km/h (0 Bft) 100,00 %
04.11.2015 01:24 1,1 C 98 % 1023,1 hPa 0,0 l/m 0,0 km/h (0 Bft) O 80 0 min 0,000 mm 0,0 UV-I 0 W/m 0,8 C 1,1 C 0,0 km/h (0 Bft) 94,12 %
04.11.2015 01:25 1,1 C 98 % 1023,2 hPa 0,0 l/m 0,1 km/h (0 Bft) O 96 0 min 0,000 mm 0,0 UV-I 0 W/m 0,8 C 1,1 C 1,6 km/h (1 Bft) 100,00 %
04.11.2015 01:26 1,1 C 98 % 1023,2 hPa 0,0 l/m 2,9 km/h (1 Bft) SO 132 0 min 0,000 mm 0,0 UV-I 0 W/m 0,8 C 1,1 C 4,8 km/h (1 Bft) 100,00 %
04.11.2015 01:27 1,1 C 98 % 1023,2 hPa 0,0 l/m 1,5 km/h (1 Bft) SO 132 0 min 0,000 mm 0,0 UV-I 0 W/m 0,8 C 1,1 C 3,2 km/h (1 Bft) 100,00 %
04.11.2015 01:28 1,1 C 98 % 1023,2 hPa 0,0 l/m 1,7 km/h (1 Bft) SO 132 0 min 0,000 mm 0,0 UV-I 0 W/m 0,8 C 1,1 C 3,2 km/h (1 Bft) 100,00 %
04.11.2015 01:29 1,1 C 98 % 1023,2 hPa 0,0 l/m 0,9 km/h (0 Bft) SO 128 0 min 0,000 mm 0,0 UV-I 0 W/m 0,8 C 1,1 C 1,6 km/h (1 Bft) 95,65 %
04.11.2015 01:30 1,1 C 98 % 1023,2 hPa 0,0 l/m 1,7 km/h (1 Bft) SO 128 0 min 0,000 mm 0,0 UV-I 0 W/m 0,8 C 1,1 C 3,2 km/h (1 Bft) 100,00 %
04.11.2015 01:31 1,1 C 98 % 1023,2 hPa 0,0 l/m 1,5 km/h (1 Bft) SO 128 0 min 0,000 mm 0,0 UV-I 0 W/m 0,8 C 1,1 C 3,2 km/h (1 Bft) 96,15 %
04.11.2015 01:32 1,1 C 98 % 1023,2 hPa 0,0 l/m 1,7 km/h (1 Bft) O 94 0 min 0,000 mm 0,0 UV-I 0 W/m 0,8 C 1,1 C 3,2 km/h (1 Bft) 100,00 %
04.11.2015 01:33 1,1 C 98 % 1023,2 hPa 0,0 l/m 0,4 km/h (0 Bft) O 94 0 min 0,000 mm 0,0 UV-I 0 W/m 0,8 C 1,1 C 1,6 km/h (1 Bft) 100,00 %
04.11.2015 01:34 1,1 C 98 % 1023,2 hPa 0,0 l/m 0,1 km/h (0 Bft) O 94 0 min 0,000 mm 0,0 UV-I 0 W/m 0,8 C 1,1 C 1,6 km/h (1 Bft) 100,00 %
04.11.2015 01:35 1,1 C 98 % 1023,2 hPa 0,0 l/m 0,1 km/h (0 Bft) O 94 0 min 0,000 mm 0,0 UV-I 0 W/m 0,8 C 1,1 C 1,6 km/h (1 Bft) 100,00 %
04.11.2015 01:36 1,1 C 98 % 1023,2 hPa 0,0 l/m 0,2 km/h (0 Bft) O 94 0 min 0,000 mm 0,0 UV-I 0 W/m 0,8 C 1,1 C 1,6 km/h (1 Bft) 100,00 %
04.11.2015 01:37 1,1 C 98 % 1023,2 hPa 0,0 l/m 0,1 km/h (0 Bft) O 94 0 min 0,000 mm 0,0 UV-I 0 W/m 0,8 C 1,1 C 1,6 km/h (1 Bft) 100,00 %
04.11.2015 01:38 1,1 C 98 % 1023,2 hPa 0,0 l/m 0,0 km/h (0 Bft) O 94 0 min 0,000 mm 0,0 UV-I 0 W/m 0,8 C 1,1 C 0,0 km/h (0 Bft) 100,00 %
04.11.2015 01:39 1,1 C 98 % 1023,2 hPa 0,0 l/m 0,0 km/h (0 Bft) O 94 0 min 0,000 mm 0,0 UV-I 0 W/m 0,8 C 1,1 C 0,0 km/h (0 Bft) 100,00 %
04.11.2015 01:40 1,2 C 98 % 1023,1 hPa 0,0 l/m 0,0 km/h (0 Bft) O 94 0 min 0,000 mm 0,0 UV-I 0 W/m 0,9 C 1,2 C 0,0 km/h (0 Bft) 100,00 %
04.11.2015 01:41 1,2 C 98 % 1023,1 hPa 0,0 l/m 0,9 km/h (0 Bft) O-NO 58 0 min 0,000 mm 0,0 UV-I 0 W/m 0,9 C 1,2 C 1,6 km/h (1 Bft) 100,00 %
04.11.2015 01:42 1,1 C 98 % 1023,2 hPa 0,0 l/m 0,3 km/h (0 Bft) O-NO 58 0 min 0,000 mm 0,0 UV-I 0 W/m 0,8 C 1,1 C 1,6 km/h (1 Bft) 100,00 %
04.11.2015 01:43 1,2 C 98 % 1023,1 hPa 0,0 l/m 0,0 km/h (0 Bft) O-NO 58 0 min 0,000 mm 0,0 UV-I 0 W/m 0,9 C 1,2 C 0,0 km/h (0 Bft) 100,00 %
04.11.2015 01:44 1,2 C 98 % 1023,1 hPa 0,0 l/m 0,0 km/h (0 Bft) O-NO 58 0 min 0,000 mm 0,0 UV-I 0 W/m 0,9 C 1,2 C 0,0 km/h (0 Bft) 100,00 %
04.11.2015 01:45 1,2 C 98 % 1023,1 hPa 0,0 l/m 0,0 km/h (0 Bft) O-NO 58 0 min 0,000 mm 0,0 UV-I 0 W/m 0,9 C 1,2 C 0,0 km/h (0 Bft) 100,00 %
04.11.2015 01:46 1,2 C 98 % 1023,1 hPa 0,0 l/m 0,5 km/h (0 Bft) O-NO 58 0 min 0,000 mm 0,0 UV-I 0 W/m 0,9 C 1,2 C 1,6 km/h (1 Bft) 100,00 %
04.11.2015 01:47 1,1 C 98 % 1023,1 hPa 0,0 l/m 0,4 km/h (0 Bft) O-NO 58 0 min 0,000 mm 0,0 UV-I 0 W/m 0,8 C 1,1 C 1,6 km/h (1 Bft) 100,00 %
04.11.2015 01:48 1,1 C 98 % 1023,1 hPa 0,0 l/m 0,5 km/h (0 Bft) O-NO 58 0 min 0,000 mm 0,0 UV-I 0 W/m 0,8 C 1,1 C 1,6 km/h (1 Bft) 100,00 %
04.11.2015 01:49 1,2 C 98 % 1023,2 hPa 0,0 l/m 0,1 km/h (0 Bft) O-NO 58 0 min 0,000 mm 0,0 UV-I 0 W/m 0,9 C 1,2 C 1,6 km/h (1 Bft) 100,00 %
04.11.2015 01:50 1,2 C 98 % 1023,2 hPa 0,0 l/m 0,0 km/h (0 Bft) O-NO 58 0 min 0,000 mm 0,0 UV-I 0 W/m 0,9 C 1,2 C 0,0 km/h (0 Bft) 100,00 %
04.11.2015 01:51 1,2 C 98 % 1023,2 hPa 0,0 l/m 0,0 km/h (0 Bft) O-NO 58 0 min 0,000 mm 0,0 UV-I 0 W/m 0,9 C 1,2 C 0,0 km/h (0 Bft) 100,00 %
04.11.2015 01:52 1,1 C 98 % 1023,2 hPa 0,0 l/m 0,0 km/h (0 Bft) O-NO 58 0 min 0,000 mm 0,0 UV-I 0 W/m 0,8 C 1,1 C 0,0 km/h (0 Bft) 100,00 %
04.11.2015 01:53 1,1 C 98 % 1023,2 hPa 0,0 l/m 0,0 km/h (0 Bft) O-NO 58 0 min 0,000 mm 0,0 UV-I 0 W/m 0,8 C 1,1 C 0,0 km/h (0 Bft) 100,00 %
04.11.2015 01:54 1,1 C 98 % 1023,2 hPa 0,0 l/m 0,1 km/h (0 Bft) O-NO 58 0 min 0,000 mm 0,0 UV-I 0 W/m 0,8 C 1,1 C 1,6 km/h (1 Bft) 100,00 %
04.11.2015 01:55 1,1 C 98 % 1023,2 hPa 0,0 l/m 0,1 km/h (0 Bft) O-NO 58 0 min 0,000 mm 0,0 UV-I 0 W/m 0,8 C 1,1 C 1,6 km/h (1 Bft) 95,83 %
04.11.2015 01:56 1,1 C 98 % 1023,1 hPa 0,0 l/m 0,0 km/h (0 Bft) O-NO 58 0 min 0,000 mm 0,0 UV-I 0 W/m 0,8 C 1,1 C 0,0 km/h (0 Bft) 100,00 %
04.11.2015 01:57 1,1 C 98 % 1023,1 hPa 0,0 l/m 0,0 km/h (0 Bft) O-NO 58 0 min 0,000 mm 0,0 UV-I 0 W/m 0,8 C 1,1 C 0,0 km/h (0 Bft) 100,00 %
04.11.2015 01:58 1,1 C 98 % 1023,1 hPa 0,0 l/m 0,7 km/h (0 Bft) N-NO 31 0 min 0,000 mm 0,0 UV-I 0 W/m 0,8 C 1,1 C 3,2 km/h (1 Bft) 100,00 %
04.11.2015 01:59 1,1 C 98 % 1023,1 hPa 0,0 l/m 1,1 km/h (1 Bft) NO 44 0 min 0,000 mm 0,0 UV-I 0 W/m 0,8 C 1,1 C 3,2 km/h (1 Bft) 96,15 %
04.11.2015 02:00 1,1 C 98 % 1023,2 hPa 0,0 l/m 0,1 km/h (0 Bft) NO 44 0 min 0,000 mm 0,0 UV-I 0 W/m 0,8 C 1,1 C 1,6 km/h (1 Bft) 100,00 %
04.11.2015 02:01 1,1 C 98 % 1023,2 hPa 0,0 l/m 0,0 km/h (0 Bft) NO 44 0 min 0,000 mm 0,0 UV-I 0 W/m 0,8 C 1,1 C 0,0 km/h (0 Bft) 100,00 %
04.11.2015 02:02 1,1 C 98 % 1023,3 hPa 0,0 l/m 0,2 km/h (0 Bft) NO 44 0 min 0,000 mm 0,0 UV-I 0 W/m 0,8 C 1,1 C 1,6 km/h (1 Bft) 100,00 %
04.11.2015 02:03 1,1 C 98 % 1023,3 hPa 0,0 l/m 0,0 km/h (0 Bft) NO 44 0 min 0,000 mm 0,0 UV-I 0 W/m 0,8 C 1,1 C 0,0 km/h (0 Bft) 95,65 %
04.11.2015 02:04 1,1 C 98 % 1023,3 hPa 0,0 l/m 0,5 km/h (0 Bft) SO 125 0 min 0,000 mm 0,0 UV-I 0 W/m 0,8 C 1,1 C 1,6 km/h (1 Bft) 100,00 %
04.11.2015 02:05 1,1 C 98 % 1023,3 hPa 0,0 l/m 0,8 km/h (0 Bft) SO 125 0 min 0,000 mm 0,0 UV-I 0 W/m 0,8 C 1,1 C 1,6 km/h (1 Bft) 96,15 %
04.11.2015 02:06 1,1 C 98 % 1023,3 hPa 0,0 l/m 0,1 km/h (0 Bft) SO 125 0 min 0,000 mm 0,0 UV-I 0 W/m 0,8 C 1,1 C 1,6 km/h (1 Bft) 100,00 %
04.11.2015 02:07 1,1 C 98 % 1023,3 hPa 0,0 l/m 1,7 km/h (1 Bft) SO 132 0 min 0,000 mm 0,0 UV-I 0 W/m 0,8 C 1,1 C 3,2 km/h (1 Bft) 100,00 %
04.11.2015 02:08 1,1 C 98 % 1023,3 hPa 0,0 l/m 2,0 km/h (1 Bft) S-SW 194 0 min 0,000 mm 0,0 UV-I 0 W/m 0,8 C 1,1 C 3,2 km/h (1 Bft) 95,83 %
04.11.2015 02:09 1,1 C 98 % 1023,3 hPa 0,0 l/m 1,2 km/h (1 Bft) S-SW 194 0 min 0,000 mm 0,0 UV-I 0 W/m 0,8 C 1,1 C 3,2 km/h (1 Bft) 100,00 %
04.11.2015 02:10 1,1 C 98 % 1023,3 hPa 0,0 l/m 1,9 km/h (1 Bft) S-SW 194 0 min 0,000 mm 0,0 UV-I 0 W/m 0,8 C 1,1 C 3,2 km/h (1 Bft) 100,00 %
04.11.2015 02:11 1,1 C 98 % 1023,3 hPa 0,0 l/m 1,7 km/h (1 Bft) S-SW 194 0 min 0,000 mm 0,0 UV-I 0 W/m 0,8 C 1,1 C 3,2 km/h (1 Bft) 100,00 %
04.11.2015 02:12 1,1 C 98 % 1023,3 hPa 0,0 l/m 0,2 km/h (0 Bft) S-SW 194 0 min 0,000 mm 0,0 UV-I 0 W/m 0,8 C 1,1 C 1,6 km/h (1 Bft) 100,00 %
04.11.2015 02:13 1,1 C 98 % 1023,2 hPa 0,0 l/m 0,6 km/h (0 Bft) S-SW 194 0 min 0,000 mm 0,0 UV-I 0 W/m 0,8 C 1,1 C 1,6 km/h (1 Bft) 100,00 %
04.11.2015 02:14 1,1 C 98 % 1023,2 hPa 0,0 l/m 2,1 km/h (1 Bft) S-SW 194 0 min 0,000 mm 0,0 UV-I 0 W/m 0,8 C 1,1 C 3,2 km/h (1 Bft) 95,83 %
04.11.2015 02:15 1,1 C 98 % 1023,2 hPa 0,0 l/m 1,3 km/h (1 Bft) S-SW 194 0 min 0,000 mm 0,0 UV-I 0 W/m 0,8 C 1,1 C 3,2 km/h (1 Bft) 100,00 %
04.11.2015 02:16 1,1 C 98 % 1023,2 hPa 0,0 l/m 1,5 km/h (1 Bft) S-SW 194 0 min 0,000 mm 0,0 UV-I 0 W/m 0,8 C 1,1 C 3,2 km/h (1 Bft) 100,00 %
04.11.2015 02:17 1,1 C 98 % 1023,2 hPa 0,0 l/m 0,0 km/h (0 Bft) S-SW 194 0 min 0,000 mm 0,0 UV-I 0 W/m 0,8 C 1,1 C 0,0 km/h (0 Bft) 100,00 %
04.11.2015 02:18 1,0 C 98 % 1023,3 hPa 0,0 l/m 0,0 km/h (0 Bft) S-SW 194 0 min 0,000 mm 0,0 UV-I 0 W/m 0,7 C 1,0 C 0,0 km/h (0 Bft) 100,00 %
04.11.2015 02:19 1,0 C 98 % 1023,3 hPa 0,0 l/m 0,0 km/h (0 Bft) S-SW 194 0 min 0,000 mm 0,0 UV-I 0 W/m 0,7 C 1,0 C 0,0 km/h (0 Bft) 100,00 %
04.11.2015 02:20 0,9 C 98 % 1023,3 hPa 0,0 l/m 0,1 km/h (0 Bft) S-SW 194 0 min 0,000 mm 0,0 UV-I 0 W/m 0,6 C 0,9 C 1,6 km/h (1 Bft) 100,00 %
04.11.2015 02:21 0,9 C 98 % 1023,3 hPa 0,0 l/m 2,3 km/h (1 Bft) S-SO 167 0 min 0,000 mm 0,0 UV-I 0 W/m 0,6 C 0,9 C 4,8 km/h (1 Bft) 100,00 %
04.11.2015 02:22 0,9 C 98 % 1023,3 hPa 0,0 l/m 1,2 km/h (1 Bft) S-SO 167 0 min 0,000 mm 0,0 UV-I 0 W/m 0,6 C 0,9 C 1,6 km/h (1 Bft) 93,10 %
04.11.2015 02:23 0,9 C 98 % 1023,4 hPa 0,0 l/m 0,7 km/h (0 Bft) S-SO 167 0 min 0,000 mm 0,0 UV-I 0 W/m 0,6 C 0,9 C 1,6 km/h (1 Bft) 100,00 %
04.11.2015 02:24 0,9 C 98 % 1023,3 hPa 0,0 l/m 1,7 km/h (1 Bft) O-SO 117 0 min 0,000 mm 0,0 UV-I 0 W/m 0,6 C 0,9 C 3,2 km/h (1 Bft) 100,00 %
04.11.2015 02:25 0,9 C 98 % 1023,3 hPa 0,0 l/m 0,8 km/h (0 Bft) O-SO 117 0 min 0,000 mm 0,0 UV-I 0 W/m 0,6 C 0,9 C 1,6 km/h (1 Bft) 83,33 %
04.11.2015 02:26 0,9 C 98 % 1023,4 hPa 0,0 l/m 0,0 km/h (0 Bft) O-SO 117 0 min 0,000 mm 0,0 UV-I 0 W/m 0,6 C 0,9 C 0,0 km/h (0 Bft) 100,00 %
04.11.2015 02:27 0,9 C 98 % 1023,4 hPa 0,0 l/m 0,0 km/h (0 Bft) O-SO 117 0 min 0,000 mm 0,0 UV-I 0 W/m 0,6 C 0,9 C 0,0 km/h (0 Bft) 100,00 %
04.11.2015 02:28 1,0 C 98 % 1023,5 hPa 0,0 l/m 0,2 km/h (0 Bft) O-SO 117 0 min 0,000 mm 0,0 UV-I 0 W/m 0,7 C 1,0 C 1,6 km/h (1 Bft) 100,00 %
04.11.2015 02:29 1,0 C 98 % 1023,5 hPa 0,0 l/m 0,6 km/h (0 Bft) O-SO 117 0 min 0,000 mm 0,0 UV-I 0 W/m 0,7 C 1,0 C 1,6 km/h (1 Bft) 100,00 %
04.11.2015 02:30 1,0 C 98 % 1023,5 hPa 0,0 l/m 0,1 km/h (0 Bft) O-SO 117 0 min 0,000 mm 0,0 UV-I 0 W/m 0,7 C 1,0 C 1,6 km/h (1 Bft) 100,00 %
04.11.2015 02:31 1,0 C 98 % 1023,4 hPa 0,0 l/m 0,7 km/h (0 Bft) O-SO 117 0 min 0,000 mm 0,0 UV-I 0 W/m 0,7 C 1,0 C 1,6 km/h (1 Bft) 100,00 %
04.11.2015 02:32 1,0 C 98 % 1023,4 hPa 0,0 l/m 1,1 km/h (1 Bft) SO 142 0 min 0,000 mm 0,0 UV-I 0 W/m 0,7 C 1,0 C 1,6 km/h (1 Bft) 100,00 %
04.11.2015 02:33 1,0 C 98 % 1023,3 hPa 0,0 l/m 0,6 km/h (0 Bft) SO 142 0 min 0,000 mm 0,0 UV-I 0 W/m 0,7 C 1,0 C 1,6 km/h (1 Bft) 100,00 %
04.11.2015 02:34 1,0 C 98 % 1023,2 hPa 0,0 l/m 0,1 km/h (0 Bft) SO 142 0 min 0,000 mm 0,0 UV-I 0 W/m 0,7 C 1,0 C 1,6 km/h (1 Bft) 96,15 %
04.11.2015 02:35 1,0 C 98 % 1023,2 hPa 0,0 l/m 0,0 km/h (0 Bft) SO 142 0 min 0,000 mm 0,0 UV-I 0 W/m 0,7 C 1,0 C 0,0 km/h (0 Bft) 100,00 %
04.11.2015 02:36 1,0 C 98 % 1023,2 hPa 0,0 l/m 0,7 km/h (0 Bft) SO 142 0 min 0,000 mm 0,0 UV-I 0 W/m 0,7 C 1,0 C 1,6 km/h (1 Bft) 100,00 %
04.11.2015 02:37 1,0 C 98 % 1023,1 hPa 0,0 l/m 0,0 km/h (0 Bft) SO 142 0 min 0,000 mm 0,0 UV-I 0 W/m 0,7 C 1,0 C 0,0 km/h (0 Bft) 100,00 %
04.11.2015 02:38 0,9 C 98 % 1023,1 hPa 0,0 l/m 0,0 km/h (0 Bft) SO 142 0 min 0,000 mm 0,0 UV-I 0 W/m 0,6 C 0,9 C 0,0 km/h (0 Bft) 100,00 %
04.11.2015 02:39 0,9 C 98 % 1023,1 hPa 0,0 l/m 0,0 km/h (0 Bft) SO 142 0 min 0,000 mm 0,0 UV-I 0 W/m 0,6 C 0,9 C 0,0 km/h (0 Bft) 100,00 %
04.11.2015 02:40 0,9 C 98 % 1023,1 hPa 0,0 l/m 0,0 km/h (0 Bft) SO 142 0 min 0,000 mm 0,0 UV-I 0 W/m 0,6 C 0,9 C 0,0 km/h (0 Bft) 100,00 %
04.11.2015 02:41 0,9 C 98 % 1023,1 hPa 0,0 l/m 0,0 km/h (0 Bft) SO 142 0 min 0,000 mm 0,0 UV-I 0 W/m 0,6 C 0,9 C 0,0 km/h (0 Bft) 100,00 %
04.11.2015 02:42 0,9 C 98 % 1023,2 hPa 0,0 l/m 0,3 km/h (0 Bft) SO 142 0 min 0,000 mm 0,0 UV-I 0 W/m 0,6 C 0,9 C 1,6 km/h (1 Bft) 100,00 %
04.11.2015 02:43 0,9 C 98 % 1023,2 hPa 0,0 l/m 2,0 km/h (1 Bft) S-SO 159 0 min 0,000 mm 0,0 UV-I 0 W/m 0,6 C 0,9 C 3,2 km/h (1 Bft) 100,00 %
04.11.2015 02:44 0,9 C 98 % 1023,2 hPa 0,0 l/m 1,6 km/h (1 Bft) S-SO 159 0 min 0,000 mm 0,0 UV-I 0 W/m 0,6 C 0,9 C 3,2 km/h (1 Bft) 100,00 %
04.11.2015 02:45 0,9 C 98 % 1023,3 hPa 0,0 l/m 0,8 km/h (0 Bft) S-SO 167 0 min 0,000 mm 0,0 UV-I 0 W/m 0,6 C 0,9 C 1,6 km/h (1 Bft) 100,00 %
04.11.2015 02:46 0,9 C 98 % 1023,3 hPa 0,0 l/m 2,1 km/h (1 Bft) S 178 0 min 0,000 mm 0,0 UV-I 0 W/m 0,6 C 0,9 C 3,2 km/h (1 Bft) 95,83 %
04.11.2015 02:47 0,9 C 98 % 1023,3 hPa 0,0 l/m 2,5 km/h (1 Bft) SW 221 0 min 0,000 mm 0,0 UV-I 0 W/m 0,6 C 0,9 C 3,2 km/h (1 Bft) 100,00 %
04.11.2015 02:48 0,9 C 98 % 1023,3 hPa 0,0 l/m 1,7 km/h (1 Bft) SW 219 0 min 0,000 mm 0,0 UV-I 0 W/m 0,6 C 0,9 C 3,2 km/h (1 Bft) 100,00 %
04.11.2015 02:49 1,0 C 98 % 1023,3 hPa 0,0 l/m 3,6 km/h (1 Bft) SW 230 0 min 0,000 mm 0,0 UV-I 0 W/m 0,7 C 1,0 C 4,8 km/h (1 Bft) 100,00 %
04.11.2015 02:50 0,9 C 98 % 1023,4 hPa 0,0 l/m 3,8 km/h (1 Bft) SW 230 0 min 0,000 mm 0,0 UV-I 0 W/m 0,6 C 0,9 C 4,8 km/h (1 Bft) 100,00 %
04.11.2015 02:51 0,9 C 98 % 1023,4 hPa 0,0 l/m 3,1 km/h (1 Bft) SW 232 0 min 0,000 mm 0,0 UV-I 0 W/m 0,6 C 0,9 C 4,8 km/h (1 Bft) 96,15 %
04.11.2015 02:52 0,9 C 98 % 1023,5 hPa 0,0 l/m 3,0 km/h (1 Bft) S-SW 211 0 min 0,000 mm 0,0 UV-I 0 W/m 0,6 C 0,9 C 4,8 km/h (1 Bft) 100,00 %
04.11.2015 02:53 0,9 C 98 % 1023,5 hPa 0,0 l/m 2,5 km/h (1 Bft) S-SW 211 0 min 0,000 mm 0,0 UV-I 0 W/m 0,6 C 0,9 C 3,2 km/h (1 Bft) 100,00 %
04.11.2015 02:54 0,9 C 98 % 1023,5 hPa 0,0 l/m 2,2 km/h (1 Bft) S-SW 211 0 min 0,000 mm 0,0 UV-I 0 W/m 0,6 C 0,9 C 3,2 km/h (1 Bft) 100,00 %
04.11.2015 02:55 0,9 C 98 % 1023,5 hPa 0,0 l/m 1,6 km/h (1 Bft) S-SW 209 0 min 0,000 mm 0,0 UV-I 0 W/m 0,6 C 0,9 C 3,2 km/h (1 Bft) 100,00 %
04.11.2015 02:56 0,9 C 98 % 1023,4 hPa 0,0 l/m 1,6 km/h (1 Bft) S-SW 208 0 min 0,000 mm 0,0 UV-I 0 W/m 0,6 C 0,9 C 3,2 km/h (1 Bft) 100,00 %
04.11.2015 02:57 0,9 C 98 % 1023,4 hPa 0,0 l/m 1,8 km/h (1 Bft) S-SW 195 0 min 0,000 mm 0,0 UV-I 0 W/m 0,6 C 0,9 C 3,2 km/h (1 Bft) 95,83 %
04.11.2015 02:58 0,8 C 98 % 1023,4 hPa 0,0 l/m 1,9 km/h (1 Bft) S-SW 195 0 min 0,000 mm 0,0 UV-I 0 W/m 0,5 C 0,8 C 3,2 km/h (1 Bft) 100,00 %
04.11.2015 02:59 0,8 C 98 % 1023,5 hPa 0,0 l/m 1,5 km/h (1 Bft) S-SW 195 0 min 0,000 mm 0,0 UV-I 0 W/m 0,5 C 0,8 C 3,2 km/h (1 Bft) 100,00 %
04.11.2015 03:00 0,8 C 98 % 1023,4 hPa 0,0 l/m 0,0 km/h (0 Bft) S-SW 195 0 min 0,000 mm 0,0 UV-I 0 W/m 0,5 C 0,8 C 0,0 km/h (0 Bft) 100,00 %
04.11.2015 03:01 0,8 C 98 % 1023,5 hPa 0,0 l/m 1,3 km/h (1 Bft) S-SW 195 0 min 0,000 mm 0,0 UV-I 0 W/m 0,5 C 0,8 C 1,6 km/h (1 Bft) 100,00 %
04.11.2015 03:02 0,9 C 98 % 1023,5 hPa 0,0 l/m 2,0 km/h (1 Bft) S-SW 195 0 min 0,000 mm 0,0 UV-I 0 W/m 0,6 C 0,9 C 3,2 km/h (1 Bft) 100,00 %
04.11.2015 03:03 0,9 C 98 % 1023,5 hPa 0,0 l/m 1,5 km/h (1 Bft) S-SW 195 0 min 0,000 mm 0,0 UV-I 0 W/m 0,6 C 0,9 C 3,2 km/h (1 Bft) 100,00 %
04.11.2015 03:04 0,9 C 98 % 1023,5 hPa 0,0 l/m 0,9 km/h (0 Bft) S-SW 195 0 min 0,000 mm 0,0 UV-I 0 W/m 0,6 C 0,9 C 3,2 km/h (1 Bft) 100,00 %
04.11.2015 03:05 0,9 C 98 % 1023,4 hPa 0,0 l/m 0,3 km/h (0 Bft) S-SW 195 0 min 0,000 mm 0,0 UV-I 0 W/m 0,6 C 0,9 C 1,6 km/h (1 Bft) 95,83 %
04.11.2015 03:06 0,9 C 98 % 1023,4 hPa 0,0 l/m 0,6 km/h (0 Bft) S-SW 195 0 min 0,000 mm 0,0 UV-I 0 W/m 0,6 C 0,9 C 3,2 km/h (1 Bft) 100,00 %
04.11.2015 03:07 0,9 C 98 % 1023,4 hPa 0,0 l/m 0,9 km/h (0 Bft) S-SW 195 0 min 0,000 mm 0,0 UV-I 0 W/m 0,6 C 0,9 C 1,6 km/h (1 Bft) 100,00 %
04.11.2015 03:08 0,9 C 98 % 1023,5 hPa 0,0 l/m 1,6 km/h (1 Bft) S-SW 196 0 min 0,000 mm 0,0 UV-I 0 W/m 0,6 C 0,9 C 3,2 km/h (1 Bft) 100,00 %
04.11.2015 03:09 0,9 C 98 % 1023,5 hPa 0,0 l/m 2,5 km/h (1 Bft) SW 216 0 min 0,000 mm 0,0 UV-I 0 W/m 0,6 C 0,9 C 3,2 km/h (1 Bft) 100,00 %
04.11.2015 03:10 0,9 C 98 % 1023,6 hPa 0,0 l/m 3,7 km/h (1 Bft) SW 217 0 min 0,000 mm 0,0 UV-I 0 W/m 0,6 C 0,9 C 4,8 km/h (1 Bft) 100,00 %
04.11.2015 03:11 0,8 C 98 % 1023,5 hPa 0,0 l/m 4,0 km/h (1 Bft) SW 219 0 min 0,000 mm 0,0 UV-I 0 W/m 0,5 C 0,8 C 6,4 km/h (2 Bft) 100,00 %
04.11.2015 03:12 0,8 C 98 % 1023,6 hPa 0,0 l/m 1,4 km/h (1 Bft) SW 219 0 min 0,000 mm 0,0 UV-I 0 W/m 0,5 C 0,8 C 3,2 km/h (1 Bft) 100,00 %
04.11.2015 03:13 0,8 C 98 % 1023,5 hPa 0,0 l/m 0,5 km/h (0 Bft) SW 219 0 min 0,000 mm 0,0 UV-I 0 W/m 0,5 C 0,8 C 1,6 km/h (1 Bft) 100,00 %
04.11.2015 03:14 0,8 C 98 % 1023,4 hPa 0,0 l/m 0,6 km/h (0 Bft) SW 219 0 min 0,000 mm 0,0 UV-I 0 W/m 0,5 C 0,8 C 1,6 km/h (1 Bft) 100,00 %
04.11.2015 03:15 0,8 C 98 % 1023,4 hPa 0,0 l/m 0,0 km/h (0 Bft) SW 219 0 min 0,000 mm 0,0 UV-I 0 W/m 0,5 C 0,8 C 0,0 km/h (0 Bft) 100,00 %
04.11.2015 03:16 0,8 C 98 % 1023,4 hPa 0,0 l/m 0,3 km/h (0 Bft) SW 219 0 min 0,000 mm 0,0 UV-I 0 W/m 0,5 C 0,8 C 1,6 km/h (1 Bft) 95,65 %
04.11.2015 03:17 0,8 C 98 % 1023,3 hPa 0,0 l/m 1,9 km/h (1 Bft) W-SW 248 0 min 0,000 mm 0,0 UV-I 0 W/m 0,5 C 0,8 C 3,2 km/h (1 Bft) 100,00 %
04.11.2015 03:18 0,8 C 98 % 1023,3 hPa 0,0 l/m 1,5 km/h (1 Bft) W-SW 247 0 min 0,000 mm 0,0 UV-I 0 W/m 0,5 C 0,8 C 3,2 km/h (1 Bft) 100,00 %
04.11.2015 03:19 0,8 C 98 % 1023,3 hPa 0,0 l/m 2,3 km/h (1 Bft) W-SW 247 0 min 0,000 mm 0,0 UV-I 0 W/m 0,5 C 0,8 C 3,2 km/h (1 Bft) 95,65 %
04.11.2015 03:20 0,7 C 98 % 1023,4 hPa 0,0 l/m 1,6 km/h (1 Bft) W-SW 241 0 min 0,000 mm 0,0 UV-I 0 W/m 0,4 C 0,7 C 3,2 km/h (1 Bft) 100,00 %
04.11.2015 03:21 0,7 C 98 % 1023,4 hPa 0,0 l/m 3,8 km/h (1 Bft) SW 221 0 min 0,000 mm 0,0 UV-I 0 W/m 0,4 C 0,7 C 4,8 km/h (1 Bft) 100,00 %
04.11.2015 03:22 0,7 C 98 % 1023,5 hPa 0,0 l/m 2,7 km/h (1 Bft) W-SW 238 0 min 0,000 mm 0,0 UV-I 0 W/m 0,4 C 0,7 C 4,8 km/h (1 Bft) 100,00 %
04.11.2015 03:23 0,7 C 98 % 1023,6 hPa 0,0 l/m 1,5 km/h (1 Bft) W-SW 237 0 min 0,000 mm 0,0 UV-I 0 W/m 0,4 C 0,7 C 3,2 km/h (1 Bft) 100,00 %
04.11.2015 03:24 0,7 C 98 % 1023,6 hPa 0,0 l/m 1,7 km/h (1 Bft) W-SW 238 0 min 0,000 mm 0,0 UV-I 0 W/m 0,4 C 0,7 C 3,2 km/h (1 Bft) 100,00 %
04.11.2015 03:25 0,7 C 98 % 1023,6 hPa 0,0 l/m 1,6 km/h (1 Bft) W-NW 286 0 min 0,000 mm 0,0 UV-I 0 W/m 0,4 C 0,7 C 3,2 km/h (1 Bft) 100,00 %
04.11.2015 03:26 0,7 C 98 % 1023,6 hPa 0,0 l/m 1,3 km/h (1 Bft) W-NW 286 0 min 0,000 mm 0,0 UV-I 0 W/m 0,4 C 0,7 C 1,6 km/h (1 Bft) 95,83 %
04.11.2015 03:27 0,7 C 98 % 1023,6 hPa 0,0 l/m 0,6 km/h (0 Bft) W-NW 286 0 min 0,000 mm 0,0 UV-I 0 W/m 0,4 C 0,7 C 1,6 km/h (1 Bft) 100,00 %
04.11.2015 03:28 0,7 C 98 % 1023,6 hPa 0,0 l/m 1,6 km/h (1 Bft) W-NW 286 0 min 0,000 mm 0,0 UV-I 0 W/m 0,4 C 0,7 C 3,2 km/h (1 Bft) 100,00 %
04.11.2015 03:29 0,7 C 98 % 1023,6 hPa 0,0 l/m 1,4 km/h (1 Bft) W-NW 290 0 min 0,000 mm 0,0 UV-I 0 W/m 0,4 C 0,7 C 1,6 km/h (1 Bft) 91,30 %
04.11.2015 03:30 0,6 C 98 % 1023,5 hPa 0,0 l/m 1,1 km/h (1 Bft) W-NW 290 0 min 0,000 mm 0,0 UV-I 0 W/m 0,3 C 0,6 C 1,6 km/h (1 Bft) 95,83 %
04.11.2015 03:31 0,6 C 98 % 1023,5 hPa 0,0 l/m 0,9 km/h (0 Bft) W-NW 290 0 min 0,000 mm 0,0 UV-I 0 W/m 0,3 C 0,6 C 1,6 km/h (1 Bft) 100,00 %
04.11.2015 03:32 0,6 C 98 % 1023,6 hPa 0,0 l/m 1,1 km/h (1 Bft) W-NW 290 0 min 0,000 mm 0,0 UV-I 0 W/m 0,3 C 0,6 C 1,6 km/h (1 Bft) 100,00 %
04.11.2015 03:33 0,7 C 98 % 1023,6 hPa 0,0 l/m 0,8 km/h (0 Bft) W-NW 290 0 min 0,000 mm 0,0 UV-I 0 W/m 0,4 C 0,7 C 1,6 km/h (1 Bft) 100,00 %
04.11.2015 03:34 0,7 C 98 % 1023,6 hPa 0,0 l/m 2,0 km/h (1 Bft) W-NW 290 0 min 0,000 mm 0,0 UV-I 0 W/m 0,4 C 0,7 C 3,2 km/h (1 Bft) 100,00 %
04.11.2015 03:35 0,7 C 98 % 1023,5 hPa 0,0 l/m 1,2 km/h (1 Bft) W-NW 293 0 min 0,000 mm 0,0 UV-I 0 W/m 0,4 C 0,7 C 3,2 km/h (1 Bft) 100,00 %
04.11.2015 03:36 0,7 C 98 % 1023,5 hPa 0,0 l/m 3,6 km/h (1 Bft) NW 309 0 min 0,000 mm 0,0 UV-I 0 W/m 0,4 C 0,7 C 4,8 km/h (1 Bft) 100,00 %
04.11.2015 03:37 0,6 C 98 % 1023,5 hPa 0,0 l/m 4,3 km/h (1 Bft) W-NW 289 0 min 0,000 mm 0,0 UV-I 0 W/m 0,3 C 0,6 C 4,8 km/h (1 Bft) 100,00 %
04.11.2015 03:38 0,6 C 98 % 1023,5 hPa 0,0 l/m 2,7 km/h (1 Bft) W 264 0 min 0,000 mm 0,0 UV-I 0 W/m 0,3 C 0,6 C 4,8 km/h (1 Bft) 100,00 %
04.11.2015 03:39 0,5 C 98 % 1023,5 hPa 0,0 l/m 2,3 km/h (1 Bft) W-SW 240 0 min 0,000 mm 0,0 UV-I 0 W/m 0,2 C 0,5 C 3,2 km/h (1 Bft) 100,00 %
04.11.2015 03:40 0,4 C 98 % 1023,6 hPa 0,0 l/m 1,2 km/h (1 Bft) SW 229 0 min 0,000 mm 0,0 UV-I 0 W/m 0,1 C 0,4 C 3,2 km/h (1 Bft) 100,00 %
04.11.2015 03:41 0,4 C 98 % 1023,6 hPa 0,0 l/m 0,6 km/h (0 Bft) SW 229 0 min 0,000 mm 0,0 UV-I 0 W/m 0,1 C 0,4 C 1,6 km/h (1 Bft) 100,00 %
04.11.2015 03:42 0,4 C 98 % 1023,6 hPa 0,0 l/m 2,3 km/h (1 Bft) S-SW 204 0 min 0,000 mm 0,0 UV-I 0 W/m 0,1 C 0,4 C 4,8 km/h (1 Bft) 100,00 %
04.11.2015 03:43 0,4 C 98 % 1023,6 hPa 0,0 l/m 1,4 km/h (1 Bft) S-SW 204 0 min 0,000 mm 0,0 UV-I 0 W/m 0,1 C 0,4 C 1,6 km/h (1 Bft) 100,00 %
04.11.2015 03:44 0,4 C 98 % 1023,6 hPa 0,0 l/m 1,0 km/h (0 Bft) S-SW 204 0 min 0,000 mm 0,0 UV-I 0 W/m 0,1 C 0,4 C 1,6 km/h (1 Bft) 100,00 %
04.11.2015 03:45 0,3 C 98 % 1023,6 hPa 0,0 l/m 0,2 km/h (0 Bft) S-SW 204 0 min 0,000 mm 0,0 UV-I 0 W/m 0,0 C 0,3 C 1,6 km/h (1 Bft) 100,00 %
04.11.2015 03:46 0,4 C 98 % 1023,7 hPa 0,0 l/m 0,0 km/h (0 Bft) S-SW 204 0 min 0,000 mm 0,0 UV-I 0 W/m 0,1 C 0,4 C 0,0 km/h (0 Bft) 100,00 %
04.11.2015 03:47 0,4 C 98 % 1023,7 hPa 0,0 l/m 0,1 km/h (0 Bft) S-SW 204 0 min 0,000 mm 0,0 UV-I 0 W/m 0,1 C 0,4 C 1,6 km/h (1 Bft) 100,00 %
04.11.2015 03:48 0,4 C 98 % 1023,7 hPa 0,0 l/m 3,1 km/h (1 Bft) W-SW 239 0 min 0,000 mm 0,0 UV-I 0 W/m 0,1 C 0,4 C 6,4 km/h (2 Bft) 100,00 %
04.11.2015 03:49 0,4 C 98 % 1023,8 hPa 0,0 l/m 4,6 km/h (1 Bft) SW 229 0 min 0,000 mm 0,0 UV-I 0 W/m 0,1 C 0,4 C 6,4 km/h (2 Bft) 100,00 %
04.11.2015 03:50 0,4 C 98 % 1023,9 hPa 0,0 l/m 3,5 km/h (1 Bft) S-SW 207 0 min 0,000 mm 0,0 UV-I 0 W/m 0,1 C 0,4 C 4,8 km/h (1 Bft) 100,00 %
04.11.2015 03:51 0,4 C 98 % 1023,9 hPa 0,0 l/m 1,7 km/h (1 Bft) S-SW 205 0 min 0,000 mm 0,0 UV-I 0 W/m 0,1 C 0,4 C 3,2 km/h (1 Bft) 100,00 %
04.11.2015 03:52 0,4 C 98 % 1023,9 hPa 0,0 l/m 2,5 km/h (1 Bft) S-SW 211 0 min 0,000 mm 0,0 UV-I 0 W/m 0,1 C 0,4 C 4,8 km/h (1 Bft) 100,00 %
04.11.2015 03:53 0,4 C 98 % 1023,9 hPa 0,0 l/m 2,3 km/h (1 Bft) SW 221 0 min 0,000 mm 0,0 UV-I 0 W/m 0,1 C 0,4 C 3,2 km/h (1 Bft) 100,00 %
04.11.2015 03:54 0,4 C 98 % 1023,9 hPa 0,0 l/m 4,4 km/h (1 Bft) SW 236 0 min 0,000 mm 0,0 UV-I 0 W/m 0,1 C 0,4 C 6,4 km/h (2 Bft) 100,00 %
04.11.2015 03:55 0,4 C 98 % 1023,8 hPa 0,0 l/m 3,0 km/h (1 Bft) SW 227 0 min 0,000 mm 0,0 UV-I 0 W/m 0,1 C 0,4 C 4,8 km/h (1 Bft) 100,00 %
04.11.2015 03:56 0,4 C 98 % 1023,8 hPa 0,0 l/m 3,2 km/h (1 Bft) W-SW 250 0 min 0,000 mm 0,0 UV-I 0 W/m 0,1 C 0,4 C 4,8 km/h (1 Bft) 91,67 %
04.11.2015 03:57 0,4 C 98 % 1023,8 hPa 0,0 l/m 1,5 km/h (1 Bft) SW 236 0 min 0,000 mm 0,0 UV-I 0 W/m 0,1 C 0,4 C 3,2 km/h (1 Bft) 96,15 %
04.11.2015 03:58 0,4 C 98 % 1023,7 hPa 0,0 l/m 1,4 km/h (1 Bft) SW 236 0 min 0,000 mm 0,0 UV-I 0 W/m 0,1 C 0,4 C 3,2 km/h (1 Bft) 100,00 %
04.11.2015 03:59 0,4 C 98 % 1023,8 hPa 0,0 l/m 2,3 km/h (1 Bft) S 190 0 min 0,000 mm 0,0 UV-I 0 W/m 0,1 C 0,4 C 4,8 km/h (1 Bft) 100,00 %
04.11.2015 04:00 0,3 C 98 % 1023,8 hPa 0,0 l/m 1,7 km/h (1 Bft) S 191 0 min 0,000 mm 0,0 UV-I 0 W/m 0,0 C 0,3 C 3,2 km/h (1 Bft) 100,00 %
04.11.2015 04:02 0,3 C 98 % 1023,8 hPa 0,0 l/m 0,0 km/h (0 Bft) S 191 0 min 0,000 mm 0,0 UV-I 0 W/m 0,0 C 0,3 C 1,6 km/h (1 Bft) 100,00 %
04.11.2015 04:03 0,3 C 98 % 1023,8 hPa 0,0 l/m 0,4 km/h (0 Bft) S 190 0 min 0,000 mm 0,0 UV-I 0 W/m 0,0 C 0,3 C 1,6 km/h (1 Bft) 100,00 %
04.11.2015 04:04 0,3 C 98 % 1023,7 hPa 0,0 l/m 1,1 km/h (1 Bft) S 191 0 min 0,000 mm 0,0 UV-I 0 W/m 0,0 C 0,3 C 3,2 km/h (1 Bft) 100,00 %
04.11.2015 04:05 0,3 C 98 % 1023,7 hPa 0,0 l/m 1,6 km/h (1 Bft) S 190 0 min 0,000 mm 0,0 UV-I 0 W/m 0,0 C 0,3 C 3,2 km/h (1 Bft) 100,00 %
04.11.2015 04:06 0,3 C 98 % 1023,7 hPa 0,0 l/m 1,5 km/h (1 Bft) S-SW 196 0 min 0,000 mm 0,0 UV-I 0 W/m 0,0 C 0,3 C 3,2 km/h (1 Bft) 100,00 %
04.11.2015 04:07 0,3 C 98 % 1023,7 hPa 0,0 l/m 3,0 km/h (1 Bft) S-SW 211 0 min 0,000 mm 0,0 UV-I 0 W/m 0,0 C 0,3 C 4,8 km/h (1 Bft) 100,00 %
04.11.2015 04:08 0,3 C 98 % 1023,7 hPa 0,0 l/m 2,3 km/h (1 Bft) NW 313 0 min 0,000 mm 0,0 UV-I 0 W/m 0,0 C 0,3 C 4,8 km/h (1 Bft) 100,00 %
04.11.2015 04:09 0,3 C 98 % 1023,7 hPa 0,0 l/m 2,5 km/h (1 Bft) W 277 0 min 0,000 mm 0,0 UV-I 0 W/m 0,0 C 0,3 C 3,2 km/h (1 Bft) 100,00 %
04.11.2015 04:10 0,3 C 98 % 1023,6 hPa 0,0 l/m 1,0 km/h (0 Bft) W 277 0 min 0,000 mm 0,0 UV-I 0 W/m 0,0 C 0,3 C 1,6 km/h (1 Bft) 100,00 %
04.11.2015 04:11 0,4 C 98 % 1023,6 hPa 0,0 l/m 1,3 km/h (1 Bft) W 277 0 min 0,000 mm 0,0 UV-I 0 W/m 0,1 C 0,4 C 3,2 km/h (1 Bft) 96,15 %
04.11.2015 04:12 0,4 C 98 % 1023,6 hPa 0,0 l/m 1,5 km/h (1 Bft) W-NW 289 0 min 0,000 mm 0,0 UV-I 0 W/m 0,1 C 0,4 C 3,2 km/h (1 Bft) 100,00 %
04.11.2015 04:13 0,4 C 98 % 1023,6 hPa 0,0 l/m 3,3 km/h (1 Bft) W-NW 287 0 min 0,000 mm 0,0 UV-I 0 W/m 0,1 C 0,4 C 4,8 km/h (1 Bft) 100,00 %
04.11.2015 04:14 0,4 C 98 % 1023,6 hPa 0,0 l/m 2,4 km/h (1 Bft) W-NW 289 0 min 0,000 mm 0,0 UV-I 0 W/m 0,1 C 0,4 C 4,8 km/h (1 Bft) 100,00 %
04.11.2015 04:15 0,4 C 98 % 1023,6 hPa 0,0 l/m 0,7 km/h (0 Bft) W-NW 289 0 min 0,000 mm 0,0 UV-I 0 W/m 0,1 C 0,4 C 1,6 km/h (1 Bft) 100,00 %
04.11.2015 04:16 0,3 C 98 % 1023,6 hPa 0,0 l/m 1,9 km/h (1 Bft) W-NW 289 0 min 0,000 mm 0,0 UV-I 0 W/m 0,0 C 0,3 C 3,2 km/h (1 Bft) 100,00 %
04.11.2015 04:17 0,3 C 98 % 1023,6 hPa 0,0 l/m 2,1 km/h (1 Bft) W-SW 249 0 min 0,000 mm 0,0 UV-I 0 W/m 0,0 C 0,3 C 3,2 km/h (1 Bft) 100,00 %
04.11.2015 04:18 0,3 C 98 % 1023,7 hPa 0,0 l/m 2,1 km/h (1 Bft) W 267 0 min 0,000 mm 0,0 UV-I 0 W/m 0,0 C 0,3 C 4,8 km/h (1 Bft) 100,00 %
04.11.2015 04:19 0,4 C 98 % 1023,7 hPa 0,0 l/m 3,3 km/h (1 Bft) W 266 0 min 0,000 mm 0,0 UV-I 0 W/m 0,1 C 0,4 C 4,8 km/h (1 Bft) 95,83 %
04.11.2015 04:20 0,4 C 98 % 1023,7 hPa 0,0 l/m 3,4 km/h (1 Bft) W 275 0 min 0,000 mm 0,0 UV-I 0 W/m 0,1 C 0,4 C 4,8 km/h (1 Bft) 100,00 %
04.11.2015 04:21 0,3 C 98 % 1023,7 hPa 0,0 l/m 2,1 km/h (1 Bft) W 273 0 min 0,000 mm 0,0 UV-I 0 W/m 0,0 C 0,3 C 3,2 km/h (1 Bft) 100,00 %
04.11.2015 04:22 0,3 C 98 % 1023,7 hPa 0,0 l/m 1,8 km/h (1 Bft) W-SW 247 0 min 0,000 mm 0,0 UV-I 0 W/m 0,0 C 0,3 C 3,2 km/h (1 Bft) 100,00 %
04.11.2015 04:23 0,3 C 98 % 1023,7 hPa 0,0 l/m 2,6 km/h (1 Bft) W-SW 246 0 min 0,000 mm 0,0 UV-I 0 W/m 0,0 C 0,3 C 4,8 km/h (1 Bft) 100,00 %
04.11.2015 04:24 0,3 C 98 % 1023,7 hPa 0,0 l/m 1,2 km/h (1 Bft) W 261 0 min 0,000 mm 0,0 UV-I 0 W/m 0,0 C 0,3 C 3,2 km/h (1 Bft) 100,00 %
04.11.2015 04:25 0,3 C 98 % 1023,7 hPa 0,0 l/m 1,0 km/h (0 Bft) W 262 0 min 0,000 mm 0,0 UV-I 0 W/m 0,0 C 0,3 C 3,2 km/h (1 Bft) 100,00 %
04.11.2015 04:26 0,4 C 98 % 1023,7 hPa 0,0 l/m 1,9 km/h (1 Bft) W 261 0 min 0,000 mm 0,0 UV-I 0 W/m 0,1 C 0,4 C 3,2 km/h (1 Bft) 96,15 %
04.11.2015 04:27 0,4 C 98 % 1023,7 hPa 0,0 l/m 0,7 km/h (0 Bft) W 261 0 min 0,000 mm 0,0 UV-I 0 W/m 0,1 C 0,4 C 1,6 km/h (1 Bft) 100,00 %
04.11.2015 04:28 0,4 C 98 % 1023,7 hPa 0,0 l/m 1,4 km/h (1 Bft) SW 233 0 min 0,000 mm 0,0 UV-I 0 W/m 0,1 C 0,4 C 3,2 km/h (1 Bft) 100,00 %
04.11.2015 04:29 0,4 C 98 % 1023,6 hPa 0,0 l/m 0,9 km/h (0 Bft) SW 233 0 min 0,000 mm 0,0 UV-I 0 W/m 0,1 C 0,4 C 3,2 km/h (1 Bft) 95,83 %
04.11.2015 04:30 0,4 C 98 % 1023,7 hPa 0,0 l/m 2,7 km/h (1 Bft) S-SW 207 0 min 0,000 mm 0,0 UV-I 0 W/m 0,1 C 0,4 C 4,8 km/h (1 Bft) 100,00 %
04.11.2015 04:31 0,4 C 98 % 1023,7 hPa 0,0 l/m 4,1 km/h (1 Bft) SW 219 0 min 0,000 mm 0,0 UV-I 0 W/m 0,1 C 0,4 C 6,4 km/h (2 Bft) 100,00 %
04.11.2015 04:32 0,4 C 98 % 1023,7 hPa 0,0 l/m 1,9 km/h (1 Bft) SW 219 0 min 0,000 mm 0,0 UV-I 0 W/m 0,1 C 0,4 C 3,2 km/h (1 Bft) 95,83 %
04.11.2015 04:33 0,4 C 98 % 1023,7 hPa 0,0 l/m 2,3 km/h (1 Bft) S-SW 209 0 min 0,000 mm 0,0 UV-I 0 W/m 0,1 C 0,4 C 4,8 km/h (1 Bft) 100,00 %
04.11.2015 04:34 0,4 C 98 % 1023,7 hPa 0,0 l/m 3,2 km/h (1 Bft) SW 219 0 min 0,000 mm 0,0 UV-I 0 W/m 0,1 C 0,4 C 4,8 km/h (1 Bft) 100,00 %
04.11.2015 04:35 0,4 C 98 % 1023,6 hPa 0,0 l/m 0,4 km/h (0 Bft) SW 219 0 min 0,000 mm 0,0 UV-I 0 W/m 0,1 C 0,4 C 1,6 km/h (1 Bft) 95,83 %
04.11.2015 04:36 0,4 C 98 % 1023,6 hPa 0,0 l/m 0,1 km/h (0 Bft) SW 219 0 min 0,000 mm 0,0 UV-I 0 W/m 0,1 C 0,4 C 1,6 km/h (1 Bft) 100,00 %
04.11.2015 04:37 0,4 C 98 % 1023,6 hPa 0,0 l/m 0,1 km/h (0 Bft) SW 219 0 min 0,000 mm 0,0 UV-I 0 W/m 0,1 C 0,4 C 1,6 km/h (1 Bft) 100,00 %
04.11.2015 04:38 0,4 C 98 % 1023,6 hPa 0,0 l/m 1,0 km/h (0 Bft) NW 316 0 min 0,000 mm 0,0 UV-I 0 W/m 0,1 C 0,4 C 1,6 km/h (1 Bft) 100,00 %
04.11.2015 04:39 0,4 C 98 % 1023,6 hPa 0,0 l/m 1,4 km/h (1 Bft) NW 317 0 min 0,000 mm 0,0 UV-I 0 W/m 0,1 C 0,4 C 1,6 km/h (1 Bft) 95,65 %
04.11.2015 04:40 0,4 C 98 % 1023,6 hPa 0,0 l/m 0,9 km/h (0 Bft) NW 317 0 min 0,000 mm 0,0 UV-I 0 W/m 0,1 C 0,4 C 1,6 km/h (1 Bft) 100,00 %
04.11.2015 04:41 0,3 C 98 % 1023,6 hPa 0,0 l/m 0,8 km/h (0 Bft) NW 317 0 min 0,000 mm 0,0 UV-I 0 W/m 0,0 C 0,3 C 1,6 km/h (1 Bft) 100,00 %
04.11.2015 04:42 0,3 C 98 % 1023,7 hPa 0,0 l/m 0,0 km/h (0 Bft) NW 317 0 min 0,000 mm 0,0 UV-I 0 W/m 0,0 C 0,3 C 0,0 km/h (0 Bft) 100,00 %
04.11.2015 04:43 0,3 C 98 % 1023,8 hPa 0,0 l/m 0,2 km/h (0 Bft) NW 317 0 min 0,000 mm 0,0 UV-I 0 W/m 0,0 C 0,3 C 1,6 km/h (1 Bft) 100,00 %
04.11.2015 04:44 0,3 C 98 % 1023,9 hPa 0,0 l/m 1,5 km/h (1 Bft) W 263 0 min 0,000 mm 0,0 UV-I 0 W/m 0,0 C 0,3 C 3,2 km/h (1 Bft) 95,83 %
04.11.2015 04:45 0,3 C 98 % 1023,9 hPa 0,0 l/m 2,7 km/h (1 Bft) SW 227 0 min 0,000 mm 0,0 UV-I 0 W/m 0,0 C 0,3 C 3,2 km/h (1 Bft) 92,86 %
04.11.2015 04:46 0,3 C 98 % 1024,0 hPa 0,0 l/m 2,3 km/h (1 Bft) SW 227 0 min 0,000 mm 0,0 UV-I 0 W/m 0,0 C 0,3 C 3,2 km/h (1 Bft) 100,00 %
04.11.2015 04:47 0,3 C 98 % 1024,1 hPa 0,0 l/m 3,9 km/h (1 Bft) SW 219 0 min 0,000 mm 0,0 UV-I 0 W/m 0,0 C 0,3 C 4,8 km/h (1 Bft) 100,00 %
04.11.2015 04:48 0,4 C 98 % 1024,1 hPa 0,0 l/m 4,0 km/h (1 Bft) S-SW 211 0 min 0,000 mm 0,0 UV-I 0 W/m 0,1 C 0,4 C 4,8 km/h (1 Bft) 100,00 %
04.11.2015 04:49 0,4 C 98 % 1024,1 hPa 0,0 l/m 3,5 km/h (1 Bft) S-SW 213 0 min 0,000 mm 0,0 UV-I 0 W/m 0,1 C 0,4 C 4,8 km/h (1 Bft) 100,00 %
04.11.2015 04:50 0,4 C 98 % 1024,0 hPa 0,0 l/m 3,4 km/h (1 Bft) S 191 0 min 0,000 mm 0,0 UV-I 0 W/m 0,1 C 0,4 C 4,8 km/h (1 Bft) 100,00 %
04.11.2015 04:51 0,4 C 98 % 1024,0 hPa 0,0 l/m 2,0 km/h (1 Bft) S-SW 196 0 min 0,000 mm 0,0 UV-I 0 W/m 0,1 C 0,4 C 3,2 km/h (1 Bft) 100,00 %
04.11.2015 04:52 0,4 C 98 % 1024,0 hPa 0,0 l/m 2,1 km/h (1 Bft) W-SW 257 0 min 0,000 mm 0,0 UV-I 0 W/m 0,1 C 0,4 C 3,2 km/h (1 Bft) 100,00 %
04.11.2015 04:53 0,4 C 98 % 1024,1 hPa 0,0 l/m 1,5 km/h (1 Bft) W-SW 257 0 min 0,000 mm 0,0 UV-I 0 W/m 0,1 C 0,4 C 3,2 km/h (1 Bft) 100,00 %
04.11.2015 04:54 0,4 C 98 % 1024,0 hPa 0,0 l/m 0,9 km/h (0 Bft) W-SW 257 0 min 0,000 mm 0,0 UV-I 0 W/m 0,1 C 0,4 C 1,6 km/h (1 Bft) 100,00 %
04.11.2015 04:55 0,4 C 98 % 1024,0 hPa 0,0 l/m 0,1 km/h (0 Bft) W-SW 257 0 min 0,000 mm 0,0 UV-I 0 W/m 0,1 C 0,4 C 1,6 km/h (1 Bft) 100,00 %
04.11.2015 04:56 0,5 C 98 % 1024,0 hPa 0,0 l/m 0,0 km/h (0 Bft) W-SW 257 0 min 0,000 mm 0,0 UV-I 0 W/m 0,2 C 0,5 C 0,0 km/h (0 Bft) 100,00 %
04.11.2015 04:57 0,5 C 98 % 1023,9 hPa 0,0 l/m 0,5 km/h (0 Bft) W-SW 257 0 min 0,000 mm 0,0 UV-I 0 W/m 0,2 C 0,5 C 1,6 km/h (1 Bft) 100,00 %
04.11.2015 04:58 0,4 C 98 % 1023,9 hPa 0,0 l/m 0,3 km/h (0 Bft) W-SW 257 0 min 0,000 mm 0,0 UV-I 0 W/m 0,1 C 0,4 C 1,6 km/h (1 Bft) 100,00 %
04.11.2015 04:59 0,5 C 98 % 1023,9 hPa 0,0 l/m 1,0 km/h (0 Bft) N-NO 24 0 min 0,000 mm 0,0 UV-I 0 W/m 0,2 C 0,5 C 3,2 km/h (1 Bft) 95,83 %
04.11.2015 05:00 0,5 C 98 % 1023,9 hPa 0,0 l/m 1,3 km/h (1 Bft) N-NW 336 0 min 0,000 mm 0,0 UV-I 0 W/m 0,2 C 0,5 C 3,2 km/h (1 Bft) 100,00 %
04.11.2015 05:01 0,5 C 98 % 1023,9 hPa 0,0 l/m 0,6 km/h (0 Bft) N-NW 336 0 min 0,000 mm 0,0 UV-I 0 W/m 0,2 C 0,5 C 1,6 km/h (1 Bft) 95,83 %
04.11.2015 05:02 0,5 C 98 % 1023,9 hPa 0,0 l/m 0,1 km/h (0 Bft) N-NW 336 0 min 0,000 mm 0,0 UV-I 0 W/m 0,2 C 0,5 C 1,6 km/h (1 Bft) 100,00 %
04.11.2015 05:03 0,5 C 98 % 1023,9 hPa 0,0 l/m 0,1 km/h (0 Bft) N-NW 336 0 min 0,000 mm 0,0 UV-I 0 W/m 0,2 C 0,5 C 1,6 km/h (1 Bft) 95,83 %
04.11.2015 05:04 0,6 C 98 % 1023,9 hPa 0,0 l/m 1,5 km/h (1 Bft) W 265 0 min 0,000 mm 0,0 UV-I 0 W/m 0,3 C 0,6 C 3,2 km/h (1 Bft) 96,15 %
04.11.2015 05:05 0,5 C 98 % 1024,0 hPa 0,0 l/m 1,9 km/h (1 Bft) W-SW 256 0 min 0,000 mm 0,0 UV-I 0 W/m 0,2 C 0,5 C 3,2 km/h (1 Bft) 100,00 %
04.11.2015 05:06 0,5 C 98 % 1024,0 hPa 0,0 l/m 1,1 km/h (1 Bft) W-SW 256 0 min 0,000 mm 0,0 UV-I 0 W/m 0,2 C 0,5 C 1,6 km/h (1 Bft) 100,00 %
04.11.2015 05:07 0,5 C 98 % 1024,1 hPa 0,0 l/m 0,4 km/h (0 Bft) W-SW 256 0 min 0,000 mm 0,0 UV-I 0 W/m 0,2 C 0,5 C 1,6 km/h (1 Bft) 100,00 %
04.11.2015 05:08 0,5 C 98 % 1024,1 hPa 0,0 l/m 1,7 km/h (1 Bft) W-SW 254 0 min 0,000 mm 0,0 UV-I 0 W/m 0,2 C 0,5 C 3,2 km/h (1 Bft) 100,00 %
04.11.2015 05:09 0,5 C 98 % 1024,1 hPa 0,0 l/m 2,2 km/h (1 Bft) W-SW 253 0 min 0,000 mm 0,0 UV-I 0 W/m 0,2 C 0,5 C 3,2 km/h (1 Bft) 100,00 %
04.11.2015 05:10 0,5 C 98 % 1024,2 hPa 0,0 l/m 1,7 km/h (1 Bft) W-SW 253 0 min 0,000 mm 0,0 UV-I 0 W/m 0,2 C 0,5 C 3,2 km/h (1 Bft) 100,00 %
04.11.2015 05:11 0,5 C 98 % 1024,2 hPa 0,0 l/m 1,7 km/h (1 Bft) W-SW 248 0 min 0,000 mm 0,0 UV-I 0 W/m 0,2 C 0,5 C 3,2 km/h (1 Bft) 100,00 %
04.11.2015 05:12 0,5 C 98 % 1024,2 hPa 0,0 l/m 1,9 km/h (1 Bft) W-SW 245 0 min 0,000 mm 0,0 UV-I 0 W/m 0,2 C 0,5 C 3,2 km/h (1 Bft) 100,00 %
04.11.2015 05:13 0,6 C 98 % 1024,2 hPa 0,0 l/m 1,6 km/h (1 Bft) SW 230 0 min 0,000 mm 0,0 UV-I 0 W/m 0,3 C 0,6 C 3,2 km/h (1 Bft) 100,00 %
04.11.2015 05:14 0,6 C 98 % 1024,2 hPa 0,0 l/m 1,1 km/h (1 Bft) W 277 0 min 0,000 mm 0,0 UV-I 0 W/m 0,3 C 0,6 C 3,2 km/h (1 Bft) 100,00 %
04.11.2015 05:15 0,6 C 98 % 1024,2 hPa 0,0 l/m 2,4 km/h (1 Bft) W 278 0 min 0,000 mm 0,0 UV-I 0 W/m 0,3 C 0,6 C 3,2 km/h (1 Bft) 100,00 %
04.11.2015 05:16 0,6 C 98 % 1024,2 hPa 0,0 l/m 2,0 km/h (1 Bft) W 263 0 min 0,000 mm 0,0 UV-I 0 W/m 0,3 C 0,6 C 3,2 km/h (1 Bft) 100,00 %
04.11.2015 05:17 0,6 C 98 % 1024,2 hPa 0,0 l/m 0,7 km/h (0 Bft) W 263 0 min 0,000 mm 0,0 UV-I 0 W/m 0,3 C 0,6 C 1,6 km/h (1 Bft) 100,00 %
04.11.2015 05:18 0,5 C 98 % 1024,2 hPa 0,0 l/m 0,5 km/h (0 Bft) W 263 0 min 0,000 mm 0,0 UV-I 0 W/m 0,2 C 0,5 C 1,6 km/h (1 Bft) 100,00 %
04.11.2015 05:19 0,5 C 98 % 1024,2 hPa 0,0 l/m 2,7 km/h (1 Bft) SW 219 0 min 0,000 mm 0,0 UV-I 0 W/m 0,2 C 0,5 C 4,8 km/h (1 Bft) 100,00 %
04.11.2015 05:20 0,4 C 98 % 1024,3 hPa 0,0 l/m 2,7 km/h (1 Bft) SW 219 0 min 0,000 mm 0,0 UV-I 0 W/m 0,1 C 0,4 C 4,8 km/h (1 Bft) 100,00 %
04.11.2015 05:21 0,4 C 98 % 1024,3 hPa 0,0 l/m 2,6 km/h (1 Bft) SW 232 0 min 0,000 mm 0,0 UV-I 0 W/m 0,1 C 0,4 C 4,8 km/h (1 Bft) 100,00 %
04.11.2015 05:22 0,4 C 98 % 1024,3 hPa 0,0 l/m 1,3 km/h (1 Bft) SW 225 0 min 0,000 mm 0,0 UV-I 0 W/m 0,1 C 0,4 C 4,8 km/h (1 Bft) 100,00 %
04.11.2015 05:23 0,4 C 98 % 1024,2 hPa 0,0 l/m 2,1 km/h (1 Bft) S-SW 213 0 min 0,000 mm 0,0 UV-I 0 W/m 0,1 C 0,4 C 4,8 km/h (1 Bft) 100,00 %
04.11.2015 05:24 0,4 C 98 % 1024,2 hPa 0,0 l/m 1,0 km/h (0 Bft) S-SW 213 0 min 0,000 mm 0,0 UV-I 0 W/m 0,1 C 0,4 C 1,6 km/h (1 Bft) 100,00 %
04.11.2015 05:25 0,4 C 98 % 1024,2 hPa 0,0 l/m 2,7 km/h (1 Bft) S-SW 213 0 min 0,000 mm 0,0 UV-I 0 W/m 0,1 C 0,4 C 3,2 km/h (1 Bft) 100,00 %
04.11.2015 05:26 0,4 C 98 % 1024,1 hPa 0,0 l/m 2,4 km/h (1 Bft) S-SW 213 0 min 0,000 mm 0,0 UV-I 0 W/m 0,1 C 0,4 C 3,2 km/h (1 Bft) 100,00 %
04.11.2015 05:27 0,4 C 98 % 1024,1 hPa 0,0 l/m 1,5 km/h (1 Bft) S-SW 213 0 min 0,000 mm 0,0 UV-I 0 W/m 0,1 C 0,4 C 3,2 km/h (1 Bft) 100,00 %
04.11.2015 05:28 0,5 C 98 % 1024,2 hPa 0,0 l/m 3,4 km/h (1 Bft) SW 223 0 min 0,000 mm 0,0 UV-I 0 W/m 0,2 C 0,5 C 4,8 km/h (1 Bft) 100,00 %
04.11.2015 05:29 0,5 C 98 % 1024,1 hPa 0,0 l/m 3,0 km/h (1 Bft) S-SW 194 0 min 0,000 mm 0,0 UV-I 0 W/m 0,2 C 0,5 C 4,8 km/h (1 Bft) 100,00 %
04.11.2015 05:30 0,5 C 98 % 1024,0 hPa 0,0 l/m 1,9 km/h (1 Bft) S-SW 194 0 min 0,000 mm 0,0 UV-I 0 W/m 0,2 C 0,5 C 3,2 km/h (1 Bft) 100,00 %
04.11.2015 05:31 0,5 C 98 % 1024,0 hPa 0,0 l/m 1,3 km/h (1 Bft) SW 235 0 min 0,000 mm 0,0 UV-I 0 W/m 0,2 C 0,5 C 3,2 km/h (1 Bft) 100,00 %
04.11.2015 05:32 0,5 C 98 % 1024,1 hPa 0,0 l/m 2,6 km/h (1 Bft) W-SW 241 0 min 0,000 mm 0,0 UV-I 0 W/m 0,2 C 0,5 C 3,2 km/h (1 Bft) 100,00 %
04.11.2015 05:33 0,5 C 98 % 1024,1 hPa 0,0 l/m 2,3 km/h (1 Bft) W-SW 241 0 min 0,000 mm 0,0 UV-I 0 W/m 0,2 C 0,5 C 3,2 km/h (1 Bft) 100,00 %
04.11.2015 05:34 0,5 C 98 % 1024,1 hPa 0,0 l/m 2,4 km/h (1 Bft) W-SW 241 0 min 0,000 mm 0,0 UV-I 0 W/m 0,2 C 0,5 C 3,2 km/h (1 Bft) 96,15 %
04.11.2015 05:35 0,5 C 98 % 1024,2 hPa 0,0 l/m 2,4 km/h (1 Bft) W-SW 240 0 min 0,000 mm 0,0 UV-I 0 W/m 0,2 C 0,5 C 3,2 km/h (1 Bft) 100,00 %
04.11.2015 05:36 0,6 C 98 % 1024,2 hPa 0,0 l/m 1,0 km/h (0 Bft) W-SW 240 0 min 0,000 mm 0,0 UV-I 0 W/m 0,3 C 0,6 C 1,6 km/h (1 Bft) 100,00 %
04.11.2015 05:37 0,6 C 98 % 1024,3 hPa 0,0 l/m 1,8 km/h (1 Bft) W-SW 240 0 min 0,000 mm 0,0 UV-I 0 W/m 0,3 C 0,6 C 3,2 km/h (1 Bft) 100,00 %
04.11.2015 05:38 0,6 C 98 % 1024,2 hPa 0,0 l/m 1,5 km/h (1 Bft) W-SW 240 0 min 0,000 mm 0,0 UV-I 0 W/m 0,3 C 0,6 C 3,2 km/h (1 Bft) 100,00 %
04.11.2015 05:39 0,6 C 98 % 1024,2 hPa 0,0 l/m 1,4 km/h (1 Bft) W-SW 240 0 min 0,000 mm 0,0 UV-I 0 W/m 0,3 C 0,6 C 1,6 km/h (1 Bft) 100,00 %
04.11.2015 05:40 0,6 C 98 % 1024,3 hPa 0,0 l/m 3,0 km/h (1 Bft) W 270 0 min 0,000 mm 0,0 UV-I 0 W/m 0,3 C 0,6 C 4,8 km/h (1 Bft) 100,00 %
04.11.2015 05:41 0,6 C 98 % 1024,2 hPa 0,0 l/m 1,4 km/h (1 Bft) W 270 0 min 0,000 mm 0,0 UV-I 0 W/m 0,3 C 0,6 C 1,6 km/h (1 Bft) 100,00 %
04.11.2015 05:42 0,6 C 98 % 1024,2 hPa 0,0 l/m 0,3 km/h (0 Bft) W 270 0 min 0,000 mm 0,0 UV-I 0 W/m 0,3 C 0,6 C 1,6 km/h (1 Bft) 96,55 %
04.11.2015 05:43 0,6 C 98 % 1024,2 hPa 0,0 l/m 0,2 km/h (0 Bft) W 270 0 min 0,000 mm 0,0 UV-I 0 W/m 0,3 C 0,6 C 1,6 km/h (1 Bft) 100,00 %
04.11.2015 05:44 0,6 C 98 % 1024,2 hPa 0,0 l/m 2,2 km/h (1 Bft) W-NW 299 0 min 0,000 mm 0,0 UV-I 0 W/m 0,3 C 0,6 C 4,8 km/h (1 Bft) 100,00 %
04.11.2015 05:45 0,6 C 98 % 1024,2 hPa 0,0 l/m 1,8 km/h (1 Bft) NW 323 0 min 0,000 mm 0,0 UV-I 0 W/m 0,3 C 0,6 C 3,2 km/h (1 Bft) 100,00 %
04.11.2015 05:46 0,6 C 98 % 1024,2 hPa 0,0 l/m 0,3 km/h (0 Bft) NW 323 0 min 0,000 mm 0,0 UV-I 0 W/m 0,3 C 0,6 C 1,6 km/h (1 Bft) 100,00 %
04.11.2015 05:47 0,6 C 98 % 1024,2 hPa 0,0 l/m 0,1 km/h (0 Bft) NW 323 0 min 0,000 mm 0,0 UV-I 0 W/m 0,3 C 0,6 C 1,6 km/h (1 Bft) 100,00 %
04.11.2015 05:48 0,6 C 98 % 1024,2 hPa 0,0 l/m 0,1 km/h (0 Bft) NW 323 0 min 0,000 mm 0,0 UV-I 0 W/m 0,3 C 0,6 C 1,6 km/h (1 Bft) 95,65 %
04.11.2015 05:49 0,6 C 98 % 1024,2 hPa 0,0 l/m 0,6 km/h (0 Bft) NW 323 0 min 0,000 mm 0,0 UV-I 0 W/m 0,3 C 0,6 C 1,6 km/h (1 Bft) 95,83 %
04.11.2015 05:50 0,6 C 98 % 1024,2 hPa 0,0 l/m 0,6 km/h (0 Bft) NW 323 0 min 0,000 mm 0,0 UV-I 0 W/m 0,3 C 0,6 C 1,6 km/h (1 Bft) 100,00 %
04.11.2015 05:51 0,6 C 98 % 1024,2 hPa 0,0 l/m 1,2 km/h (1 Bft) NW 323 0 min 0,000 mm 0,0 UV-I 0 W/m 0,3 C 0,6 C 1,6 km/h (1 Bft) 100,00 %
04.11.2015 05:52 0,6 C 98 % 1024,2 hPa 0,0 l/m 1,4 km/h (1 Bft) NW 323 0 min 0,000 mm 0,0 UV-I 0 W/m 0,3 C 0,6 C 1,6 km/h (1 Bft) 100,00 %
04.11.2015 05:53 0,6 C 98 % 1024,2 hPa 0,0 l/m 0,8 km/h (0 Bft) NW 322 0 min 0,000 mm 0,0 UV-I 0 W/m 0,3 C 0,6 C 1,6 km/h (1 Bft) 96,15 %
04.11.2015 05:54 0,6 C 98 % 1024,2 hPa 0,0 l/m 0,8 km/h (0 Bft) NW 317 0 min 0,000 mm 0,0 UV-I 0 W/m 0,3 C 0,6 C 1,6 km/h (1 Bft) 100,00 %
04.11.2015 05:55 0,6 C 98 % 1024,2 hPa 0,0 l/m 0,9 km/h (0 Bft) NW 310 0 min 0,000 mm 0,0 UV-I 0 W/m 0,3 C 0,6 C 3,2 km/h (1 Bft) 100,00 %
04.11.2015 05:56 0,6 C 98 % 1024,2 hPa 0,0 l/m 1,1 km/h (1 Bft) W-NW 299 0 min 0,000 mm 0,0 UV-I 0 W/m 0,3 C 0,6 C 1,6 km/h (1 Bft) 100,00 %
04.11.2015 05:57 0,5 C 98 % 1024,2 hPa 0,0 l/m 2,0 km/h (1 Bft) W 281 0 min 0,000 mm 0,0 UV-I 0 W/m 0,2 C 0,5 C 3,2 km/h (1 Bft) 100,00 %
04.11.2015 05:58 0,5 C 98 % 1024,2 hPa 0,0 l/m 1,0 km/h (0 Bft) W 281 0 min 0,000 mm 0,0 UV-I 0 W/m 0,2 C 0,5 C 3,2 km/h (1 Bft) 100,00 %
04.11.2015 05:59 0,5 C 98 % 1024,3 hPa 0,0 l/m 1,3 km/h (1 Bft) W 281 0 min 0,000 mm 0,0 UV-I 0 W/m 0,2 C 0,5 C 1,6 km/h (1 Bft) 100,00 %
04.11.2015 06:00 0,5 C 98 % 1024,3 hPa 0,0 l/m 1,5 km/h (1 Bft) W 277 0 min 0,000 mm 0,0 UV-I 0 W/m 0,2 C 0,5 C 3,2 km/h (1 Bft) 100,00 %
04.11.2015 06:01 0,5 C 98 % 1024,3 hPa 0,0 l/m 4,2 km/h (1 Bft) SW 224 0 min 0,000 mm 0,0 UV-I 0 W/m 0,2 C 0,5 C 6,4 km/h (2 Bft) 95,65 %
04.11.2015 06:02 0,4 C 98 % 1024,3 hPa 0,0 l/m 2,1 km/h (1 Bft) SW 224 0 min 0,000 mm 0,0 UV-I 0 W/m 0,1 C 0,4 C 3,2 km/h (1 Bft) 100,00 %
04.11.2015 06:03 0,4 C 98 % 1024,3 hPa 0,0 l/m 2,0 km/h (1 Bft) SW 224 0 min 0,000 mm 0,0 UV-I 0 W/m 0,1 C 0,4 C 3,2 km/h (1 Bft) 97,37 %
04.11.2015 06:04 0,4 C 98 % 1024,3 hPa 0,0 l/m 1,0 km/h (0 Bft) W 276 0 min 0,000 mm 0,0 UV-I 0 W/m 0,1 C 0,4 C 3,2 km/h (1 Bft) 100,00 %
04.11.2015 06:05 0,4 C 98 % 1024,3 hPa 0,0 l/m 2,4 km/h (1 Bft) W-NW 288 0 min 0,000 mm 0,0 UV-I 0 W/m 0,1 C 0,4 C 3,2 km/h (1 Bft) 100,00 %
04.11.2015 06:06 0,4 C 98 % 1024,3 hPa 0,0 l/m 2,8 km/h (1 Bft) W-NW 284 0 min 0,000 mm 0,0 UV-I 0 W/m 0,1 C 0,4 C 4,8 km/h (1 Bft) 100,00 %
04.11.2015 06:07 0,4 C 98 % 1024,2 hPa 0,0 l/m 2,4 km/h (1 Bft) W-NW 288 0 min 0,000 mm 0,0 UV-I 0 W/m 0,1 C 0,4 C 3,2 km/h (1 Bft) 100,00 %
04.11.2015 06:08 0,4 C 98 % 1024,2 hPa 0,0 l/m 1,6 km/h (1 Bft) W-NW 284 0 min 0,000 mm 0,0 UV-I 0 W/m 0,1 C 0,4 C 3,2 km/h (1 Bft) 100,00 %
04.11.2015 06:09 0,4 C 98 % 1024,3 hPa 0,0 l/m 3,1 km/h (1 Bft) W 261 0 min 0,000 mm 0,0 UV-I 0 W/m 0,1 C 0,4 C 4,8 km/h (1 Bft) 96,15 %
04.11.2015 06:10 0,4 C 98 % 1024,3 hPa 0,0 l/m 2,7 km/h (1 Bft) W-NW 289 0 min 0,000 mm 0,0 UV-I 0 W/m 0,1 C 0,4 C 4,8 km/h (1 Bft) 100,00 %
04.11.2015 06:11 0,4 C 98 % 1024,2 hPa 0,0 l/m 2,9 km/h (1 Bft) W-NW 298 0 min 0,000 mm 0,0 UV-I 0 W/m 0,1 C 0,4 C 4,8 km/h (1 Bft) 100,00 %
04.11.2015 06:12 0,4 C 98 % 1024,3 hPa 0,0 l/m 3,2 km/h (1 Bft) NW 305 0 min 0,000 mm 0,0 UV-I 0 W/m 0,1 C 0,4 C 4,8 km/h (1 Bft) 100,00 %
04.11.2015 06:13 0,4 C 98 % 1024,3 hPa 0,0 l/m 3,6 km/h (1 Bft) W-NW 283 0 min 0,000 mm 0,0 UV-I 0 W/m 0,1 C 0,4 C 4,8 km/h (1 Bft) 100,00 %
04.11.2015 06:14 0,4 C 98 % 1024,4 hPa 0,0 l/m 1,9 km/h (1 Bft) W-NW 291 0 min 0,000 mm 0,0 UV-I 0 W/m 0,1 C 0,4 C 3,2 km/h (1 Bft) 100,00 %
04.11.2015 06:15 0,4 C 98 % 1024,4 hPa 0,0 l/m 2,1 km/h (1 Bft) SW 221 0 min 0,000 mm 0,0 UV-I 0 W/m 0,1 C 0,4 C 3,2 km/h (1 Bft) 95,83 %
04.11.2015 06:16 0,4 C 98 % 1024,4 hPa 0,0 l/m 1,1 km/h (1 Bft) SW 221 0 min 0,000 mm 0,0 UV-I 0 W/m 0,1 C 0,4 C 1,6 km/h (1 Bft) 100,00 %
04.11.2015 06:17 0,4 C 98 % 1024,4 hPa 0,0 l/m 2,1 km/h (1 Bft) SW 217 0 min 0,000 mm 0,0 UV-I 0 W/m 0,1 C 0,4 C 3,2 km/h (1 Bft) 100,00 %
04.11.2015 06:18 0,4 C 98 % 1024,4 hPa 0,0 l/m 3,6 km/h (1 Bft) W-SW 247 0 min 0,000 mm 0,0 UV-I 0 W/m 0,1 C 0,4 C 6,4 km/h (2 Bft) 100,00 %
04.11.2015 06:19 0,4 C 98 % 1024,4 hPa 0,0 l/m 2,7 km/h (1 Bft) W-SW 246 0 min 0,000 mm 0,0 UV-I 0 W/m 0,1 C 0,4 C 4,8 km/h (1 Bft) 100,00 %
04.11.2015 06:20 0,4 C 98 % 1024,3 hPa 0,0 l/m 2,3 km/h (1 Bft) SW 224 0 min 0,000 mm 0,0 UV-I 0 W/m 0,1 C 0,4 C 3,2 km/h (1 Bft) 100,00 %
04.11.2015 06:21 0,4 C 98 % 1024,4 hPa 0,0 l/m 4,0 km/h (1 Bft) S-SW 213 0 min 0,000 mm 0,0 UV-I 0 W/m 0,1 C 0,4 C 6,4 km/h (2 Bft) 100,00 %
04.11.2015 06:22 0,4 C 98 % 1024,4 hPa 0,0 l/m 4,9 km/h (1 Bft) SW 215 0 min 0,000 mm 0,0 UV-I 0 W/m 0,1 C 0,4 C 6,4 km/h (2 Bft) 100,00 %
04.11.2015 06:23 0,4 C 98 % 1024,4 hPa 0,0 l/m 3,3 km/h (1 Bft) S-SW 212 0 min 0,000 mm 0,0 UV-I 0 W/m 0,1 C 0,4 C 4,8 km/h (1 Bft) 95,83 %
04.11.2015 06:24 0,3 C 98 % 1024,5 hPa 0,0 l/m 4,7 km/h (1 Bft) SW 219 0 min 0,000 mm 0,0 UV-I 0 W/m 0,0 C 0,3 C 6,4 km/h (2 Bft) 100,00 %
04.11.2015 06:25 0,3 C 98 % 1024,5 hPa 0,0 l/m 2,8 km/h (1 Bft) W-SW 246 0 min 0,000 mm 0,0 UV-I 0 W/m 0,0 C 0,3 C 4,8 km/h (1 Bft) 100,00 %
04.11.2015 06:26 0,3 C 98 % 1024,6 hPa 0,0 l/m 1,7 km/h (1 Bft) W-SW 244 0 min 0,000 mm 0,0 UV-I 0 W/m 0,0 C 0,3 C 3,2 km/h (1 Bft) 100,00 %
04.11.2015 06:27 0,3 C 98 % 1024,6 hPa 0,0 l/m 4,0 km/h (1 Bft) SW 227 0 min 0,000 mm 0,0 UV-I 0 W/m 0,0 C 0,3 C 4,8 km/h (1 Bft) 100,00 %
04.11.2015 06:28 0,3 C 98 % 1024,6 hPa 0,0 l/m 3,8 km/h (1 Bft) SW 226 0 min 0,000 mm 0,0 UV-I 0 W/m 0,0 C 0,3 C 6,4 km/h (2 Bft) 100,00 %
04.11.2015 06:29 0,3 C 98 % 1024,6 hPa 0,0 l/m 3,2 km/h (1 Bft) S-SW 213 0 min 0,000 mm 0,0 UV-I 0 W/m 0,0 C 0,3 C 4,8 km/h (1 Bft) 100,00 %
04.11.2015 06:30 0,3 C 98 % 1024,6 hPa 0,0 l/m 2,0 km/h (1 Bft) S-SW 213 0 min 0,000 mm 0,0 UV-I 0 W/m 0,0 C 0,3 C 3,2 km/h (1 Bft) 100,00 %
04.11.2015 06:31 0,3 C 98 % 1024,5 hPa 0,0 l/m 1,7 km/h (1 Bft) S-SW 213 0 min 0,000 mm 0,0 UV-I 0 W/m 0,0 C 0,3 C 3,2 km/h (1 Bft) 100,00 %
04.11.2015 06:32 0,3 C 98 % 1024,6 hPa 0,0 l/m 4,6 km/h (1 Bft) SW 226 0 min 0,000 mm 0,0 UV-I 0 W/m 0,0 C 0,3 C 4,8 km/h (1 Bft) 100,00 %
04.11.2015 06:33 0,3 C 98 % 1024,6 hPa 0,0 l/m 4,4 km/h (1 Bft) SW 234 0 min 0,000 mm 0,0 UV-I 0 W/m 0,0 C 0,3 C 6,4 km/h (2 Bft) 100,00 %
04.11.2015 06:34 0,3 C 98 % 1024,6 hPa 0,0 l/m 5,6 km/h (1 Bft) S-SW 197 0 min 0,000 mm 0,0 UV-I 0 W/m 0,0 C 0,3 C 8,0 km/h (2 Bft) 96,15 %
04.11.2015 06:35 0,3 C 98 % 1024,7 hPa 0,0 l/m 4,7 km/h (1 Bft) SW 227 0 min 0,000 mm 0,0 UV-I 0 W/m 0,0 C 0,3 C 6,4 km/h (2 Bft) 100,00 %
04.11.2015 06:36 0,3 C 98 % 1024,6 hPa 0,0 l/m 4,7 km/h (1 Bft) S-SW 205 0 min 0,000 mm 0,0 UV-I 0 W/m 0,0 C 0,3 C 6,4 km/h (2 Bft) 95,65 %
04.11.2015 06:37 0,3 C 98 % 1024,6 hPa 0,0 l/m 3,6 km/h (1 Bft) S-SW 212 0 min 0,000 mm 0,0 UV-I 0 W/m 0,0 C 0,3 C 4,8 km/h (1 Bft) 100,00 %
04.11.2015 06:38 0,3 C 98 % 1024,6 hPa 0,0 l/m 2,2 km/h (1 Bft) SW 235 0 min 0,000 mm 0,0 UV-I 0 W/m 0,0 C 0,3 C 4,8 km/h (1 Bft) 100,00 %
04.11.2015 06:39 0,3 C 98 % 1024,6 hPa 0,0 l/m 3,1 km/h (1 Bft) W-SW 258 0 min 0,000 mm 0,0 UV-I 0 W/m 0,0 C 0,3 C 3,2 km/h (1 Bft) 100,00 %
04.11.2015 06:40 0,3 C 98 % 1024,5 hPa 0,0 l/m 1,8 km/h (1 Bft) W 259 0 min 0,000 mm 0,0 UV-I 0 W/m 0,0 C 0,3 C 3,2 km/h (1 Bft) 100,00 %
04.11.2015 06:41 0,3 C 98 % 1024,6 hPa 0,0 l/m 1,6 km/h (1 Bft) W-SW 258 0 min 0,000 mm 0,0 UV-I 0 W/m 0,0 C 0,3 C 3,2 km/h (1 Bft) 100,00 %
04.11.2015 06:42 0,4 C 98 % 1024,6 hPa 0,0 l/m 1,2 km/h (1 Bft) W-SW 258 0 min 0,000 mm 0,0 UV-I 0 W/m 0,1 C 0,4 C 1,6 km/h (1 Bft) 100,00 %
04.11.2015 06:43 0,4 C 98 % 1024,6 hPa 0,0 l/m 2,1 km/h (1 Bft) SW 231 0 min 0,000 mm 0,0 UV-I 0 W/m 0,1 C 0,4 C 3,2 km/h (1 Bft) 95,65 %
04.11.2015 06:44 0,4 C 98 % 1024,6 hPa 0,0 l/m 1,8 km/h (1 Bft) SW 231 0 min 0,000 mm 0,0 UV-I 0 W/m 0,1 C 0,4 C 4,8 km/h (1 Bft) 100,00 %
04.11.2015 06:45 0,4 C 98 % 1024,6 hPa 0,0 l/m 0,3 km/h (0 Bft) SW 231 0 min 0,000 mm 0,0 UV-I 0 W/m 0,1 C 0,4 C 1,6 km/h (1 Bft) 100,00 %
04.11.2015 06:46 0,4 C 98 % 1024,6 hPa 0,0 l/m 2,0 km/h (1 Bft) SW 235 0 min 0,000 mm 0,0 UV-I 0 W/m 0,1 C 0,4 C 3,2 km/h (1 Bft) 100,00 %
04.11.2015 06:47 0,5 C 98 % 1024,5 hPa 0,0 l/m 2,4 km/h (1 Bft) SW 236 0 min 0,000 mm 0,0 UV-I 0 W/m 0,2 C 0,5 C 4,8 km/h (1 Bft) 100,00 %
04.11.2015 06:48 0,5 C 98 % 1024,5 hPa 0,0 l/m 3,9 km/h (1 Bft) SW 221 0 min 0,000 mm 0,0 UV-I 0 W/m 0,2 C 0,5 C 6,4 km/h (2 Bft) 100,00 %
04.11.2015 06:49 0,4 C 98 % 1024,5 hPa 0,0 l/m 3,8 km/h (1 Bft) SW 231 0 min 0,000 mm 0,0 UV-I 0 W/m 0,1 C 0,4 C 6,4 km/h (2 Bft) 95,83 %
04.11.2015 06:50 0,5 C 98 % 1024,5 hPa 0,0 l/m 1,8 km/h (1 Bft) SW 228 0 min 0,000 mm 0,0 UV-I 0 W/m 0,2 C 0,5 C 3,2 km/h (1 Bft) 100,00 %
04.11.2015 06:51 0,4 C 98 % 1024,5 hPa 0,0 l/m 1,8 km/h (1 Bft) SW 228 0 min 0,000 mm 0,0 UV-I 0 W/m 0,1 C 0,4 C 3,2 km/h (1 Bft) 100,00 %
04.11.2015 06:52 0,4 C 98 % 1024,5 hPa 0,0 l/m 1,6 km/h (1 Bft) SW 228 0 min 0,000 mm 0,0 UV-I 0 W/m 0,1 C 0,4 C 3,2 km/h (1 Bft) 91,30 %
04.11.2015 06:53 0,5 C 98 % 1024,6 hPa 0,0 l/m 1,5 km/h (1 Bft) SW 228 0 min 0,000 mm 0,0 UV-I 0 W/m 0,2 C 0,5 C 3,2 km/h (1 Bft) 95,83 %
04.11.2015 06:54 0,4 C 98 % 1024,5 hPa 0,0 l/m 2,3 km/h (1 Bft) SW 221 0 min 0,000 mm 0,0 UV-I 0 W/m 0,1 C 0,4 C 3,2 km/h (1 Bft) 100,00 %
04.11.2015 06:55 0,5 C 98 % 1024,6 hPa 0,0 l/m 2,2 km/h (1 Bft) W 267 0 min 0,000 mm 0,0 UV-I 0 W/m 0,2 C 0,5 C 3,2 km/h (1 Bft) 95,83 %
04.11.2015 06:56 0,5 C 98 % 1024,6 hPa 0,0 l/m 2,0 km/h (1 Bft) W-NW 294 0 min 0,000 mm 0,0 UV-I 0 W/m 0,2 C 0,5 C 3,2 km/h (1 Bft) 100,00 %
04.11.2015 06:57 0,5 C 98 % 1024,6 hPa 0,0 l/m 1,0 km/h (0 Bft) W-NW 302 0 min 0,000 mm 0,0 UV-I 0 W/m 0,2 C 0,5 C 1,6 km/h (1 Bft) 100,00 %
04.11.2015 06:58 0,5 C 98 % 1024,6 hPa 0,0 l/m 0,8 km/h (0 Bft) W-SW 250 0 min 0,000 mm 0,0 UV-I 0 W/m 0,2 C 0,5 C 3,2 km/h (1 Bft) 95,65 %
04.11.2015 06:59 0,5 C 98 % 1024,6 hPa 0,0 l/m 1,4 km/h (1 Bft) W-SW 250 0 min 0,000 mm 0,0 UV-I 0 W/m 0,2 C 0,5 C 3,2 km/h (1 Bft) 100,00 %
04.11.2015 07:00 0,5 C 98 % 1024,6 hPa 0,0 l/m 0,7 km/h (0 Bft) W-SW 250 0 min 0,000 mm 0,0 UV-I 4 W/m 0,2 C 0,5 C 1,6 km/h (1 Bft) 95,65 %
04.11.2015 07:01 0,5 C 98 % 1024,7 hPa 0,0 l/m 0,9 km/h (0 Bft) W-SW 250 0 min 0,000 mm 0,0 UV-I 5 W/m 0,2 C 0,5 C 1,6 km/h (1 Bft) 100,00 %
04.11.2015 07:02 0,5 C 98 % 1024,7 hPa 0,0 l/m 0,7 km/h (0 Bft) W-SW 250 0 min 0,000 mm 0,0 UV-I 5 W/m 0,2 C 0,5 C 1,6 km/h (1 Bft) 100,00 %
04.11.2015 07:03 0,5 C 98 % 1024,7 hPa 0,0 l/m 1,1 km/h (1 Bft) W-SW 250 0 min 0,000 mm 0,0 UV-I 5 W/m 0,2 C 0,5 C 1,6 km/h (1 Bft) 100,00 %
04.11.2015 07:04 0,5 C 98 % 1024,7 hPa 0,0 l/m 0,3 km/h (0 Bft) W-SW 250 0 min 0,000 mm 0,0 UV-I 6 W/m 0,2 C 0,5 C 1,6 km/h (1 Bft) 100,00 %
04.11.2015 07:05 0,5 C 98 % 1024,7 hPa 0,0 l/m 0,1 km/h (0 Bft) W-SW 250 0 min 0,000 mm 0,0 UV-I 7 W/m 0,2 C 0,5 C 1,6 km/h (1 Bft) 100,00 %
04.11.2015 07:06 0,5 C 98 % 1024,7 hPa 0,0 l/m 0,0 km/h (0 Bft) W-SW 250 0 min 0,000 mm 0,0 UV-I 7 W/m 0,2 C 0,5 C 0,0 km/h (0 Bft) 92,31 %
04.11.2015 07:07 0,5 C 98 % 1024,7 hPa 0,0 l/m 0,1 km/h (0 Bft) W-SW 250 0 min 0,000 mm 0,0 UV-I 7 W/m 0,2 C 0,5 C 1,6 km/h (1 Bft) 100,00 %
04.11.2015 07:08 0,6 C 98 % 1024,7 hPa 0,0 l/m 0,0 km/h (0 Bft) W-SW 250 0 min 0,000 mm 0,0 UV-I 8 W/m 0,3 C 0,6 C 0,0 km/h (0 Bft) 100,00 %
04.11.2015 07:09 0,6 C 98 % 1024,7 hPa 0,0 l/m 0,1 km/h (0 Bft) W-SW 250 0 min 0,000 mm 0,0 UV-I 9 W/m 0,3 C 0,6 C 1,6 km/h (1 Bft) 100,00 %
04.11.2015 07:10 0,6 C 98 % 1024,8 hPa 0,0 l/m 0,0 km/h (0 Bft) W-SW 250 0 min 0,000 mm 0,0 UV-I 9 W/m 0,3 C 0,6 C 0,0 km/h (0 Bft) 95,65 %
04.11.2015 07:11 0,6 C 98 % 1024,8 hPa 0,0 l/m 0,1 km/h (0 Bft) W-SW 250 0 min 0,000 mm 0,0 UV-I 9 W/m 0,3 C 0,6 C 1,6 km/h (1 Bft) 100,00 %
04.11.2015 07:12 0,6 C 98 % 1024,8 hPa 0,0 l/m 0,7 km/h (0 Bft) W-SW 250 0 min 0,000 mm 0,0 UV-I 9 W/m 0,3 C 0,6 C 1,6 km/h (1 Bft) 100,00 %
04.11.2015 07:13 0,6 C 98 % 1024,8 hPa 0,0 l/m 0,1 km/h (0 Bft) W-SW 250 0 min 0,000 mm 0,0 UV-I 9 W/m 0,3 C 0,6 C 1,6 km/h (1 Bft) 100,00 %
04.11.2015 07:14 0,6 C 98 % 1024,8 hPa 0,0 l/m 0,4 km/h (0 Bft) W-SW 250 0 min 0,000 mm 0,0 UV-I 11 W/m 0,3 C 0,6 C 1,6 km/h (1 Bft) 100,00 %
04.11.2015 07:15 0,6 C 98 % 1024,8 hPa 0,0 l/m 0,0 km/h (0 Bft) W-SW 250 0 min 0,000 mm 0,0 UV-I 11 W/m 0,3 C 0,6 C 0,0 km/h (0 Bft) 100,00 %
04.11.2015 07:16 0,6 C 98 % 1024,8 hPa 0,0 l/m 0,0 km/h (0 Bft) W-SW 250 0 min 0,000 mm 0,0 UV-I 11 W/m 0,3 C 0,6 C 0,0 km/h (0 Bft) 100,00 %
04.11.2015 07:17 0,6 C 98 % 1024,8 hPa 0,0 l/m 1,7 km/h (1 Bft) W-SW 248 0 min 0,000 mm 0,0 UV-I 11 W/m 0,3 C 0,6 C 3,2 km/h (1 Bft) 100,00 %
04.11.2015 07:18 0,5 C 98 % 1024,8 hPa 0,0 l/m 2,3 km/h (1 Bft) W-SW 248 0 min 0,000 mm 0,0 UV-I 11 W/m 0,2 C 0,5 C 3,2 km/h (1 Bft) 100,00 %
04.11.2015 07:19 0,6 C 98 % 1024,8 hPa 0,0 l/m 0,1 km/h (0 Bft) W-SW 248 0 min 0,000 mm 0,0 UV-I 11 W/m 0,3 C 0,6 C 1,6 km/h (1 Bft) 100,00 %
04.11.2015 07:20 0,5 C 98 % 1024,8 hPa 0,0 l/m 0,0 km/h (0 Bft) W-SW 248 0 min 0,000 mm 0,0 UV-I 11 W/m 0,2 C 0,5 C 0,0 km/h (0 Bft) 95,83 %
04.11.2015 07:21 0,5 C 98 % 1024,8 hPa 0,0 l/m 0,0 km/h (0 Bft) W-SW 248 0 min 0,000 mm 0,0 UV-I 11 W/m 0,2 C 0,5 C 0,0 km/h (0 Bft) 100,00 %
04.11.2015 07:22 0,6 C 98 % 1024,9 hPa 0,0 l/m 1,2 km/h (1 Bft) W-SW 248 0 min 0,000 mm 0,0 UV-I 12 W/m 0,3 C 0,6 C 1,6 km/h (1 Bft) 100,00 %
04.11.2015 07:23 0,6 C 98 % 1024,9 hPa 0,0 l/m 1,3 km/h (1 Bft) W-SW 248 0 min 0,000 mm 0,0 UV-I 12 W/m 0,3 C 0,6 C 1,6 km/h (1 Bft) 100,00 %
04.11.2015 07:24 0,6 C 98 % 1024,9 hPa 0,0 l/m 0,1 km/h (0 Bft) W-SW 248 0 min 0,000 mm 0,0 UV-I 12 W/m 0,3 C 0,6 C 1,6 km/h (1 Bft) 100,00 %
04.11.2015 07:25 0,6 C 98 % 1024,9 hPa 0,0 l/m 0,1 km/h (0 Bft) W-SW 248 0 min 0,000 mm 0,0 UV-I 12 W/m 0,3 C 0,6 C 1,6 km/h (1 Bft) 95,65 %
04.11.2015 07:26 0,6 C 98 % 1024,9 hPa 0,0 l/m 0,0 km/h (0 Bft) W-SW 248 0 min 0,000 mm 0,0 UV-I 13 W/m 0,3 C 0,6 C 0,0 km/h (0 Bft) 100,00 %
04.11.2015 07:27 0,6 C 98 % 1025,0 hPa 0,0 l/m 0,2 km/h (0 Bft) W-SW 248 0 min 0,000 mm 0,0 UV-I 14 W/m 0,3 C 0,6 C 1,6 km/h (1 Bft) 100,00 %
04.11.2015 07:28 0,6 C 98 % 1025,0 hPa 0,0 l/m 1,4 km/h (1 Bft) W-SW 248 0 min 0,000 mm 0,0 UV-I 14 W/m 0,3 C 0,6 C 3,2 km/h (1 Bft) 100,00 %
04.11.2015 07:29 0,6 C 98 % 1025,0 hPa 0,0 l/m 1,5 km/h (1 Bft) W-SW 248 0 min 0,000 mm 0,0 UV-I 14 W/m 0,3 C 0,6 C 3,2 km/h (1 Bft) 100,00 %
04.11.2015 07:30 0,6 C 98 % 1025,0 hPa 0,0 l/m 0,4 km/h (0 Bft) W-SW 248 0 min 0,000 mm 0,0 UV-I 14 W/m 0,3 C 0,6 C 1,6 km/h (1 Bft) 100,00 %
04.11.2015 07:31 0,6 C 98 % 1025,0 hPa 0,0 l/m 1,4 km/h (1 Bft) S-SW 209 0 min 0,000 mm 0,0 UV-I 16 W/m 0,3 C 0,6 C 3,2 km/h (1 Bft) 100,00 %
04.11.2015 07:32 0,6 C 98 % 1025,0 hPa 0,0 l/m 1,5 km/h (1 Bft) S-SW 209 0 min 0,000 mm 0,0 UV-I 16 W/m 0,3 C 0,6 C 3,2 km/h (1 Bft) 100,00 %
04.11.2015 07:33 0,6 C 98 % 1025,0 hPa 0,0 l/m 0,9 km/h (0 Bft) S-SW 209 0 min 0,000 mm 0,0 UV-I 16 W/m 0,3 C 0,6 C 1,6 km/h (1 Bft) 100,00 %
04.11.2015 07:34 0,6 C 98 % 1025,0 hPa 0,0 l/m 1,9 km/h (1 Bft) S-SW 207 0 min 0,000 mm 0,0 UV-I 16 W/m 0,3 C 0,6 C 3,2 km/h (1 Bft) 95,83 %
04.11.2015 07:35 0,6 C 98 % 1025,0 hPa 0,0 l/m 1,7 km/h (1 Bft) S-SW 207 0 min 0,000 mm 0,0 UV-I 16 W/m 0,3 C 0,6 C 3,2 km/h (1 Bft) 95,65 %
04.11.2015 07:36 0,6 C 98 % 1024,9 hPa 0,0 l/m 1,1 km/h (1 Bft) S-SW 207 0 min 0,000 mm 0,0 UV-I 16 W/m 0,3 C 0,6 C 1,6 km/h (1 Bft) 100,00 %
04.11.2015 07:37 0,6 C 98 % 1025,0 hPa 0,0 l/m 0,8 km/h (0 Bft) S-SW 207 0 min 0,000 mm 0,0 UV-I 18 W/m 0,3 C 0,6 C 1,6 km/h (1 Bft) 100,00 %
04.11.2015 07:38 0,6 C 98 % 1024,9 hPa 0,0 l/m 1,0 km/h (0 Bft) S-SW 207 0 min 0,000 mm 0,0 UV-I 19 W/m 0,3 C 0,6 C 1,6 km/h (1 Bft) 95,83 %
04.11.2015 07:39 0,6 C 98 % 1025,0 hPa 0,0 l/m 1,1 km/h (1 Bft) S-SW 207 0 min 0,000 mm 0,0 UV-I 20 W/m 0,3 C 0,6 C 1,6 km/h (1 Bft) 100,00 %
04.11.2015 07:40 0,6 C 98 % 1024,9 hPa 0,0 l/m 1,1 km/h (1 Bft) S-SW 207 0 min 0,000 mm 0,0 UV-I 21 W/m 0,3 C 0,6 C 1,6 km/h (1 Bft) 95,65 %
04.11.2015 07:41 0,6 C 98 % 1024,9 hPa 0,0 l/m 2,4 km/h (1 Bft) S-SW 207 0 min 0,000 mm 0,0 UV-I 23 W/m 0,3 C 0,6 C 3,2 km/h (1 Bft) 100,00 %
04.11.2015 07:42 0,6 C 98 % 1024,9 hPa 0,0 l/m 3,2 km/h (1 Bft) S-SW 193 0 min 0,000 mm 0,0 UV-I 25 W/m 0,3 C 0,6 C 4,8 km/h (1 Bft) 100,00 %
04.11.2015 07:43 0,5 C 98 % 1025,0 hPa 0,0 l/m 0,9 km/h (0 Bft) S-SW 193 0 min 0,000 mm 0,0 UV-I 25 W/m 0,2 C 0,5 C 3,2 km/h (1 Bft) 100,00 %
04.11.2015 07:44 0,5 C 98 % 1025,0 hPa 0,0 l/m 0,7 km/h (0 Bft) S-SW 193 0 min 0,000 mm 0,0 UV-I 25 W/m 0,2 C 0,5 C 1,6 km/h (1 Bft) 100,00 %
04.11.2015 07:45 0,5 C 98 % 1025,0 hPa 0,0 l/m 1,1 km/h (1 Bft) S-SW 193 0 min 0,000 mm 0,0 UV-I 27 W/m 0,2 C 0,5 C 1,6 km/h (1 Bft) 100,00 %
04.11.2015 07:46 0,5 C 98 % 1025,0 hPa 0,0 l/m 2,0 km/h (1 Bft) S-SW 193 0 min 0,000 mm 0,0 UV-I 28 W/m 0,2 C 0,5 C 3,2 km/h (1 Bft) 100,00 %
04.11.2015 07:47 0,6 C 98 % 1025,0 hPa 0,0 l/m 1,6 km/h (1 Bft) S-SW 193 0 min 0,000 mm 0,0 UV-I 26 W/m 0,3 C 0,6 C 3,2 km/h (1 Bft) 100,00 %
04.11.2015 07:48 0,6 C 98 % 1025,0 hPa 0,0 l/m 1,5 km/h (1 Bft) S-SW 193 0 min 0,000 mm 0,0 UV-I 30 W/m 0,3 C 0,6 C 3,2 km/h (1 Bft) 100,00 %
04.11.2015 07:49 0,6 C 98 % 1024,9 hPa 0,0 l/m 2,3 km/h (1 Bft) S 186 0 min 0,000 mm 0,0 UV-I 29 W/m 0,3 C 0,6 C 3,2 km/h (1 Bft) 100,00 %
04.11.2015 07:50 0,6 C 98 % 1024,9 hPa 0,0 l/m 2,4 km/h (1 Bft) S 180 0 min 0,000 mm 0,0 UV-I 30 W/m 0,3 C 0,6 C 4,8 km/h (1 Bft) 95,65 %
04.11.2015 07:51 0,6 C 98 % 1024,9 hPa 0,0 l/m 1,4 km/h (1 Bft) S 180 0 min 0,000 mm 0,0 UV-I 32 W/m 0,3 C 0,6 C 3,2 km/h (1 Bft) 95,83 %
04.11.2015 07:52 0,5 C 98 % 1025,0 hPa 0,0 l/m 0,3 km/h (0 Bft) S 180 0 min 0,000 mm 0,0 UV-I 33 W/m 0,2 C 0,5 C 1,6 km/h (1 Bft) 100,00 %
04.11.2015 07:53 0,5 C 98 % 1024,9 hPa 0,0 l/m 1,9 km/h (1 Bft) S-SO 150 0 min 0,000 mm 0,0 UV-I 33 W/m 0,2 C 0,5 C 4,8 km/h (1 Bft) 95,65 %
04.11.2015 07:54 0,5 C 98 % 1024,9 hPa 0,0 l/m 3,3 km/h (1 Bft) SW 215 0 min 0,000 mm 0,0 UV-I 32 W/m 0,2 C 0,5 C 6,4 km/h (2 Bft) 100,00 %
04.11.2015 07:55 0,5 C 98 % 1024,9 hPa 0,0 l/m 0,7 km/h (0 Bft) SW 215 0 min 0,000 mm 0,0 UV-I 29 W/m 0,2 C 0,5 C 3,2 km/h (1 Bft) 95,65 %
04.11.2015 07:56 0,6 C 98 % 1024,9 hPa 0,0 l/m 0,0 km/h (0 Bft) SW 215 0 min 0,000 mm 0,0 UV-I 30 W/m 0,3 C 0,6 C 0,0 km/h (0 Bft) 100,00 %
04.11.2015 07:57 0,7 C 98 % 1024,9 hPa 0,0 l/m 0,7 km/h (0 Bft) SW 215 0 min 0,000 mm 0,0 UV-I 32 W/m 0,4 C 0,7 C 3,2 km/h (1 Bft) 100,00 %
04.11.2015 07:58 0,7 C 98 % 1024,9 hPa 0,0 l/m 1,7 km/h (1 Bft) SW 215 0 min 0,000 mm 0,0 UV-I 33 W/m 0,4 C 0,7 C 3,2 km/h (1 Bft) 100,00 %
04.11.2015 07:59 0,6 C 98 % 1024,9 hPa 0,0 l/m 0,3 km/h (0 Bft) SW 215 0 min 0,000 mm 0,0 UV-I 36 W/m 0,3 C 0,6 C 1,6 km/h (1 Bft) 100,00 %
04.11.2015 08:00 0,6 C 98 % 1024,9 hPa 0,0 l/m 0,6 km/h (0 Bft) SW 215 0 min 0,000 mm 0,0 UV-I 37 W/m 0,3 C 0,6 C 1,6 km/h (1 Bft) 100,00 %
04.11.2015 08:02 0,6 C 98 % 1025,0 hPa 0,0 l/m 1,0 km/h (0 Bft) W-NW 289 0 min 0,000 mm 0,0 UV-I 38 W/m 0,3 C 0,6 C 3,2 km/h (1 Bft) 100,00 %
04.11.2015 08:03 0,6 C 98 % 1025,0 hPa 0,0 l/m 0,0 km/h (0 Bft) W-NW 289 0 min 0,000 mm 0,0 UV-I 39 W/m 0,3 C 0,6 C 0,0 km/h (0 Bft) 100,00 %
04.11.2015 08:04 0,6 C 98 % 1024,9 hPa 0,0 l/m 0,1 km/h (0 Bft) W-NW 289 0 min 0,000 mm 0,0 UV-I 40 W/m 0,3 C 0,6 C 1,6 km/h (1 Bft) 100,00 %
04.11.2015 08:05 0,6 C 98 % 1024,9 hPa 0,0 l/m 1,4 km/h (1 Bft) W 267 0 min 0,000 mm 0,0 UV-I 46 W/m 0,3 C 0,6 C 3,2 km/h (1 Bft) 100,00 %
04.11.2015 08:06 0,6 C 98 % 1024,9 hPa 0,0 l/m 1,9 km/h (1 Bft) W 264 0 min 0,000 mm 0,0 UV-I 49 W/m 0,3 C 0,6 C 3,2 km/h (1 Bft) 100,00 %
04.11.2015 08:07 0,6 C 98 % 1024,9 hPa 0,0 l/m 0,9 km/h (0 Bft) W 264 0 min 0,000 mm 0,0 UV-I 49 W/m 0,3 C 0,6 C 1,6 km/h (1 Bft) 100,00 %
04.11.2015 08:08 0,6 C 98 % 1024,9 hPa 0,0 l/m 1,5 km/h (1 Bft) SW 232 0 min 0,000 mm 0,0 UV-I 49 W/m 0,3 C 0,6 C 3,2 km/h (1 Bft) 100,00 %
04.11.2015 08:09 0,6 C 98 % 1025,0 hPa 0,0 l/m 0,9 km/h (0 Bft) SW 232 0 min 0,000 mm 0,0 UV-I 48 W/m 0,3 C 0,6 C 3,2 km/h (1 Bft) 100,00 %
04.11.2015 08:10 0,6 C 98 % 1025,0 hPa 0,0 l/m 0,0 km/h (0 Bft) SW 232 0 min 0,000 mm 0,0 UV-I 46 W/m 0,3 C 0,6 C 0,0 km/h (0 Bft) 100,00 %
04.11.2015 08:11 0,6 C 98 % 1025,1 hPa 0,0 l/m 0,6 km/h (0 Bft) SW 232 0 min 0,000 mm 0,0 UV-I 44 W/m 0,3 C 0,6 C 1,6 km/h (1 Bft) 100,00 %
04.11.2015 08:12 0,6 C 98 % 1025,1 hPa 0,0 l/m 1,5 km/h (1 Bft) SW 232 0 min 0,000 mm 0,0 UV-I 44 W/m 0,3 C 0,6 C 3,2 km/h (1 Bft) 100,00 %
04.11.2015 08:13 0,6 C 98 % 1025,1 hPa 0,0 l/m 1,5 km/h (1 Bft) SW 232 0 min 0,000 mm 0,0 UV-I 44 W/m 0,3 C 0,6 C 3,2 km/h (1 Bft) 95,65 %
04.11.2015 08:14 0,6 C 98 % 1025,0 hPa 0,0 l/m 1,7 km/h (1 Bft) SW 232 0 min 0,000 mm 0,0 UV-I 43 W/m 0,3 C 0,6 C 3,2 km/h (1 Bft) 100,00 %
04.11.2015 08:15 0,6 C 98 % 1025,1 hPa 0,0 l/m 1,5 km/h (1 Bft) SW 232 0 min 0,000 mm 0,0 UV-I 41 W/m 0,3 C 0,6 C 3,2 km/h (1 Bft) 96,15 %
04.11.2015 08:16 0,6 C 98 % 1025,0 hPa 0,0 l/m 0,9 km/h (0 Bft) SW 232 0 min 0,000 mm 0,0 UV-I 43 W/m 0,3 C 0,6 C 1,6 km/h (1 Bft) 100,00 %
04.11.2015 08:17 0,6 C 98 % 1025,0 hPa 0,0 l/m 0,6 km/h (0 Bft) SW 232 0 min 0,000 mm 0,0 UV-I 46 W/m 0,3 C 0,6 C 1,6 km/h (1 Bft) 100,00 %
04.11.2015 08:18 0,6 C 98 % 1025,0 hPa 0,0 l/m 0,1 km/h (0 Bft) SW 232 0 min 0,000 mm 0,0 UV-I 44 W/m 0,3 C 0,6 C 1,6 km/h (1 Bft) 97,14 %
04.11.2015 08:19 0,6 C 98 % 1025,0 hPa 0,0 l/m 0,3 km/h (0 Bft) SW 232 0 min 0,000 mm 0,0 UV-I 46 W/m 0,3 C 0,6 C 1,6 km/h (1 Bft) 100,00 %
04.11.2015 08:20 0,6 C 98 % 1025,0 hPa 0,0 l/m 0,3 km/h (0 Bft) SW 232 0 min 0,000 mm 0,0 UV-I 46 W/m 0,3 C 0,6 C 1,6 km/h (1 Bft) 95,65 %
04.11.2015 08:21 0,7 C 98 % 1025,0 hPa 0,0 l/m 0,3 km/h (0 Bft) SW 232 0 min 0,000 mm 0,0 UV-I 48 W/m 0,4 C 0,7 C 1,6 km/h (1 Bft) 100,00 %
04.11.2015 08:22 0,7 C 98 % 1025,0 hPa 0,0 l/m 0,0 km/h (0 Bft) SW 232 0 min 0,000 mm 0,0 UV-I 51 W/m 0,4 C 0,7 C 0,0 km/h (0 Bft) 100,00 %
04.11.2015 08:23 0,7 C 98 % 1025,1 hPa 0,0 l/m 0,1 km/h (0 Bft) SW 232 0 min 0,000 mm 0,0 UV-I 54 W/m 0,4 C 0,7 C 1,6 km/h (1 Bft) 100,00 %
04.11.2015 08:24 0,7 C 98 % 1025,1 hPa 0,0 l/m 0,1 km/h (0 Bft) SW 232 0 min 0,000 mm 0,0 UV-I 56 W/m 0,4 C 0,7 C 1,6 km/h (1 Bft) 100,00 %
04.11.2015 08:25 0,7 C 98 % 1025,1 hPa 0,0 l/m 0,1 km/h (0 Bft) SW 232 0 min 0,000 mm 0,0 UV-I 54 W/m 0,4 C 0,7 C 1,6 km/h (1 Bft) 100,00 %
04.11.2015 08:26 0,7 C 98 % 1025,2 hPa 0,0 l/m 0,2 km/h (0 Bft) SW 232 0 min 0,000 mm 0,0 UV-I 52 W/m 0,4 C 0,7 C 1,6 km/h (1 Bft) 95,65 %
04.11.2015 08:27 0,7 C 98 % 1025,2 hPa 0,0 l/m 0,2 km/h (0 Bft) SW 232 0 min 0,000 mm 0,0 UV-I 51 W/m 0,4 C 0,7 C 1,6 km/h (1 Bft) 100,00 %
04.11.2015 08:28 0,7 C 98 % 1025,1 hPa 0,0 l/m 0,4 km/h (0 Bft) SW 232 0 min 0,000 mm 0,0 UV-I 51 W/m 0,4 C 0,7 C 1,6 km/h (1 Bft) 100,00 %
04.11.2015 08:30 0,8 C 98 % 1025,2 hPa 0,0 l/m 0,0 km/h (0 Bft) SW 232 0 min 0,000 mm 0,0 UV-I 49 W/m 0,5 C 0,8 C 0,0 km/h (0 Bft) 100,00 %
04.11.2015 08:31 0,8 C 98 % 1025,2 hPa 0,0 l/m 0,3 km/h (0 Bft) SW 232 0 min 0,000 mm 0,0 UV-I 47 W/m 0,5 C 0,8 C 1,6 km/h (1 Bft) 91,67 %
04.11.2015 08:32 0,8 C 98 % 1025,2 hPa 0,0 l/m 1,1 km/h (1 Bft) SW 229 0 min 0,000 mm 0,0 UV-I 46 W/m 0,5 C 0,8 C 1,6 km/h (1 Bft) 100,00 %
04.11.2015 08:33 0,8 C 98 % 1025,2 hPa 0,0 l/m 1,5 km/h (1 Bft) SW 229 0 min 0,000 mm 0,0 UV-I 47 W/m 0,5 C 0,8 C 3,2 km/h (1 Bft) 100,00 %
04.11.2015 08:34 0,7 C 98 % 1025,2 hPa 0,0 l/m 2,0 km/h (1 Bft) SW 223 0 min 0,000 mm 0,0 UV-I 47 W/m 0,4 C 0,7 C 3,2 km/h (1 Bft) 100,00 %
04.11.2015 08:35 0,7 C 98 % 1025,2 hPa 0,0 l/m 1,6 km/h (1 Bft) SW 225 0 min 0,000 mm 0,0 UV-I 48 W/m 0,4 C 0,7 C 3,2 km/h (1 Bft) 100,00 %
04.11.2015 08:36 0,7 C 98 % 1025,2 hPa 0,0 l/m 1,3 km/h (1 Bft) S 188 0 min 0,000 mm 0,0 UV-I 50 W/m 0,4 C 0,7 C 1,6 km/h (1 Bft) 97,50 %
04.11.2015 08:37 0,7 C 98 % 1025,2 hPa 0,0 l/m 2,3 km/h (1 Bft) SO 126 0 min 0,000 mm 0,0 UV-I 54 W/m 0,4 C 0,7 C 3,2 km/h (1 Bft) 100,00 %
04.11.2015 08:38 0,7 C 98 % 1025,2 hPa 0,0 l/m 1,6 km/h (1 Bft) SO 126 0 min 0,000 mm 0,0 UV-I 60 W/m 0,4 C 0,7 C 3,2 km/h (1 Bft) 95,83 %
04.11.2015 08:39 0,7 C 98 % 1025,2 hPa 0,0 l/m 1,9 km/h (1 Bft) SO 126 0 min 0,000 mm 0,0 UV-I 63 W/m 0,4 C 0,7 C 3,2 km/h (1 Bft) 100,00 %
04.11.2015 08:40 0,7 C 98 % 1025,2 hPa 0,0 l/m 1,6 km/h (1 Bft) SO 135 0 min 0,000 mm 0,0 UV-I 59 W/m 0,4 C 0,7 C 3,2 km/h (1 Bft) 100,00 %
04.11.2015 08:45 0,8 C 98 % 1025,3 hPa 0,0 l/m 1,0 km/h (0 Bft) SO 125 0 min 0,000 mm 0,0 UV-I 66 W/m 0,5 C 0,8 C 1,6 km/h (1 Bft) 99,24 %
04.11.2015 08:46 0,8 C 98 % 1025,2 hPa 0,0 l/m 0,7 km/h (0 Bft) SO 125 0 min 0,000 mm 0,0 UV-I 74 W/m 0,5 C 0,8 C 1,6 km/h (1 Bft) 100,00 %
04.11.2015 08:47 0,8 C 98 % 1025,2 hPa 0,0 l/m 0,7 km/h (0 Bft) SO 125 0 min 0,000 mm 0,0 UV-I 74 W/m 0,5 C 0,8 C 1,6 km/h (1 Bft) 100,00 %
04.11.2015 08:48 0,8 C 98 % 1025,2 hPa 0,0 l/m 1,0 km/h (0 Bft) SO 125 0 min 0,000 mm 0,0 UV-I 73 W/m 0,5 C 0,8 C 1,6 km/h (1 Bft) 96,15 %
04.11.2015 08:49 0,8 C 98 % 1025,2 hPa 0,0 l/m 0,9 km/h (0 Bft) SO 125 0 min 0,000 mm 0,0 UV-I 74 W/m 0,5 C 0,8 C 3,2 km/h (1 Bft) 100,00 %
04.11.2015 08:50 0,8 C 98 % 1025,2 hPa 0,0 l/m 1,1 km/h (1 Bft) O-SO 123 0 min 0,000 mm 0,0 UV-I 77 W/m 0,5 C 0,8 C 3,2 km/h (1 Bft) 95,65 %
04.11.2015 08:51 0,8 C 98 % 1025,2 hPa 0,0 l/m 0,5 km/h (0 Bft) O-SO 123 0 min 0,000 mm 0,0 UV-I 76 W/m 0,5 C 0,8 C 1,6 km/h (1 Bft) 100,00 %
04.11.2015 08:52 0,8 C 98 % 1025,2 hPa 0,0 l/m 0,0 km/h (0 Bft) O-SO 123 0 min 0,000 mm 0,0 UV-I 77 W/m 0,5 C 0,8 C 0,0 km/h (0 Bft) 95,65 %
04.11.2015 08:55 0,8 C 98 % 1025,2 hPa 0,0 l/m 0,0 km/h (0 Bft) O-SO 112 0 min 0,000 mm 0,0 UV-I 76 W/m 0,5 C 0,8 C 1,6 km/h (1 Bft) 100,00 %
04.11.2015 09:00 0,9 C 98 % 1025,2 hPa 0,0 l/m 0,0 km/h (0 Bft) O-SO 112 0 min 0,025 mm 0,0 UV-I 77 W/m 0,6 C 0,9 C 1,6 km/h (1 Bft) 100,00 %
04.11.2015 09:02 1,0 C 98 % 1025,1 hPa 0,0 l/m 0,0 km/h (0 Bft) O-SO 115 0 min 0,000 mm 0,0 UV-I 75 W/m 0,7 C 1,0 C 0,0 km/h (0 Bft) 99,58 %
04.11.2015 09:03 0,9 C 98 % 1025,2 hPa 0,0 l/m 0,2 km/h (0 Bft) O-SO 115 0 min 0,000 mm 0,0 UV-I 76 W/m 0,6 C 0,9 C 1,6 km/h (1 Bft) 100,00 %
04.11.2015 09:04 0,9 C 98 % 1025,2 hPa 0,0 l/m 0,2 km/h (0 Bft) O-SO 115 0 min 0,000 mm 0,0 UV-I 76 W/m 0,6 C 0,9 C 1,6 km/h (1 Bft) 100,00 %
04.11.2015 09:05 0,9 C 98 % 1025,2 hPa 0,0 l/m 0,1 km/h (0 Bft) O-SO 115 0 min 0,000 mm 0,0 UV-I 77 W/m 0,6 C 0,9 C 1,6 km/h (1 Bft) 100,00 %
04.11.2015 09:06 0,9 C 98 % 1025,1 hPa 0,0 l/m 0,0 km/h (0 Bft) O-SO 115 0 min 0,000 mm 0,0 UV-I 79 W/m 0,6 C 0,9 C 0,0 km/h (0 Bft) 100,00 %
04.11.2015 09:09 1,1 C 98 % 1025,1 hPa 0,0 l/m 0,0 km/h (0 Bft) O-SO 115 0 min 0,000 mm 0,0 UV-I 87 W/m 0,8 C 1,1 C 0,0 km/h (0 Bft) 100,00 %
04.11.2015 09:10 1,1 C 98 % 1025,1 hPa 0,0 l/m 0,0 km/h (0 Bft) O-SO 115 0 min 0,000 mm 0,0 UV-I 96 W/m 0,8 C 1,1 C 0,0 km/h (0 Bft) 95,83 %
04.11.2015 09:11 1,1 C 98 % 1025,1 hPa 0,0 l/m 0,0 km/h (0 Bft) O-SO 115 0 min 0,000 mm 0,0 UV-I 92 W/m 0,8 C 1,1 C 0,0 km/h (0 Bft) 100,00 %
04.11.2015 09:12 1,1 C 98 % 1025,2 hPa 0,0 l/m 0,3 km/h (0 Bft) O-SO 115 0 min 0,000 mm 0,0 UV-I 97 W/m 0,8 C 1,1 C 1,6 km/h (1 Bft) 100,00 %
04.11.2015 09:13 1,2 C 98 % 1025,2 hPa 0,0 l/m 0,5 km/h (0 Bft) O-SO 115 0 min 0,000 mm 0,0 UV-I 96 W/m 0,9 C 1,2 C 1,6 km/h (1 Bft) 100,00 %
04.11.2015 09:14 1,1 C 98 % 1025,1 hPa 0,0 l/m 0,0 km/h (0 Bft) O-SO 115 0 min 0,000 mm 0,0 UV-I 92 W/m 0,8 C 1,1 C 0,0 km/h (0 Bft) 100,00 %
04.11.2015 09:15 1,1 C 98 % 1025,1 hPa 0,0 l/m 0,0 km/h (0 Bft) O-SO 112 0 min 0,000 mm 0,0 UV-I 94 W/m 0,8 C 1,1 C 1,6 km/h (1 Bft) 100,00 %
04.11.2015 09:18 1,3 C 98 % 1025,2 hPa 0,0 l/m 0,1 km/h (0 Bft) O 79 0 min 0,000 mm 0,0 UV-I 94 W/m 1,0 C 1,3 C 1,6 km/h (1 Bft) 100,00 %
04.11.2015 09:19 1,4 C 98 % 1025,2 hPa 0,0 l/m 0,8 km/h (0 Bft) O-NO 73 0 min 0,000 mm 0,0 UV-I 96 W/m 1,1 C 1,4 C 1,6 km/h (1 Bft) 100,00 %
04.11.2015 09:20 1,4 C 98 % 1025,2 hPa 0,0 l/m 1,7 km/h (1 Bft) O 80 0 min 0,000 mm 0,0 UV-I 101 W/m 1,1 C 1,4 C 3,2 km/h (1 Bft) 100,00 %
04.11.2015 09:21 1,4 C 98 % 1025,2 hPa 0,0 l/m 2,0 km/h (1 Bft) O 82 0 min 0,000 mm 0,0 UV-I 109 W/m 1,1 C 1,4 C 3,2 km/h (1 Bft) 100,00 %
04.11.2015 09:22 1,3 C 98 % 1025,1 hPa 0,0 l/m 2,3 km/h (1 Bft) O-NO 77 0 min 0,000 mm 0,0 UV-I 109 W/m 1,0 C 1,3 C 4,8 km/h (1 Bft) 100,00 %
04.11.2015 09:25 1,3 C 98 % 1025,1 hPa 0,0 l/m 1,6 km/h (1 Bft) O 95 0 min 0,000 mm 0,0 UV-I 112 W/m 1,0 C 1,3 C 1,6 km/h (1 Bft) 98,70 %
04.11.2015 09:26 1,2 C 98 % 1025,1 hPa 0,0 l/m 2,0 km/h (1 Bft) O 92 0 min 0,000 mm 0,0 UV-I 119 W/m 0,9 C 1,2 C 3,2 km/h (1 Bft) 100,00 %
04.11.2015 09:27 1,2 C 98 % 1025,2 hPa 0,0 l/m 1,3 km/h (1 Bft) O 92 0 min 0,000 mm 0,0 UV-I 118 W/m 0,9 C 1,2 C 3,2 km/h (1 Bft) 95,65 %
04.11.2015 09:28 1,2 C 98 % 1025,2 hPa 0,0 l/m 1,1 km/h (1 Bft) O 92 0 min 0,000 mm 0,0 UV-I 112 W/m 0,9 C 1,2 C 1,6 km/h (1 Bft) 100,00 %
04.11.2015 09:29 1,3 C 98 % 1025,2 hPa 0,0 l/m 0,5 km/h (0 Bft) O 92 0 min 0,000 mm 0,0 UV-I 106 W/m 1,0 C 1,3 C 1,6 km/h (1 Bft) 100,00 %
04.11.2015 09:30 1,3 C 98 % 1025,2 hPa 0,0 l/m 0,6 km/h (0 Bft) O 92 0 min 0,000 mm 0,0 UV-I 110 W/m 1,0 C 1,3 C 1,6 km/h (1 Bft) 100,00 %
04.11.2015 09:31 1,4 C 98 % 1025,3 hPa 0,0 l/m 0,5 km/h (0 Bft) O 92 0 min 0,000 mm 0,0 UV-I 111 W/m 1,1 C 1,4 C 1,6 km/h (1 Bft) 100,00 %
04.11.2015 09:32 1,4 C 98 % 1025,2 hPa 0,0 l/m 1,6 km/h (1 Bft) N 11 0 min 0,000 mm 0,0 UV-I 111 W/m 1,1 C 1,4 C 3,2 km/h (1 Bft) 91,30 %
04.11.2015 09:33 1,4 C 98 % 1025,2 hPa 0,0 l/m 2,0 km/h (1 Bft) N 11 0 min 0,000 mm 0,0 UV-I 111 W/m 1,1 C 1,4 C 3,2 km/h (1 Bft) 100,00 %
04.11.2015 09:34 1,4 C 98 % 1025,2 hPa 0,0 l/m 0,9 km/h (0 Bft) N 11 0 min 0,000 mm 0,0 UV-I 111 W/m 1,1 C 1,4 C 3,2 km/h (1 Bft) 100,00 %
04.11.2015 09:35 1,3 C 98 % 1025,2 hPa 0,0 l/m 0,3 km/h (0 Bft) N 11 0 min 0,000 mm 0,0 UV-I 112 W/m 1,0 C 1,3 C 1,6 km/h (1 Bft) 100,00 %
04.11.2015 09:36 1,3 C 98 % 1025,2 hPa 0,0 l/m 1,5 km/h (1 Bft) O 80 0 min 0,000 mm 0,0 UV-I 112 W/m 1,0 C 1,3 C 3,2 km/h (1 Bft) 100,00 %
04.11.2015 09:37 1,4 C 98 % 1025,2 hPa 0,0 l/m 0,3 km/h (0 Bft) O 80 0 min 0,000 mm 0,0 UV-I 114 W/m 1,1 C 1,4 C 1,6 km/h (1 Bft) 100,00 %
04.11.2015 09:40 1,4 C 98 % 1025,2 hPa 0,0 l/m 0,0 km/h (0 Bft) O 90 0 min 0,000 mm 0,0 UV-I 113 W/m 1,1 C 1,4 C 3,2 km/h (1 Bft) 100,00 %
04.11.2015 09:41 1,4 C 98 % 1025,2 hPa 0,0 l/m 0,9 km/h (0 Bft) O 80 0 min 0,000 mm 0,0 UV-I 112 W/m 1,1 C 1,4 C 1,6 km/h (1 Bft) 100,00 %
04.11.2015 09:42 1,4 C 98 % 1025,2 hPa 0,0 l/m 1,8 km/h (1 Bft) O-SO 122 0 min 0,000 mm 0,0 UV-I 112 W/m 1,1 C 1,4 C 3,2 km/h (1 Bft) 100,00 %
04.11.2015 09:43 1,4 C 98 % 1025,2 hPa 0,0 l/m 2,9 km/h (1 Bft) O 86 0 min 0,000 mm 0,0 UV-I 118 W/m 1,1 C 1,4 C 4,8 km/h (1 Bft) 100,00 %
04.11.2015 09:44 1,4 C 98 % 1025,2 hPa 0,0 l/m 0,8 km/h (0 Bft) O 86 0 min 0,000 mm 0,0 UV-I 127 W/m 1,1 C 1,4 C 1,6 km/h (1 Bft) 100,00 %
04.11.2015 09:45 1,4 C 98 % 1025,2 hPa 0,0 l/m 0,8 km/h (0 Bft) O 86 0 min 0,000 mm 0,0 UV-I 128 W/m 1,1 C 1,4 C 1,6 km/h (1 Bft) 100,00 %
04.11.2015 09:46 1,4 C 98 % 1025,2 hPa 0,0 l/m 0,1 km/h (0 Bft) O 86 0 min 0,000 mm 0,5 UV-I 133 W/m 1,1 C 1,4 C 1,6 km/h (1 Bft) 96,30 %
04.11.2015 09:47 1,4 C 98 % 1025,2 hPa 0,0 l/m 0,0 km/h (0 Bft) O 86 0 min 0,000 mm 0,0 UV-I 126 W/m 1,1 C 1,4 C 0,0 km/h (0 Bft) 100,00 %
04.11.2015 09:50 1,4 C 98 % 1025,1 hPa 0,0 l/m 0,4 km/h (0 Bft) O 86 0 min 0,000 mm 0,3 UV-I 124 W/m 1,1 C 1,4 C 1,6 km/h (1 Bft) 100,00 %
04.11.2015 09:51 1,5 C 98 % 1025,2 hPa 0,0 l/m 0,3 km/h (0 Bft) O 86 0 min 0,000 mm 0,5 UV-I 117 W/m 1,2 C 1,5 C 1,6 km/h (1 Bft) 100,00 %
04.11.2015 09:52 1,6 C 98 % 1025,3 hPa 0,0 l/m 0,1 km/h (0 Bft) O 86 0 min 0,000 mm 0,5 UV-I 110 W/m 1,3 C 1,6 C 1,6 km/h (1 Bft) 100,00 %
04.11.2015 09:53 1,7 C 98 % 1025,3 hPa 0,0 l/m 0,7 km/h (0 Bft) O 86 0 min 0,000 mm 0,5 UV-I 109 W/m 1,4 C 1,7 C 1,6 km/h (1 Bft) 100,00 %
04.11.2015 09:54 1,7 C 98 % 1025,3 hPa 0,0 l/m 0,8 km/h (0 Bft) O 86 0 min 0,000 mm 0,5 UV-I 122 W/m 1,4 C 1,7 C 1,6 km/h (1 Bft) 95,83 %
04.11.2015 09:55 1,6 C 98 % 1025,2 hPa 0,0 l/m 0,0 km/h (0 Bft) O 90 0 min 0,000 mm 0,5 UV-I 119 W/m 1,3 C 1,6 C 1,6 km/h (1 Bft) 100,00 %
04.11.2015 09:56 1,7 C 98 % 1025,2 hPa 0,0 l/m 2,2 km/h (1 Bft) O 84 0 min 0,000 mm 0,5 UV-I 124 W/m 1,4 C 1,7 C 3,2 km/h (1 Bft) 100,00 %
04.11.2015 09:57 1,7 C 98 % 1025,2 hPa 0,0 l/m 0,6 km/h (0 Bft) O 84 0 min 0,000 mm 0,5 UV-I 127 W/m 1,4 C 1,7 C 1,6 km/h (1 Bft) 100,00 %
04.11.2015 09:58 1,7 C 98 % 1025,2 hPa 0,0 l/m 0,2 km/h (0 Bft) O 84 0 min 0,000 mm 0,5 UV-I 123 W/m 1,4 C 1,7 C 1,6 km/h (1 Bft) 100,00 %
04.11.2015 09:59 1,9 C 98 % 1025,2 hPa 0,0 l/m 0,0 km/h (0 Bft) O 84 0 min 0,000 mm 0,5 UV-I 123 W/m 1,6 C 1,9 C 0,0 km/h (0 Bft) 100,00 %
04.11.2015 10:00 1,9 C 99 % 1025,2 hPa 0,0 l/m 0,2 km/h (0 Bft) O 84 0 min 0,026 mm 0,5 UV-I 119 W/m 1,8 C 1,9 C 1,6 km/h (1 Bft) 95,83 %
04.11.2015 10:01 1,9 C 98 % 1025,2 hPa 0,0 l/m 0,3 km/h (0 Bft) O 84 0 min 0,000 mm 0,5 UV-I 118 W/m 1,6 C 1,9 C 1,6 km/h (1 Bft) 100,00 %
04.11.2015 10:02 2,0 C 98 % 1025,2 hPa 0,0 l/m 0,1 km/h (0 Bft) O 84 0 min 0,000 mm 0,5 UV-I 117 W/m 1,7 C 2,0 C 1,6 km/h (1 Bft) 100,00 %
04.11.2015 10:03 2,1 C 98 % 1025,2 hPa 0,0 l/m 0,2 km/h (0 Bft) O 84 0 min 0,000 mm 0,5 UV-I 120 W/m 1,8 C 2,1 C 1,6 km/h (1 Bft) 100,00 %
04.11.2015 10:04 2,1 C 99 % 1025,1 hPa 0,0 l/m 1,7 km/h (1 Bft) O 84 0 min 0,000 mm 0,5 UV-I 118 W/m 2,0 C 2,1 C 3,2 km/h (1 Bft) 100,00 %
04.11.2015 10:05 2,1 C 99 % 1025,1 hPa 0,0 l/m 2,4 km/h (1 Bft) O 93 0 min 0,000 mm 0,5 UV-I 127 W/m 2,0 C 2,1 C 3,2 km/h (1 Bft) 100,00 %
04.11.2015 10:06 2,0 C 98 % 1025,1 hPa 0,0 l/m 1,5 km/h (1 Bft) O 93 0 min 0,000 mm 0,5 UV-I 126 W/m 1,7 C 2,0 C 3,2 km/h (1 Bft) 100,00 %
04.11.2015 10:07 2,0 C 98 % 1025,2 hPa 0,0 l/m 0,1 km/h (0 Bft) O 93 0 min 0,000 mm 0,5 UV-I 130 W/m 1,7 C 2,0 C 1,6 km/h (1 Bft) 100,00 %
04.11.2015 10:08 2,1 C 98 % 1025,2 hPa 0,0 l/m 1,3 km/h (1 Bft) O 93 0 min 0,000 mm 0,5 UV-I 129 W/m 1,8 C 2,1 C 3,2 km/h (1 Bft) 100,00 %
04.11.2015 10:09 2,0 C 98 % 1025,1 hPa 0,0 l/m 2,1 km/h (1 Bft) O-SO 102 0 min 0,000 mm 0,6 UV-I 163 W/m 1,7 C 2,0 C 3,2 km/h (1 Bft) 100,00 %
04.11.2015 10:10 2,0 C 98 % 1025,2 hPa 0,0 l/m 0,7 km/h (0 Bft) O-SO 102 0 min 0,000 mm 0,6 UV-I 161 W/m 1,7 C 2,0 C 1,6 km/h (1 Bft) 100,00 %
04.11.2015 10:11 2,1 C 98 % 1025,2 hPa 0,0 l/m 0,8 km/h (0 Bft) O-SO 102 0 min 0,000 mm 0,6 UV-I 158 W/m 1,8 C 2,1 C 1,6 km/h (1 Bft) 100,00 %
04.11.2015 10:12 2,1 C 99 % 1025,2 hPa 0,0 l/m 1,3 km/h (1 Bft) O-SO 102 0 min 0,000 mm 0,6 UV-I 156 W/m 2,0 C 2,1 C 3,2 km/h (1 Bft) 100,00 %
04.11.2015 10:13 2,1 C 98 % 1025,2 hPa 0,0 l/m 1,0 km/h (0 Bft) O-SO 102 0 min 0,000 mm 0,6 UV-I 150 W/m 1,8 C 2,1 C 1,6 km/h (1 Bft) 100,00 %
04.11.2015 10:14 2,1 C 98 % 1025,1 hPa 0,0 l/m 1,3 km/h (1 Bft) O-SO 102 0 min 0,000 mm 0,6 UV-I 152 W/m 1,8 C 2,1 C 3,2 km/h (1 Bft) 95,65 %
04.11.2015 10:15 2,1 C 99 % 1025,1 hPa 0,0 l/m 1,2 km/h (1 Bft) O-SO 102 0 min 0,000 mm 0,6 UV-I 152 W/m 2,0 C 2,1 C 3,2 km/h (1 Bft) 100,00 %
04.11.2015 10:16 2,2 C 99 % 1025,1 hPa 0,0 l/m 0,1 km/h (0 Bft) O-SO 102 0 min 0,000 mm 0,6 UV-I 153 W/m 2,1 C 2,2 C 1,6 km/h (1 Bft) 100,00 %
04.11.2015 10:17 2,2 C 99 % 1025,1 hPa 0,0 l/m 0,0 km/h (0 Bft) O-SO 102 0 min 0,000 mm 0,6 UV-I 145 W/m 2,1 C 2,2 C 0,0 km/h (0 Bft) 100,00 %
04.11.2015 10:18 2,2 C 99 % 1025,1 hPa 0,0 l/m 0,6 km/h (0 Bft) O-SO 102 0 min 0,000 mm 0,6 UV-I 147 W/m 2,1 C 2,2 C 1,6 km/h (1 Bft) 100,00 %
04.11.2015 10:19 2,1 C 99 % 1025,2 hPa 0,0 l/m 0,0 km/h (0 Bft) O-SO 102 0 min 0,000 mm 0,6 UV-I 149 W/m 2,0 C 2,1 C 0,0 km/h (0 Bft) 100,00 %
04.11.2015 10:20 2,1 C 99 % 1025,1 hPa 0,0 l/m 0,0 km/h (0 Bft) O-SO 102 0 min 0,000 mm 0,6 UV-I 148 W/m 2,0 C 2,1 C 0,0 km/h (0 Bft) 100,00 %
04.11.2015 10:21 2,1 C 99 % 1025,2 hPa 0,0 l/m 0,0 km/h (0 Bft) O-SO 102 0 min 0,000 mm 0,6 UV-I 167 W/m 2,0 C 2,1 C 0,0 km/h (0 Bft) 95,83 %
04.11.2015 10:22 2,1 C 99 % 1025,2 hPa 0,0 l/m 0,0 km/h (0 Bft) O-SO 102 0 min 0,000 mm 0,6 UV-I 160 W/m 2,0 C 2,1 C 0,0 km/h (0 Bft) 100,00 %
04.11.2015 10:23 2,1 C 99 % 1025,1 hPa 0,0 l/m 0,0 km/h (0 Bft) O-SO 102 0 min 0,000 mm 0,6 UV-I 150 W/m 2,0 C 2,1 C 0,0 km/h (0 Bft) 100,00 %
04.11.2015 10:24 2,2 C 99 % 1025,2 hPa 0,0 l/m 0,4 km/h (0 Bft) O-SO 102 0 min 0,000 mm 0,6 UV-I 157 W/m 2,1 C 2,2 C 1,6 km/h (1 Bft) 100,00 %
04.11.2015 10:25 2,2 C 99 % 1025,1 hPa 0,0 l/m 0,7 km/h (0 Bft) O-SO 102 0 min 0,000 mm 0,6 UV-I 158 W/m 2,1 C 2,2 C 1,6 km/h (1 Bft) 100,00 %
04.11.2015 10:26 2,1 C 99 % 1025,1 hPa 0,0 l/m 0,8 km/h (0 Bft) O-SO 102 0 min 0,000 mm 0,6 UV-I 149 W/m 2,0 C 2,1 C 1,6 km/h (1 Bft) 100,00 %
04.11.2015 10:27 2,0 C 98 % 1025,1 hPa 0,0 l/m 0,6 km/h (0 Bft) O-SO 102 0 min 0,000 mm 0,6 UV-I 151 W/m 1,7 C 2,0 C 1,6 km/h (1 Bft) 97,37 %
04.11.2015 10:28 2,1 C 98 % 1025,1 hPa 0,0 l/m 1,8 km/h (1 Bft) O-SO 102 0 min 0,000 mm 0,6 UV-I 147 W/m 1,8 C 2,1 C 3,2 km/h (1 Bft) 100,00 %
04.11.2015 10:29 2,2 C 99 % 1025,1 hPa 0,0 l/m 1,0 km/h (0 Bft) O-SO 102 0 min 0,000 mm 0,6 UV-I 154 W/m 2,1 C 2,2 C 3,2 km/h (1 Bft) 100,00 %
04.11.2015 10:30 2,2 C 99 % 1025,1 hPa 0,0 l/m 0,1 km/h (0 Bft) O-SO 102 0 min 0,000 mm 0,6 UV-I 160 W/m 2,1 C 2,2 C 1,6 km/h (1 Bft) 100,00 %
04.11.2015 10:31 2,2 C 99 % 1025,1 hPa 0,0 l/m 0,0 km/h (0 Bft) O-SO 102 0 min 0,000 mm 0,6 UV-I 162 W/m 2,1 C 2,2 C 0,0 km/h (0 Bft) 100,00 %
04.11.2015 10:32 2,1 C 99 % 1025,1 hPa 0,0 l/m 0,1 km/h (0 Bft) O-SO 102 0 min 0,000 mm 0,7 UV-I 169 W/m 2,0 C 2,1 C 1,6 km/h (1 Bft) 95,83 %
04.11.2015 10:33 2,2 C 99 % 1025,0 hPa 0,0 l/m 0,0 km/h (0 Bft) O-SO 102 0 min 0,000 mm 0,7 UV-I 171 W/m 2,1 C 2,2 C 0,0 km/h (0 Bft) 100,00 %
04.11.2015 10:34 2,3 C 99 % 1025,1 hPa 0,0 l/m 0,0 km/h (0 Bft) O-SO 102 0 min 0,000 mm 0,7 UV-I 146 W/m 2,2 C 2,3 C 0,0 km/h (0 Bft) 100,00 %
04.11.2015 10:35 2,3 C 98 % 1025,0 hPa 0,0 l/m 1,1 km/h (1 Bft) O 101 0 min 0,000 mm 0,6 UV-I 149 W/m 2,0 C 2,3 C 1,6 km/h (1 Bft) 100,00 %
04.11.2015 10:36 2,4 C 98 % 1025,1 hPa 0,0 l/m 0,6 km/h (0 Bft) O 100 0 min 0,000 mm 0,6 UV-I 155 W/m 2,1 C 2,4 C 1,6 km/h (1 Bft) 100,00 %
04.11.2015 10:37 2,4 C 99 % 1025,0 hPa 0,0 l/m 0,0 km/h (0 Bft) O 100 0 min 0,000 mm 0,6 UV-I 142 W/m 2,3 C 2,4 C 0,0 km/h (0 Bft) 100,00 %
04.11.2015 10:38 2,5 C 99 % 1025,0 hPa 0,0 l/m 1,1 km/h (1 Bft) O-NO 66 0 min 0,000 mm 0,7 UV-I 179 W/m 2,4 C 2,5 C 3,2 km/h (1 Bft) 100,00 %
04.11.2015 10:39 2,5 C 99 % 1025,0 hPa 0,0 l/m 1,2 km/h (1 Bft) O-NO 66 0 min 0,000 mm 0,6 UV-I 148 W/m 2,4 C 2,5 C 1,6 km/h (1 Bft) 95,65 %
04.11.2015 10:40 2,5 C 99 % 1025,1 hPa 0,0 l/m 1,6 km/h (1 Bft) O-NO 63 0 min 0,000 mm 0,6 UV-I 162 W/m 2,4 C 2,5 C 3,2 km/h (1 Bft) 96,30 %
04.11.2015 10:41 2,5 C 99 % 1025,1 hPa 0,0 l/m 0,9 km/h (0 Bft) O-NO 63 0 min 0,000 mm 0,7 UV-I 158 W/m 2,4 C 2,5 C 1,6 km/h (1 Bft) 100,00 %
04.11.2015 10:42 2,5 C 99 % 1025,0 hPa 0,0 l/m 0,4 km/h (0 Bft) O-NO 63 0 min 0,000 mm 0,6 UV-I 149 W/m 2,4 C 2,5 C 1,6 km/h (1 Bft) 100,00 %
04.11.2015 10:43 2,5 C 99 % 1025,0 hPa 0,0 l/m 0,1 km/h (0 Bft) O-NO 63 0 min 0,000 mm 0,6 UV-I 152 W/m 2,4 C 2,5 C 1,6 km/h (1 Bft) 95,65 %
04.11.2015 10:44 2,5 C 99 % 1025,0 hPa 0,0 l/m 0,3 km/h (0 Bft) O-NO 65 0 min 0,000 mm 0,7 UV-I 158 W/m 2,4 C 2,5 C 1,6 km/h (1 Bft) 100,00 %
04.11.2015 10:45 2,4 C 99 % 1025,0 hPa 0,0 l/m 1,5 km/h (1 Bft) O 84 0 min 0,000 mm 0,7 UV-I 158 W/m 2,3 C 2,4 C 1,6 km/h (1 Bft) 100,00 %
04.11.2015 10:46 2,4 C 99 % 1025,0 hPa 0,0 l/m 0,9 km/h (0 Bft) O 84 0 min 0,000 mm 0,6 UV-I 160 W/m 2,3 C 2,4 C 1,6 km/h (1 Bft) 100,00 %
04.11.2015 10:47 2,4 C 98 % 1025,1 hPa 0,0 l/m 0,0 km/h (0 Bft) O 84 0 min 0,000 mm 0,7 UV-I 151 W/m 2,1 C 2,4 C 0,0 km/h (0 Bft) 100,00 %
04.11.2015 10:48 2,4 C 99 % 1025,1 hPa 0,0 l/m 0,0 km/h (0 Bft) O 84 0 min 0,000 mm 0,6 UV-I 137 W/m 2,3 C 2,4 C 0,0 km/h (0 Bft) 100,00 %
04.11.2015 10:49 2,4 C 99 % 1025,0 hPa 0,0 l/m 0,7 km/h (0 Bft) O 84 0 min 0,000 mm 0,7 UV-I 150 W/m 2,3 C 2,4 C 1,6 km/h (1 Bft) 100,00 %
04.11.2015 10:50 2,6 C 99 % 1025,0 hPa 0,0 l/m 0,5 km/h (0 Bft) O 84 0 min 0,000 mm 0,7 UV-I 147 W/m 2,5 C 2,6 C 1,6 km/h (1 Bft) 100,00 %
04.11.2015 10:51 2,7 C 98 % 1025,0 hPa 0,0 l/m 1,1 km/h (1 Bft) O 80 0 min 0,000 mm 0,7 UV-I 142 W/m 2,4 C 2,7 C 1,6 km/h (1 Bft) 100,00 %
04.11.2015 10:52 2,7 C 98 % 1025,0 hPa 0,0 l/m 1,9 km/h (1 Bft) N-NO 29 0 min 0,000 mm 0,7 UV-I 145 W/m 2,4 C 2,7 C 3,2 km/h (1 Bft) 95,65 %
04.11.2015 10:53 2,7 C 98 % 1025,0 hPa 0,0 l/m 0,7 km/h (0 Bft) N-NO 29 0 min 0,000 mm 0,7 UV-I 159 W/m 2,4 C 2,7 C 1,6 km/h (1 Bft) 100,00 %
04.11.2015 10:54 2,7 C 98 % 1024,9 hPa 0,0 l/m 0,4 km/h (0 Bft) N-NO 29 0 min 0,000 mm 0,7 UV-I 165 W/m 2,4 C 2,7 C 1,6 km/h (1 Bft) 86,96 %
04.11.2015 10:55 2,7 C 98 % 1024,9 hPa 0,0 l/m 0,6 km/h (0 Bft) N-NO 29 0 min 0,000 mm 0,8 UV-I 164 W/m 2,4 C 2,7 C 1,6 km/h (1 Bft) 100,00 %
04.11.2015 10:56 2,7 C 98 % 1025,0 hPa 0,0 l/m 0,3 km/h (0 Bft) NO 38 0 min 0,000 mm 0,8 UV-I 183 W/m 2,4 C 2,7 C 1,6 km/h (1 Bft) 100,00 %
04.11.2015 10:57 2,6 C 98 % 1025,0 hPa 0,0 l/m 0,3 km/h (0 Bft) NO 38 0 min 0,000 mm 0,8 UV-I 175 W/m 2,3 C 2,6 C 1,6 km/h (1 Bft) 100,00 %
04.11.2015 10:58 2,6 C 98 % 1025,0 hPa 0,0 l/m 0,0 km/h (0 Bft) NO 38 0 min 0,000 mm 0,7 UV-I 169 W/m 2,3 C 2,6 C 0,0 km/h (0 Bft) 100,00 %
04.11.2015 10:59 2,6 C 98 % 1025,0 hPa 0,0 l/m 1,0 km/h (0 Bft) NO 38 0 min 0,000 mm 0,7 UV-I 174 W/m 2,3 C 2,6 C 3,2 km/h (1 Bft) 95,83 %
04.11.2015 11:00 2,7 C 98 % 1025,0 hPa 0,0 l/m 0,4 km/h (0 Bft) N-NO 15 0 min 0,051 mm 0,7 UV-I 175 W/m 2,4 C 2,7 C 1,6 km/h (1 Bft) 96,15 %
04.11.2015 11:01 2,8 C 99 % 1025,0 hPa 0,0 l/m 0,0 km/h (0 Bft) N-NO 15 0 min 0,000 mm 0,8 UV-I 174 W/m 2,7 C 2,8 C 0,0 km/h (0 Bft) 95,83 %
04.11.2015 11:02 2,8 C 99 % 1024,9 hPa 0,0 l/m 0,0 km/h (0 Bft) N-NO 15 0 min 0,000 mm 0,8 UV-I 178 W/m 2,7 C 2,8 C 0,0 km/h (0 Bft) 100,00 %
04.11.2015 11:03 2,9 C 99 % 1024,9 hPa 0,0 l/m 0,1 km/h (0 Bft) N-NO 15 0 min 0,000 mm 0,7 UV-I 165 W/m 2,8 C 2,9 C 1,6 km/h (1 Bft) 100,00 %
04.11.2015 11:04 2,9 C 99 % 1024,9 hPa 0,0 l/m 0,0 km/h (0 Bft) N-NO 15 0 min 0,000 mm 0,7 UV-I 161 W/m 2,8 C 2,9 C 0,0 km/h (0 Bft) 100,00 %
04.11.2015 11:05 2,9 C 98 % 1024,9 hPa 0,0 l/m 0,0 km/h (0 Bft) N-NO 15 0 min 0,000 mm 0,7 UV-I 155 W/m 2,6 C 2,9 C 0,0 km/h (0 Bft) 100,00 %
04.11.2015 11:06 3,1 C 98 % 1024,9 hPa 0,0 l/m 0,0 km/h (0 Bft) N-NO 15 0 min 0,000 mm 0,7 UV-I 149 W/m 2,8 C 3,1 C 0,0 km/h (0 Bft) 96,30 %
04.11.2015 11:07 3,1 C 99 % 1024,9 hPa 0,0 l/m 0,1 km/h (0 Bft) N-NO 15 0 min 0,000 mm 0,8 UV-I 171 W/m 3,0 C 3,1 C 1,6 km/h (1 Bft) 100,00 %
04.11.2015 11:08 3,1 C 98 % 1024,9 hPa 0,0 l/m 0,9 km/h (0 Bft) N-NO 15 0 min 0,000 mm 0,8 UV-I 185 W/m 2,8 C 3,1 C 1,6 km/h (1 Bft) 100,00 %
04.11.2015 11:09 3,2 C 99 % 1024,9 hPa 0,0 l/m 0,9 km/h (0 Bft) N-NO 15 0 min 0,000 mm 0,8 UV-I 184 W/m 3,1 C 3,2 C 1,6 km/h (1 Bft) 100,00 %
04.11.2015 11:10 3,3 C 98 % 1024,9 hPa 0,0 l/m 0,5 km/h (0 Bft) N-NO 15 0 min 0,000 mm 0,8 UV-I 182 W/m 3,0 C 3,3 C 1,6 km/h (1 Bft) 100,00 %
04.11.2015 11:11 3,3 C 98 % 1024,9 hPa 0,0 l/m 0,1 km/h (0 Bft) N-NO 15 0 min 0,000 mm 0,8 UV-I 179 W/m 3,0 C 3,3 C 1,6 km/h (1 Bft) 100,00 %
04.11.2015 11:12 3,2 C 98 % 1024,9 hPa 0,0 l/m 0,0 km/h (0 Bft) N-NO 15 0 min 0,000 mm 0,8 UV-I 186 W/m 2,9 C 3,2 C 0,0 km/h (0 Bft) 100,00 %
04.11.2015 11:13 3,2 C 99 % 1024,8 hPa 0,0 l/m 0,3 km/h (0 Bft) N-NO 15 0 min 0,000 mm 0,8 UV-I 190 W/m 3,1 C 3,2 C 1,6 km/h (1 Bft) 100,00 %
04.11.2015 11:14 3,2 C 99 % 1024,9 hPa 0,0 l/m 0,5 km/h (0 Bft) N 9 0 min 0,000 mm 0,8 UV-I 195 W/m 3,1 C 3,2 C 1,6 km/h (1 Bft) 100,00 %
04.11.2015 11:15 3,1 C 99 % 1024,9 hPa 0,0 l/m 1,2 km/h (1 Bft) N 9 0 min 0,000 mm 0,8 UV-I 196 W/m 3,0 C 3,1 C 3,2 km/h (1 Bft) 95,65 %
04.11.2015 11:16 3,1 C 99 % 1024,9 hPa 0,0 l/m 0,7 km/h (0 Bft) N 9 0 min 0,000 mm 0,8 UV-I 176 W/m 3,0 C 3,1 C 1,6 km/h (1 Bft) 100,00 %
04.11.2015 11:17 3,1 C 99 % 1024,8 hPa 0,0 l/m 0,5 km/h (0 Bft) N-NO 15 0 min 0,000 mm 0,8 UV-I 156 W/m 3,0 C 3,1 C 1,6 km/h (1 Bft) 95,65 %
04.11.2015 11:18 3,1 C 99 % 1024,8 hPa 0,0 l/m 1,2 km/h (1 Bft) NW 312 0 min 0,000 mm 0,8 UV-I 151 W/m 3,0 C 3,1 C 3,2 km/h (1 Bft) 100,00 %
04.11.2015 11:19 3,2 C 99 % 1024,8 hPa 0,0 l/m 1,5 km/h (1 Bft) NW 309 0 min 0,000 mm 0,8 UV-I 144 W/m 3,1 C 3,2 C 3,2 km/h (1 Bft) 95,65 %
04.11.2015 11:20 3,2 C 98 % 1024,8 hPa 0,0 l/m 0,5 km/h (0 Bft) NW 309 0 min 0,000 mm 0,8 UV-I 167 W/m 2,9 C 3,2 C 1,6 km/h (1 Bft) 100,00 %
04.11.2015 11:21 3,2 C 99 % 1024,8 hPa 0,0 l/m 1,9 km/h (1 Bft) NW 308 0 min 0,000 mm 0,8 UV-I 169 W/m 3,1 C 3,2 C 3,2 km/h (1 Bft) 100,00 %
04.11.2015 11:22 3,2 C 98 % 1024,8 hPa 0,0 l/m 2,3 km/h (1 Bft) W-NW 302 0 min 0,000 mm 0,8 UV-I 162 W/m 2,9 C 3,2 C 3,2 km/h (1 Bft) 95,83 %
04.11.2015 11:23 3,2 C 98 % 1024,8 hPa 0,0 l/m 0,8 km/h (0 Bft) W-NW 302 0 min 0,000 mm 0,9 UV-I 167 W/m 2,9 C 3,2 C 1,6 km/h (1 Bft) 100,00 %
04.11.2015 11:24 3,3 C 98 % 1024,8 hPa 0,0 l/m 0,0 km/h (0 Bft) W-NW 302 0 min 0,000 mm 0,9 UV-I 195 W/m 3,0 C 3,3 C 0,0 km/h (0 Bft) 100,00 %
04.11.2015 11:25 3,4 C 99 % 1024,8 hPa 0,0 l/m 0,3 km/h (0 Bft) W-NW 302 0 min 0,000 mm 0,9 UV-I 226 W/m 3,3 C 3,4 C 1,6 km/h (1 Bft) 100,00 %
04.11.2015 11:26 3,5 C 99 % 1024,8 hPa 0,0 l/m 1,1 km/h (1 Bft) W-NW 302 0 min 0,000 mm 0,9 UV-I 218 W/m 3,4 C 3,5 C 1,6 km/h (1 Bft) 100,00 %
04.11.2015 11:27 3,4 C 98 % 1024,7 hPa 0,0 l/m 0,7 km/h (0 Bft) W-NW 302 0 min 0,000 mm 1,0 UV-I 228 W/m 3,1 C 3,4 C 1,6 km/h (1 Bft) 100,00 %
04.11.2015 11:28 3,4 C 99 % 1024,8 hPa 0,0 l/m 0,2 km/h (0 Bft) W-NW 302 0 min 0,000 mm 1,0 UV-I 217 W/m 3,3 C 3,4 C 1,6 km/h (1 Bft) 100,00 %
04.11.2015 11:29 3,4 C 99 % 1024,8 hPa 0,0 l/m 0,0 km/h (0 Bft) W-NW 302 0 min 0,000 mm 1,0 UV-I 226 W/m 3,3 C 3,4 C 0,0 km/h (0 Bft) 100,00 %
04.11.2015 11:30 3,4 C 99 % 1024,8 hPa 0,0 l/m 0,0 km/h (0 Bft) W-NW 302 0 min 0,000 mm 0,9 UV-I 209 W/m 3,3 C 3,4 C 0,0 km/h (0 Bft) 100,00 %
04.11.2015 11:31 3,4 C 99 % 1024,7 hPa 0,0 l/m 0,8 km/h (0 Bft) W-NW 296 0 min 0,000 mm 0,9 UV-I 180 W/m 3,3 C 3,4 C 1,6 km/h (1 Bft) 95,83 %
04.11.2015 11:32 3,5 C 99 % 1024,7 hPa 0,0 l/m 0,1 km/h (0 Bft) W-NW 296 0 min 0,000 mm 1,0 UV-I 227 W/m 3,4 C 3,5 C 1,6 km/h (1 Bft) 100,00 %
04.11.2015 11:33 3,6 C 98 % 1024,7 hPa 0,0 l/m 1,5 km/h (1 Bft) W 273 0 min 0,000 mm 1,0 UV-I 244 W/m 3,3 C 3,6 C 3,2 km/h (1 Bft) 100,00 %
04.11.2015 11:34 3,6 C 98 % 1024,7 hPa 0,0 l/m 2,4 km/h (1 Bft) W 273 0 min 0,000 mm 1,0 UV-I 236 W/m 3,3 C 3,6 C 3,2 km/h (1 Bft) 100,00 %
04.11.2015 11:35 3,7 C 98 % 1024,7 hPa 0,0 l/m 1,8 km/h (1 Bft) W 273 0 min 0,000 mm 1,0 UV-I 218 W/m 3,4 C 3,7 C 3,2 km/h (1 Bft) 100,00 %
04.11.2015 11:36 3,7 C 99 % 1024,7 hPa 0,0 l/m 3,1 km/h (1 Bft) W 275 0 min 0,000 mm 1,0 UV-I 214 W/m 3,6 C 3,7 C 3,2 km/h (1 Bft) 100,00 %
04.11.2015 11:37 3,7 C 99 % 1024,7 hPa 0,0 l/m 1,4 km/h (1 Bft) W 275 0 min 0,000 mm 1,0 UV-I 225 W/m 3,6 C 3,7 C 3,2 km/h (1 Bft) 100,00 %
04.11.2015 11:38 3,7 C 99 % 1024,7 hPa 0,0 l/m 0,6 km/h (0 Bft) NW 305 0 min 0,000 mm 1,0 UV-I 224 W/m 3,6 C 3,7 C 1,6 km/h (1 Bft) 100,00 %
04.11.2015 11:39 3,8 C 99 % 1024,6 hPa 0,0 l/m 1,2 km/h (1 Bft) N-NW 343 0 min 0,000 mm 1,0 UV-I 224 W/m 3,7 C 3,8 C 3,2 km/h (1 Bft) 100,00 %
04.11.2015 11:40 3,8 C 98 % 1024,6 hPa 0,0 l/m 1,2 km/h (1 Bft) N-NW 338 0 min 0,000 mm 1,1 UV-I 232 W/m 3,5 C 3,8 C 3,2 km/h (1 Bft) 95,65 %
04.11.2015 11:41 3,8 C 98 % 1024,6 hPa 0,0 l/m 1,4 km/h (1 Bft) N-NW 339 1 min 0,000 mm 1,1 UV-I 262 W/m 3,5 C 3,8 C 1,6 km/h (1 Bft) 100,00 %
04.11.2015 11:42 3,8 C 98 % 1024,6 hPa 0,0 l/m 0,0 km/h (0 Bft) N-NW 339 1 min 0,000 mm 1,1 UV-I 268 W/m 3,5 C 3,8 C 0,0 km/h (0 Bft) 100,00 %
04.11.2015 11:43 3,9 C 98 % 1024,6 hPa 0,0 l/m 0,1 km/h (0 Bft) N-NW 339 1 min 0,000 mm 1,2 UV-I 286 W/m 3,6 C 3,9 C 1,6 km/h (1 Bft) 100,00 %
04.11.2015 11:44 4,0 C 98 % 1024,6 hPa 0,0 l/m 0,8 km/h (0 Bft) N-NW 339 1 min 0,000 mm 1,2 UV-I 299 W/m 3,7 C 4,0 C 1,6 km/h (1 Bft) 100,00 %
04.11.2015 11:45 4,1 C 99 % 1024,6 hPa 0,0 l/m 0,7 km/h (0 Bft) N-NW 339 1 min 0,000 mm 1,3 UV-I 337 W/m 4,0 C 4,1 C 1,6 km/h (1 Bft) 91,67 %
04.11.2015 11:46 4,1 C 99 % 1024,6 hPa 0,0 l/m 0,7 km/h (0 Bft) N-NW 339 1 min 0,000 mm 1,3 UV-I 429 W/m 4,0 C 4,1 C 1,6 km/h (1 Bft) 100,00 %
04.11.2015 11:47 4,2 C 99 % 1024,6 hPa 0,0 l/m 2,1 km/h (1 Bft) W-NW 298 1 min 0,000 mm 1,3 UV-I 479 W/m 4,1 C 4,2 C 3,2 km/h (1 Bft) 100,00 %
04.11.2015 11:48 4,2 C 98 % 1024,5 hPa 0,0 l/m 0,6 km/h (0 Bft) W-NW 298 1 min 0,000 mm 1,2 UV-I 407 W/m 3,9 C 4,2 C 1,6 km/h (1 Bft) 100,00 %
04.11.2015 11:49 4,2 C 98 % 1024,5 hPa 0,0 l/m 0,5 km/h (0 Bft) W-NW 298 1 min 0,000 mm 1,1 UV-I 375 W/m 3,9 C 4,2 C 1,6 km/h (1 Bft) 95,65 %
04.11.2015 11:50 4,2 C 98 % 1024,5 hPa 0,0 l/m 1,1 km/h (1 Bft) W-NW 299 1 min 0,000 mm 1,1 UV-I 287 W/m 3,9 C 4,2 C 3,2 km/h (1 Bft) 99,16 %
04.11.2015 11:53 4,1 C 99 % 1024,4 hPa 0,0 l/m 0,9 km/h (0 Bft) W 267 3 min 0,000 mm 1,2 UV-I 250 W/m 4,0 C 4,1 C 1,6 km/h (1 Bft) 98,90 %
04.11.2015 11:54 4,2 C 99 % 1024,4 hPa 0,0 l/m 0,6 km/h (0 Bft) W 267 1 min 0,000 mm 1,2 UV-I 291 W/m 4,1 C 4,2 C 1,6 km/h (1 Bft) 95,83 %
04.11.2015 11:55 4,3 C 98 % 1024,4 hPa 0,0 l/m 0,9 km/h (0 Bft) W 265 1 min 0,000 mm 1,3 UV-I 288 W/m 4,0 C 4,3 C 1,6 km/h (1 Bft) 100,00 %
04.11.2015 11:56 4,4 C 98 % 1024,4 hPa 0,0 l/m 0,8 km/h (0 Bft) W 265 1 min 0,000 mm 1,2 UV-I 250 W/m 4,1 C 4,4 C 1,6 km/h (1 Bft) 100,00 %
04.11.2015 11:57 4,4 C 99 % 1024,4 hPa 0,0 l/m 1,0 km/h (0 Bft) W 264 0 min 0,000 mm 1,2 UV-I 238 W/m 4,3 C 4,4 C 3,2 km/h (1 Bft) 100,00 %
04.11.2015 11:58 4,4 C 98 % 1024,4 hPa 0,0 l/m 1,3 km/h (1 Bft) S-SW 202 0 min 0,000 mm 1,2 UV-I 227 W/m 4,1 C 4,4 C 3,2 km/h (1 Bft) 100,00 %
04.11.2015 11:59 4,4 C 99 % 1024,4 hPa 0,0 l/m 1,3 km/h (1 Bft) S-SW 202 0 min 0,000 mm 1,2 UV-I 211 W/m 4,3 C 4,4 C 3,2 km/h (1 Bft) 100,00 %
04.11.2015 12:00 4,4 C 99 % 1024,3 hPa 0,0 l/m 0,9 km/h (0 Bft) S 191 1 min 0,076 mm 1,3 UV-I 306 W/m 4,3 C 4,4 C 1,6 km/h (1 Bft) 100,00 %
04.11.2015 12:01 4,4 C 98 % 1024,3 hPa 0,0 l/m 2,6 km/h (1 Bft) S 190 1 min 0,000 mm 1,3 UV-I 289 W/m 4,1 C 4,4 C 6,4 km/h (2 Bft) 100,00 %
04.11.2015 12:02 4,5 C 98 % 1024,3 hPa 0,0 l/m 1,1 km/h (1 Bft) S-SW 209 1 min 0,000 mm 1,3 UV-I 290 W/m 4,2 C 4,5 C 3,2 km/h (1 Bft) 100,00 %
04.11.2015 12:03 4,6 C 98 % 1024,3 hPa 0,0 l/m 0,1 km/h (0 Bft) S-SW 208 1 min 0,000 mm 1,3 UV-I 290 W/m 4,3 C 4,6 C 1,6 km/h (1 Bft) 100,00 %
04.11.2015 12:04 4,7 C 99 % 1024,3 hPa 0,0 l/m 0,0 km/h (0 Bft) S-SW 209 1 min 0,000 mm 1,3 UV-I 259 W/m 4,6 C 4,7 C 0,0 km/h (0 Bft) 100,00 %
04.11.2015 12:05 4,8 C 99 % 1024,3 hPa 0,0 l/m 0,2 km/h (0 Bft) S-SW 208 1 min 0,000 mm 1,3 UV-I 272 W/m 4,7 C 4,8 C 1,6 km/h (1 Bft) 100,00 %
04.11.2015 12:06 4,8 C 98 % 1024,2 hPa 0,0 l/m 0,6 km/h (0 Bft) S-SW 209 1 min 0,000 mm 1,3 UV-I 341 W/m 4,5 C 4,8 C 1,6 km/h (1 Bft) 100,00 %
04.11.2015 12:07 4,9 C 98 % 1024,3 hPa 0,0 l/m 0,0 km/h (0 Bft) S-SW 208 1 min 0,000 mm 1,3 UV-I 346 W/m 4,6 C 4,9 C 0,0 km/h (0 Bft) 100,00 %
04.11.2015 12:08 4,9 C 99 % 1024,3 hPa 0,0 l/m 0,0 km/h (0 Bft) S-SW 208 1 min 0,000 mm 1,3 UV-I 349 W/m 4,8 C 4,9 C 0,0 km/h (0 Bft) 100,00 %
04.11.2015 12:09 5,1 C 99 % 1024,2 hPa 0,0 l/m 0,3 km/h (0 Bft) S-SW 208 1 min 0,000 mm 1,3 UV-I 366 W/m 5,0 C 5,1 C 1,6 km/h (1 Bft) 100,00 %
04.11.2015 12:10 5,2 C 98 % 1024,2 hPa 0,0 l/m 0,5 km/h (0 Bft) S-SW 193 1 min 0,000 mm 1,3 UV-I 364 W/m 4,9 C 5,2 C 1,6 km/h (1 Bft) 96,15 %
04.11.2015 12:11 5,2 C 99 % 1024,2 hPa 0,0 l/m 1,9 km/h (1 Bft) O-SO 113 1 min 0,000 mm 1,3 UV-I 358 W/m 5,1 C 5,2 C 3,2 km/h (1 Bft) 100,00 %
04.11.2015 12:12 5,2 C 99 % 1024,2 hPa 0,0 l/m 0,1 km/h (0 Bft) O-SO 113 1 min 0,000 mm 1,3 UV-I 351 W/m 5,1 C 5,2 C 1,6 km/h (1 Bft) 95,65 %
04.11.2015 12:13 5,3 C 99 % 1024,2 hPa 0,0 l/m 0,7 km/h (0 Bft) SO 142 1 min 0,000 mm 1,3 UV-I 329 W/m 5,2 C 5,3 C 1,6 km/h (1 Bft) 100,00 %
04.11.2015 12:14 5,4 C 99 % 1024,1 hPa 0,0 l/m 1,9 km/h (1 Bft) S-SW 206 1 min 0,000 mm 1,3 UV-I 345 W/m 5,3 C 5,4 C 3,2 km/h (1 Bft) 100,00 %
04.11.2015 12:15 5,6 C 98 % 1024,1 hPa 0,0 l/m 2,6 km/h (1 Bft) S-SW 207 1 min 0,000 mm 1,3 UV-I 350 W/m 5,3 C 5,6 C 4,8 km/h (1 Bft) 100,00 %
04.11.2015 12:16 5,6 C 98 % 1024,1 hPa 0,0 l/m 3,8 km/h (1 Bft) S-SW 212 1 min 0,000 mm 1,3 UV-I 357 W/m 5,3 C 5,6 C 6,4 km/h (2 Bft) 100,00 %
04.11.2015 12:17 5,5 C 98 % 1024,1 hPa 0,0 l/m 2,5 km/h (1 Bft) SW 217 1 min 0,000 mm 1,3 UV-I 359 W/m 5,2 C 5,5 C 4,8 km/h (1 Bft) 100,00 %
04.11.2015 12:18 5,5 C 98 % 1024,1 hPa 0,0 l/m 1,1 km/h (1 Bft) SW 219 1 min 0,000 mm 1,3 UV-I 351 W/m 5,2 C 5,5 C 1,6 km/h (1 Bft) 100,00 %
04.11.2015 12:19 5,6 C 98 % 1024,0 hPa 0,0 l/m 2,3 km/h (1 Bft) S-SW 209 1 min 0,000 mm 1,3 UV-I 357 W/m 5,3 C 5,6 C 4,8 km/h (1 Bft) 100,00 %
04.11.2015 12:20 5,7 C 98 % 1024,0 hPa 0,0 l/m 2,6 km/h (1 Bft) SW 222 1 min 0,000 mm 1,3 UV-I 380 W/m 5,4 C 5,7 C 4,8 km/h (1 Bft) 100,00 %
04.11.2015 12:21 5,7 C 98 % 1024,0 hPa 0,0 l/m 2,6 km/h (1 Bft) S-SO 163 1 min 0,000 mm 1,3 UV-I 381 W/m 5,4 C 5,7 C 3,2 km/h (1 Bft) 100,00 %
04.11.2015 12:22 5,8 C 97 % 1024,0 hPa 0,0 l/m 2,6 km/h (1 Bft) S 172 1 min 0,000 mm 1,3 UV-I 370 W/m 5,4 C 5,8 C 3,2 km/h (1 Bft) 100,00 %
04.11.2015 12:23 5,8 C 97 % 1024,0 hPa 0,0 l/m 2,7 km/h (1 Bft) S-SW 200 1 min 0,000 mm 1,3 UV-I 363 W/m 5,4 C 5,8 C 4,8 km/h (1 Bft) 100,00 %
04.11.2015 12:24 5,8 C 96 % 1024,0 hPa 0,0 l/m 0,2 km/h (0 Bft) S-SW 200 1 min 0,000 mm 1,3 UV-I 344 W/m 5,2 C 5,8 C 1,6 km/h (1 Bft) 100,00 %
04.11.2015 12:25 5,9 C 96 % 1024,0 hPa 0,0 l/m 1,0 km/h (0 Bft) W 280 1 min 0,000 mm 1,3 UV-I 344 W/m 5,3 C 5,9 C 3,2 km/h (1 Bft) 100,00 %
04.11.2015 12:26 6,0 C 96 % 1024,1 hPa 0,0 l/m 1,6 km/h (1 Bft) SW 221 1 min 0,000 mm 1,3 UV-I 366 W/m 5,4 C 6,0 C 3,2 km/h (1 Bft) 100,00 %
04.11.2015 12:27 6,1 C 95 % 1024,1 hPa 0,0 l/m 1,5 km/h (1 Bft) S-SO 160 1 min 0,000 mm 1,3 UV-I 360 W/m 5,4 C 6,1 C 3,2 km/h (1 Bft) 100,00 %
04.11.2015 12:28 6,1 C 94 % 1024,0 hPa 0,0 l/m 2,1 km/h (1 Bft) S 188 1 min 0,000 mm 1,3 UV-I 336 W/m 5,2 C 6,1 C 4,8 km/h (1 Bft) 100,00 %
04.11.2015 12:29 6,0 C 95 % 1024,1 hPa 0,0 l/m 2,0 km/h (1 Bft) S-SW 203 1 min 0,000 mm 1,2 UV-I 328 W/m 5,3 C 6,0 C 4,8 km/h (1 Bft) 100,00 %
04.11.2015 12:30 6,1 C 95 % 1024,0 hPa 0,0 l/m 2,1 km/h (1 Bft) S-SW 194 1 min 0,000 mm 1,2 UV-I 324 W/m 5,4 C 6,1 C 4,8 km/h (1 Bft) 100,00 %
04.11.2015 12:31 6,2 C 95 % 1024,0 hPa 0,0 l/m 2,5 km/h (1 Bft) S-SW 194 1 min 0,000 mm 1,3 UV-I 342 W/m 5,5 C 6,2 C 3,2 km/h (1 Bft) 100,00 %
04.11.2015 12:32 6,3 C 94 % 1024,0 hPa 0,0 l/m 3,4 km/h (1 Bft) S-SW 193 1 min 0,000 mm 1,3 UV-I 351 W/m 5,4 C 6,3 C 6,4 km/h (2 Bft) 100,00 %
04.11.2015 12:33 6,3 C 94 % 1024,0 hPa 0,0 l/m 2,0 km/h (1 Bft) S 188 1 min 0,000 mm 1,2 UV-I 344 W/m 5,4 C 6,3 C 4,8 km/h (1 Bft) 100,00 %
04.11.2015 12:34 6,3 C 94 % 1024,0 hPa 0,0 l/m 2,9 km/h (1 Bft) S-SW 212 1 min 0,000 mm 1,2 UV-I 350 W/m 5,4 C 6,3 C 3,2 km/h (1 Bft) 100,00 %
04.11.2015 12:35 6,4 C 94 % 1024,0 hPa 0,0 l/m 1,3 km/h (1 Bft) S-SW 207 1 min 0,000 mm 1,2 UV-I 342 W/m 5,5 C 6,4 C 1,6 km/h (1 Bft) 95,65 %
04.11.2015 12:36 6,6 C 94 % 1024,0 hPa 0,0 l/m 0,5 km/h (0 Bft) S-SW 207 1 min 0,000 mm 1,2 UV-I 320 W/m 5,7 C 6,6 C 1,6 km/h (1 Bft) 100,00 %
04.11.2015 12:37 6,7 C 94 % 1024,0 hPa 0,0 l/m 1,1 km/h (1 Bft) W 265 1 min 0,000 mm 1,2 UV-I 304 W/m 5,8 C 6,7 C 3,2 km/h (1 Bft) 100,00 %
04.11.2015 12:38 6,8 C 94 % 1024,0 hPa 0,0 l/m 1,5 km/h (1 Bft) S-SW 193 1 min 0,000 mm 1,2 UV-I 288 W/m 5,9 C 6,8 C 3,2 km/h (1 Bft) 100,00 %
04.11.2015 12:39 6,8 C 92 % 1024,0 hPa 0,0 l/m 0,6 km/h (0 Bft) S-SW 202 1 min 0,000 mm 1,2 UV-I 282 W/m 5,6 C 6,8 C 1,6 km/h (1 Bft) 96,15 %
04.11.2015 12:40 6,8 C 92 % 1024,0 hPa 0,0 l/m 1,7 km/h (1 Bft) S-SW 200 1 min 0,000 mm 1,1 UV-I 264 W/m 5,6 C 6,8 C 3,2 km/h (1 Bft) 100,00 %
04.11.2015 12:41 6,8 C 92 % 1024,0 hPa 0,0 l/m 2,9 km/h (1 Bft) S 180 1 min 0,000 mm 1,1 UV-I 257 W/m 5,6 C 6,8 C 4,8 km/h (1 Bft) 100,00 %
04.11.2015 12:42 6,7 C 92 % 1023,9 hPa 0,0 l/m 1,8 km/h (1 Bft) S 180 1 min 0,000 mm 1,1 UV-I 256 W/m 5,5 C 6,7 C 3,2 km/h (1 Bft) 100,00 %
04.11.2015 12:43 6,7 C 92 % 1023,9 hPa 0,0 l/m 0,9 km/h (0 Bft) S 180 1 min 0,000 mm 1,1 UV-I 265 W/m 5,5 C 6,7 C 1,6 km/h (1 Bft) 100,00 %
04.11.2015 12:44 6,7 C 92 % 1023,9 hPa 0,0 l/m 1,4 km/h (1 Bft) S-SW 209 1 min 0,000 mm 1,1 UV-I 267 W/m 5,5 C 6,7 C 3,2 km/h (1 Bft) 100,00 %
04.11.2015 12:45 6,7 C 92 % 1023,9 hPa 0,0 l/m 0,8 km/h (0 Bft) S-SW 209 1 min 0,000 mm 1,1 UV-I 265 W/m 5,5 C 6,7 C 1,6 km/h (1 Bft) 100,00 %
04.11.2015 12:46 6,7 C 92 % 1023,9 hPa 0,0 l/m 3,3 km/h (1 Bft) SW 225 1 min 0,000 mm 1,1 UV-I 267 W/m 5,5 C 6,7 C 4,8 km/h (1 Bft) 100,00 %
04.11.2015 12:47 6,7 C 92 % 1023,9 hPa 0,0 l/m 2,5 km/h (1 Bft) SW 225 1 min 0,000 mm 1,1 UV-I 280 W/m 5,5 C 6,7 C 3,2 km/h (1 Bft) 100,00 %
04.11.2015 12:48 6,7 C 92 % 1023,8 hPa 0,0 l/m 0,8 km/h (0 Bft) SW 225 1 min 0,000 mm 1,1 UV-I 275 W/m 5,5 C 6,7 C 1,6 km/h (1 Bft) 100,00 %
04.11.2015 12:49 6,7 C 92 % 1023,8 hPa 0,0 l/m 2,2 km/h (1 Bft) S-SW 211 1 min 0,000 mm 1,1 UV-I 277 W/m 5,5 C 6,7 C 3,2 km/h (1 Bft) 100,00 %
04.11.2015 12:50 6,8 C 92 % 1023,8 hPa 0,0 l/m 3,0 km/h (1 Bft) SW 227 1 min 0,000 mm 1,1 UV-I 263 W/m 5,6 C 6,8 C 3,2 km/h (1 Bft) 100,00 %
04.11.2015 12:51 6,8 C 92 % 1023,8 hPa 0,0 l/m 3,6 km/h (1 Bft) S 190 1 min 0,000 mm 1,1 UV-I 273 W/m 5,6 C 6,8 C 6,4 km/h (2 Bft) 91,67 %
04.11.2015 12:52 6,8 C 91 % 1023,8 hPa 0,0 l/m 2,0 km/h (1 Bft) S 191 1 min 0,000 mm 1,1 UV-I 291 W/m 5,4 C 6,8 C 3,2 km/h (1 Bft) 100,00 %
04.11.2015 12:53 6,8 C 91 % 1023,8 hPa 0,0 l/m 0,5 km/h (0 Bft) S-SO 161 1 min 0,000 mm 1,1 UV-I 290 W/m 5,4 C 6,8 C 3,2 km/h (1 Bft) 100,00 %
04.11.2015 12:54 6,8 C 92 % 1023,8 hPa 0,0 l/m 2,6 km/h (1 Bft) S 180 1 min 0,000 mm 1,1 UV-I 254 W/m 5,6 C 6,8 C 4,8 km/h (1 Bft) 100,00 %
04.11.2015 12:55 6,8 C 92 % 1023,8 hPa 0,0 l/m 3,7 km/h (1 Bft) S 184 0 min 0,000 mm 1,0 UV-I 223 W/m 5,6 C 6,8 C 4,8 km/h (1 Bft) 95,83 %
04.11.2015 12:56 6,8 C 91 % 1023,8 hPa 0,0 l/m 3,0 km/h (1 Bft) S 184 0 min 0,000 mm 1,0 UV-I 226 W/m 5,4 C 6,8 C 4,8 km/h (1 Bft) 100,00 %
04.11.2015 12:57 6,8 C 91 % 1023,8 hPa 0,0 l/m 3,4 km/h (1 Bft) SW 229 1 min 0,000 mm 1,1 UV-I 263 W/m 5,4 C 6,8 C 6,4 km/h (2 Bft) 100,00 %
04.11.2015 12:58 6,9 C 91 % 1023,8 hPa 0,0 l/m 3,7 km/h (1 Bft) W-SW 240 1 min 0,000 mm 1,1 UV-I 282 W/m 5,5 C 6,9 C 4,8 km/h (1 Bft) 100,00 %
04.11.2015 12:59 6,9 C 91 % 1023,8 hPa 0,0 l/m 2,1 km/h (1 Bft) W 281 1 min 0,000 mm 1,0 UV-I 242 W/m 5,5 C 6,9 C 3,2 km/h (1 Bft) 100,00 %
04.11.2015 13:00 7,0 C 91 % 1023,8 hPa 0,0 l/m 2,3 km/h (1 Bft) W 281 1 min 0,127 mm 1,0 UV-I 248 W/m 5,6 C 7,0 C 3,2 km/h (1 Bft) 100,00 %
04.11.2015 13:01 6,9 C 90 % 1023,8 hPa 0,0 l/m 1,4 km/h (1 Bft) W 269 1 min 0,000 mm 1,0 UV-I 242 W/m 5,4 C 6,9 C 3,2 km/h (1 Bft) 100,00 %
04.11.2015 13:02 7,0 C 90 % 1023,8 hPa 0,0 l/m 2,0 km/h (1 Bft) S-SW 209 1 min 0,000 mm 1,0 UV-I 235 W/m 5,5 C 7,0 C 3,2 km/h (1 Bft) 100,00 %
04.11.2015 13:03 7,0 C 90 % 1023,7 hPa 0,0 l/m 2,5 km/h (1 Bft) S 177 0 min 0,000 mm 1,0 UV-I 212 W/m 5,5 C 7,0 C 4,8 km/h (1 Bft) 100,00 %
04.11.2015 13:04 7,1 C 91 % 1023,8 hPa 0,0 l/m 2,0 km/h (1 Bft) S-SW 201 1 min 0,000 mm 1,0 UV-I 278 W/m 5,7 C 7,1 C 3,2 km/h (1 Bft) 100,00 %
04.11.2015 13:05 7,1 C 90 % 1023,7 hPa 0,0 l/m 2,4 km/h (1 Bft) S-SW 201 1 min 0,000 mm 1,0 UV-I 276 W/m 5,6 C 7,1 C 3,2 km/h (1 Bft) 100,00 %
04.11.2015 13:06 7,2 C 90 % 1023,7 hPa 0,0 l/m 3,6 km/h (1 Bft) W-SW 240 1 min 0,000 mm 1,0 UV-I 277 W/m 5,7 C 7,2 C 4,8 km/h (1 Bft) 100,00 %
04.11.2015 13:07 7,2 C 90 % 1023,7 hPa 0,0 l/m 4,1 km/h (1 Bft) SW 223 1 min 0,000 mm 1,0 UV-I 252 W/m 5,7 C 7,2 C 4,8 km/h (1 Bft) 100,00 %
04.11.2015 13:08 7,2 C 89 % 1023,6 hPa 0,0 l/m 4,2 km/h (1 Bft) W-SW 247 1 min 0,000 mm 1,0 UV-I 245 W/m 5,5 C 7,2 C 6,4 km/h (2 Bft) 100,00 %
04.11.2015 13:09 7,2 C 89 % 1023,6 hPa 0,0 l/m 2,8 km/h (1 Bft) SW 226 1 min 0,000 mm 1,0 UV-I 248 W/m 5,5 C 7,2 C 4,8 km/h (1 Bft) 100,00 %
04.11.2015 13:10 7,2 C 90 % 1023,6 hPa 0,0 l/m 1,8 km/h (1 Bft) S-SW 206 1 min 0,000 mm 1,0 UV-I 251 W/m 5,7 C 7,2 C 3,2 km/h (1 Bft) 95,83 %
04.11.2015 13:11 7,3 C 91 % 1023,6 hPa 0,0 l/m 2,7 km/h (1 Bft) SW 219 1 min 0,000 mm 1,0 UV-I 265 W/m 5,9 C 7,3 C 4,8 km/h (1 Bft) 100,00 %
04.11.2015 13:12 7,3 C 89 % 1023,6 hPa 0,0 l/m 3,1 km/h (1 Bft) SW 219 1 min 0,000 mm 1,0 UV-I 243 W/m 5,6 C 7,3 C 4,8 km/h (1 Bft) 100,00 %
04.11.2015 13:13 7,3 C 89 % 1023,6 hPa 0,0 l/m 3,9 km/h (1 Bft) S 186 0 min 0,000 mm 1,0 UV-I 219 W/m 5,6 C 7,3 C 6,4 km/h (2 Bft) 96,15 %
04.11.2015 13:14 7,3 C 89 % 1023,6 hPa 0,0 l/m 2,5 km/h (1 Bft) S-SW 198 0 min 0,000 mm 0,9 UV-I 204 W/m 5,6 C 7,3 C 4,8 km/h (1 Bft) 100,00 %
04.11.2015 13:15 7,3 C 90 % 1023,6 hPa 0,0 l/m 3,2 km/h (1 Bft) S 190 1 min 0,000 mm 1,0 UV-I 235 W/m 5,8 C 7,3 C 4,8 km/h (1 Bft) 100,00 %
04.11.2015 13:16 7,3 C 90 % 1023,6 hPa 0,0 l/m 2,1 km/h (1 Bft) W-SW 237 1 min 0,000 mm 0,9 UV-I 232 W/m 5,8 C 7,3 C 4,8 km/h (1 Bft) 100,00 %
04.11.2015 13:17 7,4 C 90 % 1023,6 hPa 0,0 l/m 2,1 km/h (1 Bft) W 262 1 min 0,000 mm 1,0 UV-I 271 W/m 5,9 C 7,4 C 3,2 km/h (1 Bft) 100,00 %
04.11.2015 13:18 7,5 C 89 % 1023,6 hPa 0,0 l/m 1,7 km/h (1 Bft) W-SW 254 1 min 0,000 mm 1,0 UV-I 299 W/m 5,8 C 7,5 C 3,2 km/h (1 Bft) 100,00 %
04.11.2015 13:19 7,6 C 90 % 1023,6 hPa 0,0 l/m 2,0 km/h (1 Bft) S-SW 203 1 min 0,000 mm 1,0 UV-I 279 W/m 6,1 C 7,6 C 3,2 km/h (1 Bft) 100,00 %
04.11.2015 13:20 7,7 C 89 % 1023,6 hPa 0,0 l/m 3,4 km/h (1 Bft) SW 230 1 min 0,000 mm 1,0 UV-I 265 W/m 6,0 C 7,7 C 4,8 km/h (1 Bft) 100,00 %
04.11.2015 13:21 7,7 C 88 % 1023,6 hPa 0,0 l/m 2,8 km/h (1 Bft) SW 227 1 min 0,000 mm 1,0 UV-I 274 W/m 5,8 C 7,7 C 4,8 km/h (1 Bft) 100,00 %
04.11.2015 13:22 7,7 C 89 % 1023,6 hPa 0,0 l/m 2,6 km/h (1 Bft) S 180 1 min 0,000 mm 0,9 UV-I 264 W/m 6,0 C 7,7 C 6,4 km/h (2 Bft) 100,00 %
04.11.2015 13:23 7,7 C 88 % 1023,5 hPa 0,0 l/m 3,3 km/h (1 Bft) S-SW 194 1 min 0,000 mm 0,9 UV-I 258 W/m 5,8 C 7,7 C 4,8 km/h (1 Bft) 100,00 %
04.11.2015 13:24 7,7 C 88 % 1023,5 hPa 0,0 l/m 1,2 km/h (1 Bft) S-SW 194 1 min 0,000 mm 0,9 UV-I 258 W/m 5,8 C 7,7 C 1,6 km/h (1 Bft) 100,00 %
04.11.2015 13:25 7,7 C 88 % 1023,5 hPa 0,0 l/m 3,8 km/h (1 Bft) S-SW 201 1 min 0,000 mm 0,9 UV-I 264 W/m 5,8 C 7,7 C 4,8 km/h (1 Bft) 100,00 %
04.11.2015 13:26 7,8 C 88 % 1023,5 hPa 0,0 l/m 3,6 km/h (1 Bft) W-SW 252 1 min 0,000 mm 0,9 UV-I 270 W/m 5,9 C 7,8 C 6,4 km/h (2 Bft) 95,65 %
04.11.2015 13:27 7,8 C 88 % 1023,5 hPa 0,0 l/m 3,0 km/h (1 Bft) S-SW 209 1 min 0,000 mm 0,9 UV-I 282 W/m 5,9 C 7,8 C 4,8 km/h (1 Bft) 100,00 %
04.11.2015 13:28 7,8 C 88 % 1023,4 hPa 0,0 l/m 3,5 km/h (1 Bft) SW 234 1 min 0,000 mm 0,9 UV-I 297 W/m 5,9 C 7,8 C 6,4 km/h (2 Bft) 100,00 %
04.11.2015 13:29 7,9 C 88 % 1023,4 hPa 0,0 l/m 3,3 km/h (1 Bft) SW 219 1 min 0,000 mm 0,9 UV-I 283 W/m 6,0 C 7,9 C 6,4 km/h (2 Bft) 100,00 %
04.11.2015 13:30 7,9 C 87 % 1023,4 hPa 0,0 l/m 2,8 km/h (1 Bft) SW 219 1 min 0,000 mm 0,9 UV-I 270 W/m 5,9 C 7,9 C 4,8 km/h (1 Bft) 100,00 %
04.11.2015 13:31 7,9 C 88 % 1023,4 hPa 0,0 l/m 2,7 km/h (1 Bft) SW 219 1 min 0,000 mm 0,9 UV-I 285 W/m 6,0 C 7,9 C 4,8 km/h (1 Bft) 100,00 %
04.11.2015 13:32 8,0 C 87 % 1023,4 hPa 0,0 l/m 4,0 km/h (1 Bft) SW 231 1 min 0,000 mm 0,9 UV-I 305 W/m 6,0 C 8,0 C 4,8 km/h (1 Bft) 95,65 %
04.11.2015 13:33 8,1 C 87 % 1023,4 hPa 0,0 l/m 4,1 km/h (1 Bft) SW 223 1 min 0,000 mm 0,9 UV-I 303 W/m 6,1 C 8,1 C 6,4 km/h (2 Bft) 100,00 %
04.11.2015 13:34 8,1 C 87 % 1023,4 hPa 0,0 l/m 2,6 km/h (1 Bft) SW 226 1 min 0,000 mm 0,9 UV-I 317 W/m 6,1 C 8,1 C 4,8 km/h (1 Bft) 100,00 %
04.11.2015 13:35 8,2 C 87 % 1023,4 hPa 0,0 l/m 4,4 km/h (1 Bft) SW 231 1 min 0,000 mm 0,9 UV-I 294 W/m 6,2 C 8,2 C 6,4 km/h (2 Bft) 100,00 %
04.11.2015 13:36 8,2 C 87 % 1023,4 hPa 0,0 l/m 2,3 km/h (1 Bft) S 175 1 min 0,000 mm 0,9 UV-I 299 W/m 6,2 C 8,2 C 4,8 km/h (1 Bft) 100,00 %
04.11.2015 13:37 8,3 C 87 % 1023,4 hPa 0,0 l/m 3,6 km/h (1 Bft) SW 236 1 min 0,000 mm 0,9 UV-I 301 W/m 6,3 C 8,3 C 6,4 km/h (2 Bft) 100,00 %
04.11.2015 13:38 8,4 C 87 % 1023,4 hPa 0,0 l/m 3,4 km/h (1 Bft) W-SW 245 1 min 0,000 mm 0,9 UV-I 318 W/m 6,4 C 8,4 C 6,4 km/h (2 Bft) 92,31 %
04.11.2015 13:39 8,4 C 86 % 1023,4 hPa 0,0 l/m 2,4 km/h (1 Bft) W 269 1 min 0,000 mm 0,9 UV-I 343 W/m 6,2 C 8,4 C 4,8 km/h (1 Bft) 95,83 %
04.11.2015 13:40 8,6 C 87 % 1023,4 hPa 0,0 l/m 1,6 km/h (1 Bft) W 281 1 min 0,000 mm 0,9 UV-I 328 W/m 6,6 C 8,6 C 3,2 km/h (1 Bft) 100,00 %
04.11.2015 13:41 8,7 C 86 % 1023,4 hPa 0,0 l/m 2,3 km/h (1 Bft) SW 214 1 min 0,000 mm 0,9 UV-I 296 W/m 6,5 C 8,7 C 4,8 km/h (1 Bft) 91,67 %
04.11.2015 13:42 8,7 C 86 % 1023,4 hPa 0,0 l/m 4,4 km/h (1 Bft) SW 232 1 min 0,000 mm 0,9 UV-I 296 W/m 6,5 C 8,7 C 4,8 km/h (1 Bft) 100,00 %
04.11.2015 13:43 8,6 C 86 % 1023,4 hPa 0,0 l/m 2,3 km/h (1 Bft) SW 234 1 min 0,000 mm 0,9 UV-I 339 W/m 6,4 C 8,6 C 4,8 km/h (1 Bft) 100,00 %
04.11.2015 13:44 8,7 C 86 % 1023,4 hPa 0,0 l/m 1,2 km/h (1 Bft) S-SW 195 1 min 0,000 mm 0,9 UV-I 358 W/m 6,5 C 8,7 C 3,2 km/h (1 Bft) 100,00 %
04.11.2015 13:45 8,8 C 87 % 1023,4 hPa 0,0 l/m 3,6 km/h (1 Bft) S-SW 212 1 min 0,000 mm 0,9 UV-I 350 W/m 6,8 C 8,8 C 4,8 km/h (1 Bft) 100,00 %
04.11.2015 13:46 8,8 C 85 % 1023,4 hPa 0,0 l/m 2,5 km/h (1 Bft) S-SW 211 1 min 0,000 mm 0,9 UV-I 361 W/m 6,4 C 8,8 C 4,8 km/h (1 Bft) 95,83 %
04.11.2015 13:47 8,8 C 85 % 1023,3 hPa 0,0 l/m 1,6 km/h (1 Bft) S-SW 205 1 min 0,000 mm 0,9 UV-I 364 W/m 6,4 C 8,8 C 3,2 km/h (1 Bft) 100,00 %
04.11.2015 13:48 8,8 C 85 % 1023,3 hPa 0,0 l/m 4,2 km/h (1 Bft) SW 221 1 min 0,000 mm 0,9 UV-I 349 W/m 6,4 C 8,8 C 6,4 km/h (2 Bft) 95,83 %
04.11.2015 13:49 8,8 C 84 % 1023,3 hPa 0,0 l/m 4,1 km/h (1 Bft) S-SW 213 1 min 0,000 mm 0,9 UV-I 353 W/m 6,2 C 8,8 C 6,4 km/h (2 Bft) 100,00 %
04.11.2015 13:50 8,8 C 86 % 1023,3 hPa 0,0 l/m 2,9 km/h (1 Bft) SW 225 1 min 0,000 mm 0,9 UV-I 355 W/m 6,6 C 8,8 C 4,8 km/h (1 Bft) 100,00 %
04.11.2015 13:51 8,9 C 85 % 1023,3 hPa 0,0 l/m 3,5 km/h (1 Bft) SW 227 1 min 0,000 mm 0,9 UV-I 348 W/m 6,5 C 8,9 C 6,4 km/h (2 Bft) 100,00 %
04.11.2015 13:52 9,0 C 85 % 1023,3 hPa 0,0 l/m 3,9 km/h (1 Bft) SW 214 1 min 0,000 mm 0,8 UV-I 329 W/m 6,6 C 9,0 C 4,8 km/h (1 Bft) 100,00 %
04.11.2015 13:53 8,9 C 84 % 1023,3 hPa 0,0 l/m 3,9 km/h (1 Bft) SW 225 1 min 0,000 mm 0,8 UV-I 340 W/m 6,3 C 8,9 C 4,8 km/h (1 Bft) 100,00 %
04.11.2015 13:54 8,9 C 84 % 1023,3 hPa 0,0 l/m 2,3 km/h (1 Bft) SW 222 1 min 0,000 mm 0,8 UV-I 337 W/m 6,3 C 8,9 C 4,8 km/h (1 Bft) 100,00 %
04.11.2015 13:55 8,9 C 84 % 1023,2 hPa 0,0 l/m 3,4 km/h (1 Bft) W-SW 246 1 min 0,000 mm 0,8 UV-I 294 W/m 6,3 C 8,9 C 4,8 km/h (1 Bft) 100,00 %
04.11.2015 13:56 8,9 C 84 % 1023,2 hPa 0,0 l/m 3,5 km/h (1 Bft) S 184 1 min 0,000 mm 0,8 UV-I 271 W/m 6,3 C 8,9 C 4,8 km/h (1 Bft) 100,00 %
04.11.2015 13:57 8,9 C 85 % 1023,2 hPa 0,0 l/m 1,3 km/h (1 Bft) S 184 1 min 0,000 mm 0,8 UV-I 278 W/m 6,5 C 8,9 C 3,2 km/h (1 Bft) 100,00 %
04.11.2015 13:58 9,1 C 84 % 1023,2 hPa 0,0 l/m 2,0 km/h (1 Bft) W-SW 240 1 min 0,000 mm 0,8 UV-I 319 W/m 6,5 C 9,1 C 4,8 km/h (1 Bft) 100,00 %
04.11.2015 13:59 9,1 C 84 % 1023,2 hPa 0,0 l/m 3,8 km/h (1 Bft) SW 227 1 min 0,000 mm 0,8 UV-I 269 W/m 6,5 C 9,1 C 4,8 km/h (1 Bft) 100,00 %
04.11.2015 14:00 9,1 C 84 % 1023,2 hPa 0,0 l/m 3,3 km/h (1 Bft) W-SW 243 0 min 0,000 mm 0,7 UV-I 166 W/m 6,5 C 9,1 C 4,8 km/h (1 Bft) 100,00 %
04.11.2015 14:02 9,1 C 84 % 1023,2 hPa 0,0 l/m 2,2 km/h (1 Bft) W-SW 247 0 min 0,127 mm 0,6 UV-I 125 W/m 6,5 C 9,1 C 3,2 km/h (1 Bft) 100,00 %
04.11.2015 14:03 9,1 C 85 % 1023,2 hPa 0,0 l/m 1,2 km/h (1 Bft) W-SW 247 0 min 0,000 mm 0,6 UV-I 127 W/m 6,7 C 9,1 C 3,2 km/h (1 Bft) 100,00 %
04.11.2015 14:04 9,1 C 84 % 1023,2 hPa 0,0 l/m 4,3 km/h (1 Bft) SW 217 0 min 0,000 mm 0,6 UV-I 129 W/m 6,5 C 9,1 C 4,8 km/h (1 Bft) 100,00 %
04.11.2015 14:05 9,1 C 83 % 1023,2 hPa 0,0 l/m 4,3 km/h (1 Bft) SW 226 0 min 0,000 mm 0,6 UV-I 140 W/m 6,4 C 9,1 C 6,4 km/h (2 Bft) 100,00 %
04.11.2015 14:06 9,0 C 84 % 1023,2 hPa 0,0 l/m 3,7 km/h (1 Bft) SW 227 0 min 0,000 mm 0,6 UV-I 167 W/m 6,4 C 9,0 C 4,8 km/h (1 Bft) 100,00 %
04.11.2015 14:07 8,9 C 84 % 1023,2 hPa 0,0 l/m 3,6 km/h (1 Bft) SW 228 1 min 0,000 mm 0,6 UV-I 223 W/m 6,3 C 8,9 C 4,8 km/h (1 Bft) 100,00 %
04.11.2015 14:08 8,9 C 84 % 1023,2 hPa 0,0 l/m 4,0 km/h (1 Bft) SW 214 1 min 0,000 mm 0,6 UV-I 266 W/m 6,3 C 8,9 C 4,8 km/h (1 Bft) 100,00 %
04.11.2015 14:09 8,9 C 85 % 1023,2 hPa 0,0 l/m 3,3 km/h (1 Bft) S-SW 209 1 min 0,000 mm 0,6 UV-I 274 W/m 6,5 C 8,9 C 4,8 km/h (1 Bft) 100,00 %
04.11.2015 14:10 9,1 C 85 % 1023,2 hPa 0,0 l/m 1,9 km/h (1 Bft) SW 225 1 min 0,000 mm 0,6 UV-I 298 W/m 6,7 C 9,1 C 3,2 km/h (1 Bft) 100,00 %
04.11.2015 14:11 9,2 C 86 % 1023,2 hPa 0,0 l/m 2,1 km/h (1 Bft) W-SW 249 1 min 0,000 mm 0,6 UV-I 312 W/m 7,0 C 9,2 C 3,2 km/h (1 Bft) 100,00 %
04.11.2015 14:12 9,3 C 84 % 1023,2 hPa 0,0 l/m 3,9 km/h (1 Bft) S-SW 203 1 min 0,000 mm 0,6 UV-I 316 W/m 6,7 C 9,3 C 4,8 km/h (1 Bft) 100,00 %
04.11.2015 14:13 9,3 C 84 % 1023,2 hPa 0,0 l/m 2,3 km/h (1 Bft) S-SW 213 1 min 0,000 mm 0,6 UV-I 310 W/m 6,7 C 9,3 C 3,2 km/h (1 Bft) 100,00 %
04.11.2015 14:14 9,3 C 84 % 1023,1 hPa 0,0 l/m 2,7 km/h (1 Bft) S-SW 213 1 min 0,000 mm 0,6 UV-I 257 W/m 6,7 C 9,3 C 4,8 km/h (1 Bft) 100,00 %
04.11.2015 14:15 9,3 C 83 % 1023,1 hPa 0,0 l/m 2,7 km/h (1 Bft) SW 215 1 min 0,000 mm 0,6 UV-I 271 W/m 6,6 C 9,3 C 4,8 km/h (1 Bft) 100,00 %
04.11.2015 14:16 9,3 C 84 % 1023,1 hPa 0,0 l/m 2,2 km/h (1 Bft) S-SW 206 1 min 0,000 mm 0,6 UV-I 264 W/m 6,7 C 9,3 C 4,8 km/h (1 Bft) 100,00 %
04.11.2015 14:17 9,3 C 84 % 1023,1 hPa 0,0 l/m 2,4 km/h (1 Bft) S-SW 206 1 min 0,000 mm 0,6 UV-I 256 W/m 6,7 C 9,3 C 3,2 km/h (1 Bft) 100,00 %
04.11.2015 14:18 9,3 C 84 % 1023,1 hPa 0,0 l/m 1,9 km/h (1 Bft) W 260 1 min 0,000 mm 0,6 UV-I 250 W/m 6,7 C 9,3 C 4,8 km/h (1 Bft) 100,00 %
04.11.2015 14:19 9,3 C 83 % 1023,1 hPa 0,0 l/m 2,3 km/h (1 Bft) W-NW 290 1 min 0,000 mm 0,6 UV-I 230 W/m 6,6 C 9,3 C 3,2 km/h (1 Bft) 100,00 %
04.11.2015 14:20 9,4 C 83 % 1023,1 hPa 0,0 l/m 2,8 km/h (1 Bft) W-NW 282 1 min 0,000 mm 0,6 UV-I 196 W/m 6,7 C 9,4 C 4,8 km/h (1 Bft) 100,00 %
04.11.2015 14:21 9,4 C 83 % 1023,1 hPa 0,0 l/m 2,4 km/h (1 Bft) W-SW 248 1 min 0,000 mm 0,6 UV-I 221 W/m 6,7 C 9,4 C 4,8 km/h (1 Bft) 100,00 %
04.11.2015 14:22 9,4 C 83 % 1023,2 hPa 0,0 l/m 0,9 km/h (0 Bft) W-SW 239 1 min 0,000 mm 0,6 UV-I 255 W/m 6,7 C 9,4 C 3,2 km/h (1 Bft) 100,00 %
04.11.2015 14:23 9,4 C 83 % 1023,2 hPa 0,0 l/m 3,7 km/h (1 Bft) SW 221 1 min 0,000 mm 0,5 UV-I 198 W/m 6,7 C 9,4 C 6,4 km/h (2 Bft) 100,00 %
04.11.2015 14:24 9,4 C 83 % 1023,1 hPa 0,0 l/m 2,9 km/h (1 Bft) S-SW 202 0 min 0,000 mm 0,5 UV-I 145 W/m 6,7 C 9,4 C 4,8 km/h (1 Bft) 100,00 %
04.11.2015 14:25 9,4 C 82 % 1023,1 hPa 0,0 l/m 1,6 km/h (1 Bft) S-SW 197 0 min 0,000 mm 0,5 UV-I 133 W/m 6,5 C 9,4 C 3,2 km/h (1 Bft) 100,00 %
04.11.2015 14:26 9,3 C 83 % 1023,1 hPa 0,0 l/m 2,0 km/h (1 Bft) S 191 1 min 0,000 mm 0,5 UV-I 180 W/m 6,6 C 9,3 C 3,2 km/h (1 Bft) 100,00 %
04.11.2015 14:27 9,3 C 83 % 1023,1 hPa 0,0 l/m 2,2 km/h (1 Bft) S 170 1 min 0,000 mm 0,5 UV-I 181 W/m 6,6 C 9,3 C 3,2 km/h (1 Bft) 100,00 %
04.11.2015 14:28 9,3 C 83 % 1023,1 hPa 0,0 l/m 1,8 km/h (1 Bft) S-SO 163 1 min 0,000 mm 0,5 UV-I 198 W/m 6,6 C 9,3 C 3,2 km/h (1 Bft) 100,00 %
04.11.2015 14:29 9,3 C 82 % 1023,0 hPa 0,0 l/m 0,7 km/h (0 Bft) S-SO 163 1 min 0,000 mm 0,5 UV-I 189 W/m 6,4 C 9,3 C 1,6 km/h (1 Bft) 96,15 %
04.11.2015 14:30 9,4 C 84 % 1023,0 hPa 0,0 l/m 0,7 km/h (0 Bft) S-SO 163 1 min 0,000 mm 0,5 UV-I 177 W/m 6,8 C 9,4 C 1,6 km/h (1 Bft) 100,00 %
04.11.2015 14:31 9,5 C 83 % 1023,0 hPa 0,0 l/m 0,3 km/h (0 Bft) S-SO 163 1 min 0,000 mm 0,2 UV-I 172 W/m 6,8 C 9,5 C 1,6 km/h (1 Bft) 100,00 %
04.11.2015 14:32 9,6 C 83 % 1023,0 hPa 0,0 l/m 4,0 km/h (1 Bft) SW 233 1 min 0,000 mm 0,0 UV-I 162 W/m 6,9 C 9,6 C 4,8 km/h (1 Bft) 100,00 %
04.11.2015 14:33 9,6 C 83 % 1023,0 hPa 0,0 l/m 2,5 km/h (1 Bft) SW 222 0 min 0,000 mm 0,0 UV-I 154 W/m 6,9 C 9,6 C 4,8 km/h (1 Bft) 100,00 %
04.11.2015 14:34 9,5 C 82 % 1023,0 hPa 0,0 l/m 1,3 km/h (1 Bft) SW 222 0 min 0,000 mm 0,0 UV-I 150 W/m 6,6 C 9,5 C 1,6 km/h (1 Bft) 100,00 %
04.11.2015 14:35 9,4 C 82 % 1023,0 hPa 0,0 l/m 0,4 km/h (0 Bft) SW 222 0 min 0,000 mm 0,0 UV-I 146 W/m 6,5 C 9,4 C 1,6 km/h (1 Bft) 100,00 %
04.11.2015 14:36 9,5 C 83 % 1023,0 hPa 0,0 l/m 2,5 km/h (1 Bft) W 265 0 min 0,000 mm 0,0 UV-I 144 W/m 6,8 C 9,5 C 4,8 km/h (1 Bft) 100,00 %
04.11.2015 14:37 9,5 C 83 % 1023,0 hPa 0,0 l/m 1,6 km/h (1 Bft) W-SW 252 0 min 0,000 mm 0,0 UV-I 142 W/m 6,8 C 9,5 C 3,2 km/h (1 Bft) 100,00 %
04.11.2015 14:38 9,6 C 83 % 1023,0 hPa 0,0 l/m 1,3 km/h (1 Bft) W-SW 252 0 min 0,000 mm 0,0 UV-I 144 W/m 6,9 C 9,6 C 3,2 km/h (1 Bft) 100,00 %
04.11.2015 14:39 9,5 C 83 % 1023,0 hPa 0,0 l/m 2,0 km/h (1 Bft) W-SW 252 0 min 0,000 mm 0,0 UV-I 147 W/m 6,8 C 9,5 C 3,2 km/h (1 Bft) 100,00 %
04.11.2015 14:40 9,5 C 82 % 1022,9 hPa 0,0 l/m 1,7 km/h (1 Bft) W-SW 252 1 min 0,000 mm 0,0 UV-I 155 W/m 6,6 C 9,5 C 3,2 km/h (1 Bft) 100,00 %
04.11.2015 14:41 9,4 C 82 % 1022,9 hPa 0,0 l/m 2,0 km/h (1 Bft) W-SW 248 0 min 0,000 mm 0,0 UV-I 146 W/m 6,5 C 9,4 C 3,2 km/h (1 Bft) 96,15 %
04.11.2015 14:42 9,4 C 82 % 1022,9 hPa 0,0 l/m 1,9 km/h (1 Bft) W-SW 248 0 min 0,000 mm 0,0 UV-I 140 W/m 6,5 C 9,4 C 3,2 km/h (1 Bft) 100,00 %
04.11.2015 14:43 9,4 C 83 % 1022,9 hPa 0,0 l/m 0,9 km/h (0 Bft) W-SW 246 0 min 0,000 mm 0,0 UV-I 141 W/m 6,7 C 9,4 C 1,6 km/h (1 Bft) 100,00 %
04.11.2015 14:44 9,4 C 83 % 1022,9 hPa 0,0 l/m 1,4 km/h (1 Bft) SW 236 0 min 0,000 mm 0,0 UV-I 134 W/m 6,7 C 9,4 C 3,2 km/h (1 Bft) 100,00 %
04.11.2015 14:45 9,5 C 83 % 1022,9 hPa 0,0 l/m 0,8 km/h (0 Bft) SW 236 0 min 0,000 mm 0,0 UV-I 136 W/m 6,8 C 9,5 C 1,6 km/h (1 Bft) 100,00 %
04.11.2015 14:46 9,6 C 83 % 1022,9 hPa 0,0 l/m 2,3 km/h (1 Bft) S-SW 211 0 min 0,000 mm 0,0 UV-I 137 W/m 6,9 C 9,6 C 3,2 km/h (1 Bft) 100,00 %
04.11.2015 14:47 9,6 C 82 % 1022,9 hPa 0,0 l/m 3,7 km/h (1 Bft) SW 232 0 min 0,000 mm 0,0 UV-I 137 W/m 6,7 C 9,6 C 4,8 km/h (1 Bft) 100,00 %
04.11.2015 14:48 9,6 C 82 % 1022,9 hPa 0,0 l/m 1,9 km/h (1 Bft) SW 217 0 min 0,000 mm 0,0 UV-I 139 W/m 6,7 C 9,6 C 3,2 km/h (1 Bft) 100,00 %
04.11.2015 14:49 9,6 C 82 % 1022,9 hPa 0,0 l/m 3,7 km/h (1 Bft) SW 230 1 min 0,000 mm 0,0 UV-I 144 W/m 6,7 C 9,6 C 6,4 km/h (2 Bft) 100,00 %
04.11.2015 14:50 9,5 C 82 % 1022,9 hPa 0,0 l/m 3,2 km/h (1 Bft) W 277 1 min 0,000 mm 0,0 UV-I 159 W/m 6,6 C 9,5 C 4,8 km/h (1 Bft) 100,00 %
04.11.2015 14:51 9,6 C 83 % 1022,9 hPa 0,0 l/m 2,4 km/h (1 Bft) SW 227 1 min 0,000 mm 0,0 UV-I 182 W/m 6,9 C 9,6 C 4,8 km/h (1 Bft) 100,00 %
04.11.2015 14:52 9,6 C 83 % 1022,9 hPa 0,0 l/m 3,3 km/h (1 Bft) SW 219 1 min 0,000 mm 0,0 UV-I 218 W/m 6,9 C 9,6 C 4,8 km/h (1 Bft) 100,00 %
04.11.2015 14:53 9,6 C 83 % 1022,9 hPa 0,0 l/m 1,6 km/h (1 Bft) SW 217 1 min 0,000 mm 0,0 UV-I 223 W/m 6,9 C 9,6 C 3,2 km/h (1 Bft) 100,00 %
04.11.2015 14:54 9,6 C 83 % 1022,9 hPa 0,0 l/m 1,6 km/h (1 Bft) S-SW 204 1 min 0,000 mm 0,0 UV-I 197 W/m 6,9 C 9,6 C 3,2 km/h (1 Bft) 100,00 %
04.11.2015 14:55 9,7 C 83 % 1022,9 hPa 0,0 l/m 3,5 km/h (1 Bft) W-SW 257 1 min 0,000 mm 0,0 UV-I 182 W/m 7,0 C 9,7 C 4,8 km/h (1 Bft) 100,00 %
04.11.2015 14:56 9,7 C 82 % 1022,9 hPa 0,0 l/m 2,6 km/h (1 Bft) W-NW 299 1 min 0,000 mm 0,0 UV-I 175 W/m 6,8 C 9,7 C 3,2 km/h (1 Bft) 100,00 %
04.11.2015 14:57 9,7 C 82 % 1022,9 hPa 0,0 l/m 3,0 km/h (1 Bft) W 275 1 min 0,000 mm 0,0 UV-I 163 W/m 6,8 C 9,7 C 4,8 km/h (1 Bft) 100,00 %
04.11.2015 14:58 9,7 C 82 % 1022,9 hPa 0,0 l/m 1,5 km/h (1 Bft) W 275 1 min 0,000 mm 0,0 UV-I 154 W/m 6,8 C 9,7 C 3,2 km/h (1 Bft) 100,00 %
04.11.2015 14:59 9,7 C 83 % 1022,8 hPa 0,0 l/m 2,0 km/h (1 Bft) SW 217 1 min 0,000 mm 0,0 UV-I 153 W/m 7,0 C 9,7 C 3,2 km/h (1 Bft) 100,00 %
04.11.2015 15:00 9,7 C 82 % 1022,8 hPa 0,0 l/m 2,1 km/h (1 Bft) SW 215 1 min 0,076 mm 0,0 UV-I 138 W/m 6,8 C 9,7 C 3,2 km/h (1 Bft) 100,00 %
04.11.2015 15:01 9,7 C 82 % 1022,8 hPa 0,0 l/m 2,7 km/h (1 Bft) SW 215 1 min 0,000 mm 0,0 UV-I 150 W/m 6,8 C 9,7 C 4,8 km/h (1 Bft) 100,00 %
04.11.2015 15:02 9,7 C 82 % 1022,8 hPa 0,0 l/m 1,1 km/h (1 Bft) S-SW 192 1 min 0,000 mm 0,0 UV-I 151 W/m 6,8 C 9,7 C 3,2 km/h (1 Bft) 95,83 %
04.11.2015 15:03 9,7 C 83 % 1022,8 hPa 0,0 l/m 3,2 km/h (1 Bft) SW 218 1 min 0,000 mm 0,0 UV-I 143 W/m 7,0 C 9,7 C 4,8 km/h (1 Bft) 96,55 %
04.11.2015 15:04 9,7 C 82 % 1022,9 hPa 0,0 l/m 1,6 km/h (1 Bft) SW 224 0 min 0,000 mm 0,0 UV-I 120 W/m 6,8 C 9,7 C 3,2 km/h (1 Bft) 100,00 %
04.11.2015 15:05 9,7 C 83 % 1022,8 hPa 0,0 l/m 1,4 km/h (1 Bft) W-SW 249 0 min 0,000 mm 0,0 UV-I 115 W/m 7,0 C 9,7 C 3,2 km/h (1 Bft) 96,15 %
04.11.2015 15:06 9,7 C 82 % 1022,9 hPa 0,0 l/m 1,9 km/h (1 Bft) SW 219 1 min 0,000 mm 0,0 UV-I 126 W/m 6,8 C 9,7 C 3,2 km/h (1 Bft) 100,00 %
04.11.2015 15:07 9,7 C 83 % 1022,9 hPa 0,0 l/m 0,7 km/h (0 Bft) SW 219 1 min 0,000 mm 0,0 UV-I 121 W/m 7,0 C 9,7 C 3,2 km/h (1 Bft) 100,00 %
04.11.2015 15:08 9,7 C 83 % 1022,8 hPa 0,0 l/m 1,0 km/h (0 Bft) SW 219 0 min 0,000 mm 0,0 UV-I 119 W/m 7,0 C 9,7 C 1,6 km/h (1 Bft) 100,00 %
04.11.2015 15:09 9,7 C 84 % 1022,8 hPa 0,0 l/m 0,5 km/h (0 Bft) SW 219 0 min 0,000 mm 0,0 UV-I 111 W/m 7,1 C 9,7 C 1,6 km/h (1 Bft) 100,00 %
04.11.2015 15:10 9,7 C 83 % 1022,8 hPa 0,0 l/m 1,4 km/h (1 Bft) W 280 0 min 0,000 mm 0,0 UV-I 106 W/m 7,0 C 9,7 C 3,2 km/h (1 Bft) 95,83 %
04.11.2015 15:11 9,7 C 82 % 1022,8 hPa 0,0 l/m 2,2 km/h (1 Bft) W 274 0 min 0,000 mm 0,0 UV-I 103 W/m 6,8 C 9,7 C 3,2 km/h (1 Bft) 91,30 %
04.11.2015 15:12 9,7 C 82 % 1022,8 hPa 0,0 l/m 2,0 km/h (1 Bft) W 267 0 min 0,000 mm 0,0 UV-I 102 W/m 6,8 C 9,7 C 3,2 km/h (1 Bft) 100,00 %
04.11.2015 15:13 9,7 C 82 % 1022,8 hPa 0,0 l/m 1,9 km/h (1 Bft) W 267 0 min 0,000 mm 0,0 UV-I 100 W/m 6,8 C 9,7 C 3,2 km/h (1 Bft) 100,00 %
04.11.2015 15:14 9,7 C 83 % 1022,8 hPa 0,0 l/m 1,4 km/h (1 Bft) SW 229 0 min 0,000 mm 0,0 UV-I 97 W/m 7,0 C 9,7 C 3,2 km/h (1 Bft) 100,00 %
04.11.2015 15:15 9,6 C 83 % 1022,8 hPa 0,0 l/m 2,0 km/h (1 Bft) SW 229 0 min 0,000 mm 0,0 UV-I 93 W/m 6,9 C 9,6 C 3,2 km/h (1 Bft) 96,15 %
04.11.2015 15:16 9,6 C 83 % 1022,8 hPa 0,0 l/m 2,2 km/h (1 Bft) SW 228 0 min 0,000 mm 0,0 UV-I 89 W/m 6,9 C 9,6 C 3,2 km/h (1 Bft) 100,00 %
04.11.2015 15:17 9,6 C 83 % 1022,8 hPa 0,0 l/m 2,3 km/h (1 Bft) SW 228 0 min 0,000 mm 0,0 UV-I 85 W/m 6,9 C 9,6 C 3,2 km/h (1 Bft) 100,00 %
04.11.2015 15:18 9,6 C 83 % 1022,8 hPa 0,0 l/m 2,5 km/h (1 Bft) SW 228 0 min 0,000 mm 0,0 UV-I 82 W/m 6,9 C 9,6 C 3,2 km/h (1 Bft) 100,00 %
04.11.2015 15:19 9,6 C 84 % 1022,8 hPa 0,0 l/m 1,8 km/h (1 Bft) SW 228 0 min 0,000 mm 0,0 UV-I 77 W/m 7,0 C 9,6 C 3,2 km/h (1 Bft) 100,00 %
04.11.2015 15:20 9,6 C 83 % 1022,8 hPa 0,0 l/m 1,3 km/h (1 Bft) SW 228 0 min 0,000 mm 0,0 UV-I 76 W/m 6,9 C 9,6 C 3,2 km/h (1 Bft) 100,00 %
04.11.2015 15:21 9,6 C 84 % 1022,8 hPa 0,0 l/m 1,4 km/h (1 Bft) SW 227 0 min 0,000 mm 0,0 UV-I 73 W/m 7,0 C 9,6 C 3,2 km/h (1 Bft) 100,00 %
04.11.2015 15:22 9,5 C 83 % 1022,8 hPa 0,0 l/m 2,9 km/h (1 Bft) SW 227 0 min 0,000 mm 0,0 UV-I 71 W/m 6,8 C 9,5 C 4,8 km/h (1 Bft) 96,15 %
04.11.2015 15:23 9,5 C 83 % 1022,8 hPa 0,0 l/m 1,6 km/h (1 Bft) SW 225 0 min 0,000 mm 0,0 UV-I 69 W/m 6,8 C 9,5 C 3,2 km/h (1 Bft) 100,00 %
04.11.2015 15:24 9,5 C 83 % 1022,7 hPa 0,0 l/m 1,8 km/h (1 Bft) SW 223 0 min 0,000 mm 0,0 UV-I 69 W/m 6,8 C 9,5 C 3,2 km/h (1 Bft) 100,00 %
04.11.2015 15:25 9,5 C 83 % 1022,8 hPa 0,0 l/m 2,2 km/h (1 Bft) SW 223 0 min 0,000 mm 0,0 UV-I 67 W/m 6,8 C 9,5 C 3,2 km/h (1 Bft) 100,00 %
04.11.2015 15:26 9,4 C 83 % 1022,8 hPa 0,0 l/m 1,5 km/h (1 Bft) SW 218 0 min 0,000 mm 0,0 UV-I 67 W/m 6,7 C 9,4 C 3,2 km/h (1 Bft) 100,00 %
04.11.2015 15:27 9,4 C 84 % 1022,8 hPa 0,0 l/m 1,9 km/h (1 Bft) SW 218 0 min 0,000 mm 0,0 UV-I 67 W/m 6,8 C 9,4 C 3,2 km/h (1 Bft) 100,00 %
04.11.2015 15:28 9,4 C 83 % 1022,7 hPa 0,0 l/m 1,2 km/h (1 Bft) SW 218 0 min 0,000 mm 0,0 UV-I 67 W/m 6,7 C 9,4 C 1,6 km/h (1 Bft) 100,00 %
04.11.2015 15:29 9,5 C 84 % 1022,7 hPa 0,0 l/m 1,4 km/h (1 Bft) SW 218 0 min 0,000 mm 0,0 UV-I 67 W/m 6,9 C 9,5 C 3,2 km/h (1 Bft) 100,00 %
04.11.2015 15:30 9,5 C 83 % 1022,7 hPa 0,0 l/m 2,3 km/h (1 Bft) SW 218 0 min 0,000 mm 0,0 UV-I 67 W/m 6,8 C 9,5 C 3,2 km/h (1 Bft) 95,65 %
04.11.2015 15:31 9,5 C 84 % 1022,7 hPa 0,0 l/m 0,3 km/h (0 Bft) SW 218 0 min 0,000 mm 0,0 UV-I 67 W/m 6,9 C 9,5 C 1,6 km/h (1 Bft) 100,00 %
04.11.2015 15:32 9,5 C 85 % 1022,7 hPa 0,0 l/m 0,2 km/h (0 Bft) SW 218 0 min 0,000 mm 0,0 UV-I 65 W/m 7,1 C 9,5 C 1,6 km/h (1 Bft) 96,15 %
04.11.2015 15:33 9,5 C 84 % 1022,7 hPa 0,0 l/m 1,2 km/h (1 Bft) SW 218 0 min 0,000 mm 0,0 UV-I 64 W/m 6,9 C 9,5 C 3,2 km/h (1 Bft) 100,00 %
04.11.2015 15:34 9,5 C 83 % 1022,7 hPa 0,0 l/m 2,6 km/h (1 Bft) SW 215 0 min 0,000 mm 0,0 UV-I 63 W/m 6,8 C 9,5 C 3,2 km/h (1 Bft) 100,00 %
04.11.2015 15:35 9,5 C 83 % 1022,6 hPa 0,0 l/m 1,6 km/h (1 Bft) SW 215 0 min 0,000 mm 0,0 UV-I 62 W/m 6,8 C 9,5 C 3,2 km/h (1 Bft) 100,00 %
04.11.2015 15:36 9,4 C 83 % 1022,7 hPa 0,0 l/m 1,7 km/h (1 Bft) SW 215 0 min 0,000 mm 0,0 UV-I 62 W/m 6,7 C 9,4 C 3,2 km/h (1 Bft) 91,30 %
04.11.2015 15:37 9,4 C 83 % 1022,7 hPa 0,0 l/m 1,3 km/h (1 Bft) SW 215 0 min 0,000 mm 0,0 UV-I 62 W/m 6,7 C 9,4 C 1,6 km/h (1 Bft) 100,00 %
04.11.2015 15:38 9,4 C 83 % 1022,7 hPa 0,0 l/m 1,4 km/h (1 Bft) SW 215 0 min 0,000 mm 0,0 UV-I 60 W/m 6,7 C 9,4 C 3,2 km/h (1 Bft) 100,00 %
04.11.2015 15:39 9,4 C 84 % 1022,7 hPa 0,0 l/m 1,7 km/h (1 Bft) SW 215 0 min 0,000 mm 0,0 UV-I 59 W/m 6,8 C 9,4 C 3,2 km/h (1 Bft) 100,00 %
04.11.2015 15:40 9,4 C 84 % 1022,7 hPa 0,0 l/m 1,9 km/h (1 Bft) SW 215 0 min 0,000 mm 0,0 UV-I 58 W/m 6,8 C 9,4 C 3,2 km/h (1 Bft) 100,00 %
04.11.2015 15:41 9,4 C 84 % 1022,7 hPa 0,0 l/m 1,3 km/h (1 Bft) SW 215 0 min 0,000 mm 0,0 UV-I 58 W/m 6,8 C 9,4 C 3,2 km/h (1 Bft) 100,00 %
04.11.2015 15:42 9,4 C 84 % 1022,6 hPa 0,0 l/m 1,5 km/h (1 Bft) SW 215 0 min 0,000 mm 0,0 UV-I 58 W/m 6,8 C 9,4 C 3,2 km/h (1 Bft) 100,00 %
04.11.2015 15:43 9,4 C 84 % 1022,6 hPa 0,0 l/m 2,1 km/h (1 Bft) SW 215 0 min 0,000 mm 0,0 UV-I 58 W/m 6,8 C 9,4 C 3,2 km/h (1 Bft) 100,00 %
04.11.2015 15:44 9,4 C 84 % 1022,6 hPa 0,0 l/m 1,0 km/h (0 Bft) SW 215 0 min 0,000 mm 0,0 UV-I 57 W/m 6,8 C 9,4 C 1,6 km/h (1 Bft) 100,00 %
04.11.2015 15:45 9,4 C 84 % 1022,6 hPa 0,0 l/m 1,6 km/h (1 Bft) SW 215 0 min 0,000 mm 0,0 UV-I 56 W/m 6,8 C 9,4 C 3,2 km/h (1 Bft) 100,00 %
04.11.2015 15:46 9,4 C 84 % 1022,6 hPa 0,0 l/m 0,9 km/h (0 Bft) SW 215 0 min 0,000 mm 0,0 UV-I 56 W/m 6,8 C 9,4 C 1,6 km/h (1 Bft) 100,00 %
04.11.2015 15:47 9,4 C 84 % 1022,6 hPa 0,0 l/m 2,2 km/h (1 Bft) SW 215 0 min 0,000 mm 0,0 UV-I 54 W/m 6,8 C 9,4 C 3,2 km/h (1 Bft) 100,00 %
04.11.2015 15:48 9,4 C 84 % 1022,5 hPa 0,0 l/m 2,1 km/h (1 Bft) SW 215 0 min 0,000 mm 0,0 UV-I 54 W/m 6,8 C 9,4 C 3,2 km/h (1 Bft) 100,00 %
04.11.2015 15:49 9,4 C 84 % 1022,5 hPa 0,0 l/m 1,7 km/h (1 Bft) SW 215 0 min 0,000 mm 0,0 UV-I 53 W/m 6,8 C 9,4 C 3,2 km/h (1 Bft) 100,00 %
04.11.2015 15:50 9,4 C 84 % 1022,6 hPa 0,0 l/m 1,9 km/h (1 Bft) SW 215 0 min 0,000 mm 0,0 UV-I 52 W/m 6,8 C 9,4 C 3,2 km/h (1 Bft) 100,00 %
04.11.2015 15:51 9,4 C 85 % 1022,6 hPa 0,0 l/m 0,7 km/h (0 Bft) SW 215 0 min 0,000 mm 0,0 UV-I 50 W/m 7,0 C 9,4 C 1,6 km/h (1 Bft) 95,65 %
04.11.2015 15:52 9,4 C 85 % 1022,6 hPa 0,0 l/m 0,7 km/h (0 Bft) SW 215 0 min 0,000 mm 0,0 UV-I 49 W/m 7,0 C 9,4 C 3,2 km/h (1 Bft) 100,00 %
04.11.2015 15:53 9,4 C 84 % 1022,6 hPa 0,0 l/m 2,9 km/h (1 Bft) SW 215 0 min 0,000 mm 0,0 UV-I 47 W/m 6,8 C 9,4 C 3,2 km/h (1 Bft) 100,00 %
04.11.2015 15:54 9,4 C 84 % 1022,6 hPa 0,0 l/m 3,8 km/h (1 Bft) SW 219 0 min 0,000 mm 0,0 UV-I 46 W/m 6,8 C 9,4 C 4,8 km/h (1 Bft) 100,00 %
04.11.2015 15:55 9,4 C 84 % 1022,6 hPa 0,0 l/m 2,0 km/h (1 Bft) SW 219 0 min 0,000 mm 0,0 UV-I 44 W/m 6,8 C 9,4 C 3,2 km/h (1 Bft) 100,00 %
04.11.2015 15:56 9,4 C 84 % 1022,5 hPa 0,0 l/m 1,1 km/h (1 Bft) SW 219 0 min 0,000 mm 0,0 UV-I 43 W/m 6,8 C 9,4 C 1,6 km/h (1 Bft) 100,00 %
04.11.2015 15:57 9,3 C 84 % 1022,5 hPa 0,0 l/m 1,4 km/h (1 Bft) SW 219 0 min 0,000 mm 0,0 UV-I 42 W/m 6,7 C 9,3 C 1,6 km/h (1 Bft) 100,00 %
04.11.2015 15:58 9,3 C 85 % 1022,5 hPa 0,0 l/m 0,6 km/h (0 Bft) SW 219 0 min 0,000 mm 0,0 UV-I 41 W/m 6,9 C 9,3 C 1,6 km/h (1 Bft) 100,00 %
04.11.2015 15:59 9,3 C 84 % 1022,6 hPa 0,0 l/m 1,6 km/h (1 Bft) SW 219 0 min 0,000 mm 0,0 UV-I 40 W/m 6,7 C 9,3 C 3,2 km/h (1 Bft) 100,00 %
04.11.2015 16:00 9,3 C 85 % 1022,5 hPa 0,0 l/m 0,5 km/h (0 Bft) SW 219 0 min 0,025 mm 0,0 UV-I 39 W/m 6,9 C 9,3 C 1,6 km/h (1 Bft) 100,00 %
04.11.2015 16:01 9,2 C 85 % 1022,5 hPa 0,0 l/m 0,1 km/h (0 Bft) SW 219 0 min 0,000 mm 0,0 UV-I 39 W/m 6,8 C 9,2 C 1,6 km/h (1 Bft) 100,00 %
04.11.2015 16:02 9,2 C 85 % 1022,6 hPa 0,0 l/m 0,3 km/h (0 Bft) SW 219 0 min 0,000 mm 0,0 UV-I 37 W/m 6,8 C 9,2 C 1,6 km/h (1 Bft) 100,00 %
04.11.2015 16:03 9,2 C 85 % 1022,6 hPa 0,0 l/m 1,2 km/h (1 Bft) SW 219 0 min 0,000 mm 0,0 UV-I 36 W/m 6,8 C 9,2 C 1,6 km/h (1 Bft) 93,33 %
04.11.2015 16:04 9,2 C 85 % 1022,6 hPa 0,0 l/m 0,9 km/h (0 Bft) SW 219 0 min 0,000 mm 0,0 UV-I 35 W/m 6,8 C 9,2 C 1,6 km/h (1 Bft) 100,00 %
04.11.2015 16:05 9,2 C 86 % 1022,6 hPa 0,0 l/m 1,4 km/h (1 Bft) SW 219 0 min 0,000 mm 0,0 UV-I 33 W/m 7,0 C 9,2 C 3,2 km/h (1 Bft) 100,00 %
04.11.2015 16:06 9,2 C 85 % 1022,6 hPa 0,0 l/m 1,6 km/h (1 Bft) SW 219 0 min 0,000 mm 0,0 UV-I 33 W/m 6,8 C 9,2 C 3,2 km/h (1 Bft) 100,00 %
04.11.2015 16:07 9,1 C 86 % 1022,5 hPa 0,0 l/m 1,6 km/h (1 Bft) SW 219 0 min 0,000 mm 0,0 UV-I 32 W/m 6,9 C 9,1 C 3,2 km/h (1 Bft) 100,00 %
04.11.2015 16:08 9,1 C 85 % 1022,5 hPa 0,0 l/m 1,5 km/h (1 Bft) SW 219 0 min 0,000 mm 0,0 UV-I 31 W/m 6,7 C 9,1 C 1,6 km/h (1 Bft) 100,00 %
04.11.2015 16:09 9,1 C 86 % 1022,5 hPa 0,0 l/m 1,0 km/h (0 Bft) SW 219 0 min 0,000 mm 0,0 UV-I 30 W/m 6,9 C 9,1 C 1,6 km/h (1 Bft) 100,00 %
04.11.2015 16:10 9,1 C 86 % 1022,5 hPa 0,0 l/m 1,6 km/h (1 Bft) SW 219 0 min 0,000 mm 0,0 UV-I 29 W/m 6,9 C 9,1 C 3,2 km/h (1 Bft) 100,00 %
04.11.2015 16:11 9,1 C 86 % 1022,5 hPa 0,0 l/m 0,7 km/h (0 Bft) SW 219 0 min 0,000 mm 0,0 UV-I 28 W/m 6,9 C 9,1 C 1,6 km/h (1 Bft) 100,00 %
04.11.2015 16:12 9,0 C 86 % 1022,5 hPa 0,0 l/m 1,7 km/h (1 Bft) SW 219 0 min 0,000 mm 0,0 UV-I 26 W/m 6,8 C 9,0 C 3,2 km/h (1 Bft) 100,00 %
04.11.2015 16:13 9,0 C 86 % 1022,5 hPa 0,0 l/m 1,9 km/h (1 Bft) SW 219 0 min 0,000 mm 0,0 UV-I 26 W/m 6,8 C 9,0 C 3,2 km/h (1 Bft) 100,00 %
04.11.2015 16:14 9,0 C 86 % 1022,5 hPa 0,0 l/m 2,3 km/h (1 Bft) SW 219 0 min 0,000 mm 0,0 UV-I 25 W/m 6,8 C 9,0 C 3,2 km/h (1 Bft) 100,00 %
04.11.2015 16:15 9,0 C 86 % 1022,5 hPa 0,0 l/m 1,5 km/h (1 Bft) SW 219 0 min 0,000 mm 0,0 UV-I 24 W/m 6,8 C 9,0 C 3,2 km/h (1 Bft) 100,00 %
04.11.2015 16:16 8,9 C 86 % 1022,5 hPa 0,0 l/m 1,3 km/h (1 Bft) SW 219 0 min 0,000 mm 0,0 UV-I 23 W/m 6,7 C 8,9 C 1,6 km/h (1 Bft) 100,00 %
04.11.2015 16:17 8,9 C 86 % 1022,5 hPa 0,0 l/m 0,8 km/h (0 Bft) SW 219 0 min 0,000 mm 0,0 UV-I 21 W/m 6,7 C 8,9 C 1,6 km/h (1 Bft) 100,00 %
04.11.2015 16:18 8,9 C 86 % 1022,5 hPa 0,0 l/m 1,3 km/h (1 Bft) SW 219 0 min 0,000 mm 0,0 UV-I 21 W/m 6,7 C 8,9 C 3,2 km/h (1 Bft) 100,00 %
04.11.2015 16:19 8,9 C 86 % 1022,5 hPa 0,0 l/m 0,9 km/h (0 Bft) SW 219 0 min 0,000 mm 0,0 UV-I 19 W/m 6,7 C 8,9 C 3,2 km/h (1 Bft) 100,00 %
04.11.2015 16:20 8,9 C 86 % 1022,4 hPa 0,0 l/m 1,1 km/h (1 Bft) SW 219 0 min 0,000 mm 0,0 UV-I 19 W/m 6,7 C 8,9 C 1,6 km/h (1 Bft) 100,00 %
04.11.2015 16:21 8,9 C 86 % 1022,5 hPa 0,0 l/m 0,9 km/h (0 Bft) SW 219 0 min 0,000 mm 0,0 UV-I 18 W/m 6,7 C 8,9 C 1,6 km/h (1 Bft) 95,65 %
04.11.2015 16:22 8,8 C 86 % 1022,5 hPa 0,0 l/m 0,8 km/h (0 Bft) SW 219 0 min 0,000 mm 0,0 UV-I 17 W/m 6,6 C 8,8 C 1,6 km/h (1 Bft) 100,00 %
04.11.2015 16:23 8,8 C 86 % 1022,5 hPa 0,0 l/m 0,9 km/h (0 Bft) SW 219 0 min 0,000 mm 0,0 UV-I 16 W/m 6,6 C 8,8 C 1,6 km/h (1 Bft) 100,00 %
04.11.2015 16:24 8,8 C 87 % 1022,5 hPa 0,0 l/m 0,7 km/h (0 Bft) SW 219 0 min 0,000 mm 0,0 UV-I 14 W/m 6,8 C 8,8 C 1,6 km/h (1 Bft) 100,00 %
04.11.2015 16:25 8,8 C 87 % 1022,5 hPa 0,0 l/m 0,7 km/h (0 Bft) SW 219 0 min 0,000 mm 0,0 UV-I 13 W/m 6,8 C 8,8 C 1,6 km/h (1 Bft) 100,00 %
04.11.2015 16:26 8,8 C 87 % 1022,5 hPa 0,0 l/m 0,4 km/h (0 Bft) SW 219 0 min 0,000 mm 0,0 UV-I 12 W/m 6,8 C 8,8 C 1,6 km/h (1 Bft) 100,00 %
04.11.2015 16:27 8,8 C 87 % 1022,5 hPa 0,0 l/m 1,3 km/h (1 Bft) SW 219 0 min 0,000 mm 0,0 UV-I 11 W/m 6,8 C 8,8 C 3,2 km/h (1 Bft) 100,00 %
04.11.2015 16:28 8,7 C 87 % 1022,5 hPa 0,0 l/m 0,0 km/h (0 Bft) SW 219 0 min 0,000 mm 0,0 UV-I 11 W/m 6,7 C 8,7 C 0,0 km/h (0 Bft) 100,00 %
04.11.2015 16:29 8,7 C 87 % 1022,5 hPa 0,0 l/m 0,4 km/h (0 Bft) SW 219 1 min 0,000 mm 0,0 UV-I 11 W/m 6,7 C 8,7 C 1,6 km/h (1 Bft) 100,00 %
04.11.2015 16:30 8,7 C 87 % 1022,4 hPa 0,0 l/m 0,2 km/h (0 Bft) SW 219 1 min 0,000 mm 0,0 UV-I 9 W/m 6,7 C 8,7 C 1,6 km/h (1 Bft) 95,83 %
04.11.2015 16:31 8,6 C 87 % 1022,5 hPa 0,0 l/m 1,1 km/h (1 Bft) SW 219 0 min 0,000 mm 0,0 UV-I 8 W/m 6,6 C 8,6 C 1,6 km/h (1 Bft) 100,00 %
04.11.2015 16:32 8,6 C 87 % 1022,5 hPa 0,0 l/m 0,1 km/h (0 Bft) SW 219 0 min 0,000 mm 0,0 UV-I 7 W/m 6,6 C 8,6 C 1,6 km/h (1 Bft) 100,00 %
04.11.2015 16:33 8,6 C 87 % 1022,4 hPa 0,0 l/m 0,1 km/h (0 Bft) SW 219 0 min 0,000 mm 0,0 UV-I 7 W/m 6,6 C 8,6 C 1,6 km/h (1 Bft) 86,96 %
04.11.2015 16:34 8,6 C 88 % 1022,4 hPa 0,0 l/m 0,6 km/h (0 Bft) SW 219 0 min 0,000 mm 0,0 UV-I 7 W/m 6,7 C 8,6 C 1,6 km/h (1 Bft) 100,00 %
04.11.2015 16:35 8,5 C 88 % 1022,4 hPa 0,0 l/m 0,4 km/h (0 Bft) SW 219 0 min 0,000 mm 0,0 UV-I 5 W/m 6,6 C 8,5 C 1,6 km/h (1 Bft) 100,00 %
04.11.2015 16:36 8,5 C 88 % 1022,4 hPa 0,0 l/m 0,0 km/h (0 Bft) SW 219 0 min 0,000 mm 0,0 UV-I 5 W/m 6,6 C 8,5 C 0,0 km/h (0 Bft) 100,00 %
04.11.2015 16:37 8,4 C 88 % 1022,4 hPa 0,0 l/m 0,9 km/h (0 Bft) SW 219 0 min 0,000 mm 0,0 UV-I 5 W/m 6,5 C 8,4 C 1,6 km/h (1 Bft) 100,00 %
04.11.2015 16:38 8,4 C 88 % 1022,3 hPa 0,0 l/m 0,2 km/h (0 Bft) SW 219 0 min 0,000 mm 0,0 UV-I 5 W/m 6,5 C 8,4 C 1,6 km/h (1 Bft) 96,15 %
04.11.2015 16:39 8,4 C 88 % 1022,3 hPa 0,0 l/m 1,1 km/h (1 Bft) SW 219 0 min 0,000 mm 0,0 UV-I 1 W/m 6,5 C 8,4 C 3,2 km/h (1 Bft) 100,00 %
04.11.2015 16:40 8,4 C 88 % 1022,3 hPa 0,0 l/m 1,5 km/h (1 Bft) SW 219 0 min 0,000 mm 0,0 UV-I 0 W/m 6,5 C 8,4 C 3,2 km/h (1 Bft) 95,83 %
04.11.2015 16:41 8,4 C 88 % 1022,3 hPa 0,0 l/m 1,3 km/h (1 Bft) SW 219 0 min 0,000 mm 0,0 UV-I 0 W/m 6,5 C 8,4 C 3,2 km/h (1 Bft) 100,00 %
04.11.2015 16:42 8,4 C 88 % 1022,2 hPa 0,0 l/m 0,9 km/h (0 Bft) SW 219 0 min 0,000 mm 0,0 UV-I 0 W/m 6,5 C 8,4 C 1,6 km/h (1 Bft) 100,00 %
04.11.2015 16:43 8,3 C 88 % 1022,2 hPa 0,0 l/m 1,3 km/h (1 Bft) SW 219 0 min 0,000 mm 0,0 UV-I 0 W/m 6,4 C 8,3 C 3,2 km/h (1 Bft) 100,00 %
04.11.2015 16:44 8,3 C 88 % 1022,3 hPa 0,0 l/m 1,1 km/h (1 Bft) S 190 0 min 0,000 mm 0,0 UV-I 0 W/m 6,4 C 8,3 C 1,6 km/h (1 Bft) 100,00 %
04.11.2015 16:45 8,3 C 88 % 1022,3 hPa 0,0 l/m 1,8 km/h (1 Bft) S 173 0 min 0,000 mm 0,0 UV-I 0 W/m 6,4 C 8,3 C 3,2 km/h (1 Bft) 100,00 %
04.11.2015 16:46 8,2 C 88 % 1022,3 hPa 0,0 l/m 1,2 km/h (1 Bft) S 173 0 min 0,000 mm 0,0 UV-I 0 W/m 6,3 C 8,2 C 1,6 km/h (1 Bft) 95,65 %
04.11.2015 16:47 8,2 C 88 % 1022,3 hPa 0,0 l/m 0,1 km/h (0 Bft) S 173 0 min 0,000 mm 0,0 UV-I 0 W/m 6,3 C 8,2 C 1,6 km/h (1 Bft) 100,00 %
04.11.2015 16:48 8,1 C 88 % 1022,4 hPa 0,0 l/m 0,0 km/h (0 Bft) S 173 0 min 0,000 mm 0,0 UV-I 0 W/m 6,2 C 8,1 C 0,0 km/h (0 Bft) 100,00 %
04.11.2015 16:49 8,0 C 89 % 1022,4 hPa 0,0 l/m 0,0 km/h (0 Bft) S 173 0 min 0,000 mm 0,0 UV-I 0 W/m 6,3 C 8,0 C 0,0 km/h (0 Bft) 100,00 %
04.11.2015 16:50 7,9 C 89 % 1022,4 hPa 0,0 l/m 0,0 km/h (0 Bft) S 173 0 min 0,000 mm 0,0 UV-I 0 W/m 6,2 C 7,9 C 0,0 km/h (0 Bft) 100,00 %
04.11.2015 16:51 7,9 C 89 % 1022,4 hPa 0,0 l/m 0,1 km/h (0 Bft) S 173 0 min 0,000 mm 0,0 UV-I 0 W/m 6,2 C 7,9 C 1,6 km/h (1 Bft) 100,00 %
04.11.2015 16:52 7,9 C 89 % 1022,3 hPa 0,0 l/m 0,4 km/h (0 Bft) S 173 0 min 0,000 mm 0,0 UV-I 0 W/m 6,2 C 7,9 C 1,6 km/h (1 Bft) 100,00 %
04.11.2015 16:53 7,9 C 89 % 1022,3 hPa 0,0 l/m 0,1 km/h (0 Bft) S 173 0 min 0,000 mm 0,0 UV-I 0 W/m 6,2 C 7,9 C 1,6 km/h (1 Bft) 100,00 %
04.11.2015 16:54 7,9 C 90 % 1022,3 hPa 0,0 l/m 0,8 km/h (0 Bft) S 173 0 min 0,000 mm 0,0 UV-I 0 W/m 6,4 C 7,9 C 1,6 km/h (1 Bft) 100,00 %
04.11.2015 16:55 7,9 C 90 % 1022,4 hPa 0,0 l/m 0,6 km/h (0 Bft) S 173 0 min 0,000 mm 0,0 UV-I 0 W/m 6,4 C 7,9 C 1,6 km/h (1 Bft) 96,30 %
04.11.2015 16:56 7,9 C 89 % 1022,3 hPa 0,0 l/m 1,1 km/h (1 Bft) S 173 0 min 0,000 mm 0,0 UV-I 0 W/m 6,2 C 7,9 C 1,6 km/h (1 Bft) 100,00 %
04.11.2015 16:57 7,9 C 89 % 1022,3 hPa 0,0 l/m 0,3 km/h (0 Bft) S 173 0 min 0,000 mm 0,0 UV-I 0 W/m 6,2 C 7,9 C 1,6 km/h (1 Bft) 100,00 %
04.11.2015 16:58 8,0 C 89 % 1022,3 hPa 0,0 l/m 0,4 km/h (0 Bft) S 173 0 min 0,000 mm 0,0 UV-I 0 W/m 6,3 C 8,0 C 1,6 km/h (1 Bft) 100,00 %
04.11.2015 16:59 8,0 C 89 % 1022,3 hPa 0,0 l/m 1,6 km/h (1 Bft) S 185 0 min 0,000 mm 0,0 UV-I 0 W/m 6,3 C 8,0 C 3,2 km/h (1 Bft) 100,00 %
04.11.2015 17:00 8,0 C 89 % 1022,3 hPa 0,0 l/m 0,8 km/h (0 Bft) S 185 0 min 0,000 mm 0,0 UV-I 0 W/m 6,3 C 8,0 C 1,6 km/h (1 Bft) 100,00 %
04.11.2015 17:01 7,9 C 89 % 1022,4 hPa 0,0 l/m 0,0 km/h (0 Bft) S 185 0 min 0,000 mm 0,0 UV-I 0 W/m 6,2 C 7,9 C 0,0 km/h (0 Bft) 100,00 %
04.11.2015 17:02 7,9 C 89 % 1022,3 hPa 0,0 l/m 0,0 km/h (0 Bft) S 185 0 min 0,000 mm 0,0 UV-I 0 W/m 6,2 C 7,9 C 0,0 km/h (0 Bft) 100,00 %
04.11.2015 17:03 7,9 C 89 % 1022,4 hPa 0,0 l/m 0,1 km/h (0 Bft) S 185 0 min 0,000 mm 0,0 UV-I 0 W/m 6,2 C 7,9 C 1,6 km/h (1 Bft) 100,00 %
04.11.2015 17:04 7,8 C 89 % 1022,4 hPa 0,0 l/m 0,0 km/h (0 Bft) S 185 0 min 0,000 mm 0,0 UV-I 0 W/m 6,1 C 7,8 C 0,0 km/h (0 Bft) 100,00 %
04.11.2015 17:05 7,8 C 89 % 1022,4 hPa 0,0 l/m 0,0 km/h (0 Bft) S 185 0 min 0,000 mm 0,0 UV-I 0 W/m 6,1 C 7,8 C 0,0 km/h (0 Bft) 100,00 %
04.11.2015 17:06 7,7 C 89 % 1022,4 hPa 0,0 l/m 0,0 km/h (0 Bft) S 185 0 min 0,000 mm 0,0 UV-I 0 W/m 6,0 C 7,7 C 0,0 km/h (0 Bft) 95,83 %
04.11.2015 17:07 7,6 C 89 % 1022,4 hPa 0,0 l/m 0,0 km/h (0 Bft) S 185 0 min 0,000 mm 0,0 UV-I 0 W/m 5,9 C 7,6 C 0,0 km/h (0 Bft) 100,00 %
04.11.2015 17:08 7,6 C 90 % 1022,4 hPa 0,0 l/m 0,0 km/h (0 Bft) S 185 0 min 0,000 mm 0,0 UV-I 0 W/m 6,1 C 7,6 C 0,0 km/h (0 Bft) 100,00 %
04.11.2015 17:09 7,6 C 90 % 1022,4 hPa 0,0 l/m 0,0 km/h (0 Bft) S 185 0 min 0,000 mm 0,0 UV-I 0 W/m 6,1 C 7,6 C 0,0 km/h (0 Bft) 100,00 %
04.11.2015 17:10 7,7 C 90 % 1022,4 hPa 0,0 l/m 0,3 km/h (0 Bft) S 185 0 min 0,000 mm 0,0 UV-I 0 W/m 6,2 C 7,7 C 1,6 km/h (1 Bft) 100,00 %
04.11.2015 17:11 7,7 C 90 % 1022,5 hPa 0,0 l/m 0,0 km/h (0 Bft) S 185 0 min 0,000 mm 0,0 UV-I 0 W/m 6,2 C 7,7 C 0,0 km/h (0 Bft) 95,65 %
04.11.2015 17:12 7,7 C 90 % 1022,4 hPa 0,0 l/m 0,5 km/h (0 Bft) S 185 0 min 0,000 mm 0,0 UV-I 0 W/m 6,2 C 7,7 C 1,6 km/h (1 Bft) 100,00 %
04.11.2015 17:13 7,7 C 90 % 1022,4 hPa 0,0 l/m 1,0 km/h (0 Bft) S 185 0 min 0,000 mm 0,0 UV-I 0 W/m 6,2 C 7,7 C 1,6 km/h (1 Bft) 100,00 %
04.11.2015 17:14 7,7 C 90 % 1022,5 hPa 0,0 l/m 0,7 km/h (0 Bft) S 185 0 min 0,000 mm 0,0 UV-I 0 W/m 6,2 C 7,7 C 1,6 km/h (1 Bft) 100,00 %
04.11.2015 17:15 7,7 C 90 % 1022,4 hPa 0,0 l/m 1,0 km/h (0 Bft) S 185 0 min 0,000 mm 0,0 UV-I 0 W/m 6,2 C 7,7 C 1,6 km/h (1 Bft) 100,00 %
04.11.2015 17:16 7,7 C 90 % 1022,4 hPa 0,0 l/m 0,9 km/h (0 Bft) S 185 0 min 0,000 mm 0,0 UV-I 0 W/m 6,2 C 7,7 C 1,6 km/h (1 Bft) 100,00 %
04.11.2015 17:17 7,7 C 90 % 1022,5 hPa 0,0 l/m 0,9 km/h (0 Bft) S 185 0 min 0,000 mm 0,0 UV-I 0 W/m 6,2 C 7,7 C 1,6 km/h (1 Bft) 95,65 %
04.11.2015 17:18 7,8 C 90 % 1022,5 hPa 0,0 l/m 0,1 km/h (0 Bft) S 185 0 min 0,000 mm 0,0 UV-I 0 W/m 6,3 C 7,8 C 1,6 km/h (1 Bft) 100,00 %
04.11.2015 17:19 7,8 C 90 % 1022,4 hPa 0,0 l/m 0,3 km/h (0 Bft) S 185 0 min 0,000 mm 0,0 UV-I 0 W/m 6,3 C 7,8 C 1,6 km/h (1 Bft) 95,65 %
04.11.2015 17:20 7,8 C 90 % 1022,5 hPa 0,0 l/m 0,5 km/h (0 Bft) S 185 0 min 0,000 mm 0,0 UV-I 0 W/m 6,3 C 7,8 C 1,6 km/h (1 Bft) 100,00 %
04.11.2015 17:21 7,8 C 90 % 1022,5 hPa 0,0 l/m 0,9 km/h (0 Bft) S 185 0 min 0,000 mm 0,0 UV-I 0 W/m 6,3 C 7,8 C 1,6 km/h (1 Bft) 100,00 %
04.11.2015 17:22 7,9 C 89 % 1022,4 hPa 0,0 l/m 0,3 km/h (0 Bft) S 185 0 min 0,000 mm 0,0 UV-I 0 W/m 6,2 C 7,9 C 1,6 km/h (1 Bft) 100,00 %
04.11.2015 17:23 7,9 C 89 % 1022,4 hPa 0,0 l/m 0,6 km/h (0 Bft) S 185 0 min 0,000 mm 0,0 UV-I 0 W/m 6,2 C 7,9 C 1,6 km/h (1 Bft) 100,00 %
04.11.2015 17:24 7,8 C 89 % 1022,4 hPa 0,0 l/m 0,0 km/h (0 Bft) S 185 0 min 0,000 mm 0,0 UV-I 0 W/m 6,1 C 7,8 C 0,0 km/h (0 Bft) 100,00 %
04.11.2015 17:25 7,8 C 89 % 1022,4 hPa 0,0 l/m 0,8 km/h (0 Bft) S 185 0 min 0,000 mm 0,0 UV-I 0 W/m 6,1 C 7,8 C 1,6 km/h (1 Bft) 100,00 %
04.11.2015 17:26 7,8 C 89 % 1022,4 hPa 0,0 l/m 0,3 km/h (0 Bft) S 185 0 min 0,000 mm 0,0 UV-I 0 W/m 6,1 C 7,8 C 1,6 km/h (1 Bft) 100,00 %
04.11.2015 17:27 7,8 C 89 % 1022,4 hPa 0,0 l/m 0,3 km/h (0 Bft) S 185 0 min 0,000 mm 0,0 UV-I 0 W/m 6,1 C 7,8 C 1,6 km/h (1 Bft) 100,00 %
04.11.2015 17:28 7,8 C 89 % 1022,5 hPa 0,0 l/m 1,1 km/h (1 Bft) S 185 0 min 0,000 mm 0,0 UV-I 0 W/m 6,1 C 7,8 C 1,6 km/h (1 Bft) 100,00 %
04.11.2015 17:29 7,9 C 89 % 1022,4 hPa 0,0 l/m 1,5 km/h (1 Bft) S 185 0 min 0,000 mm 0,0 UV-I 0 W/m 6,2 C 7,9 C 1,6 km/h (1 Bft) 100,00 %
04.11.2015 17:30 7,9 C 89 % 1022,4 hPa 0,0 l/m 1,5 km/h (1 Bft) S 185 0 min 0,000 mm 0,0 UV-I 0 W/m 6,2 C 7,9 C 3,2 km/h (1 Bft) 100,00 %
04.11.2015 17:31 7,9 C 89 % 1022,4 hPa 0,0 l/m 1,2 km/h (1 Bft) S 185 0 min 0,000 mm 0,0 UV-I 0 W/m 6,2 C 7,9 C 1,6 km/h (1 Bft) 100,00 %
04.11.2015 17:32 7,9 C 89 % 1022,4 hPa 0,0 l/m 0,8 km/h (0 Bft) S 185 0 min 0,000 mm 0,0 UV-I 0 W/m 6,2 C 7,9 C 1,6 km/h (1 Bft) 100,00 %
04.11.2015 17:33 8,0 C 89 % 1022,4 hPa 0,0 l/m 1,0 km/h (0 Bft) S 185 0 min 0,000 mm 0,0 UV-I 0 W/m 6,3 C 8,0 C 1,6 km/h (1 Bft) 100,00 %
04.11.2015 17:34 8,0 C 89 % 1022,4 hPa 0,0 l/m 1,0 km/h (0 Bft) S 185 0 min 0,000 mm 0,0 UV-I 0 W/m 6,3 C 8,0 C 1,6 km/h (1 Bft) 100,00 %
04.11.2015 17:35 8,0 C 89 % 1022,3 hPa 0,0 l/m 0,6 km/h (0 Bft) S 185 0 min 0,000 mm 0,0 UV-I 0 W/m 6,3 C 8,0 C 1,6 km/h (1 Bft) 96,30 %
04.11.2015 17:36 8,0 C 89 % 1022,3 hPa 0,0 l/m 1,1 km/h (1 Bft) S 185 0 min 0,000 mm 0,0 UV-I 0 W/m 6,3 C 8,0 C 1,6 km/h (1 Bft) 100,00 %
04.11.2015 17:37 8,0 C 89 % 1022,3 hPa 0,0 l/m 1,1 km/h (1 Bft) S 185 0 min 0,000 mm 0,0 UV-I 0 W/m 6,3 C 8,0 C 1,6 km/h (1 Bft) 100,00 %
04.11.2015 17:38 8,0 C 89 % 1022,3 hPa 0,0 l/m 1,0 km/h (0 Bft) S 185 0 min 0,000 mm 0,0 UV-I 0 W/m 6,3 C 8,0 C 1,6 km/h (1 Bft) 95,83 %
04.11.2015 17:39 7,9 C 89 % 1022,3 hPa 0,0 l/m 1,1 km/h (1 Bft) S 185 0 min 0,000 mm 0,0 UV-I 0 W/m 6,2 C 7,9 C 1,6 km/h (1 Bft) 100,00 %
04.11.2015 17:40 8,0 C 89 % 1022,2 hPa 0,0 l/m 0,3 km/h (0 Bft) S 185 0 min 0,000 mm 0,0 UV-I 0 W/m 6,3 C 8,0 C 1,6 km/h (1 Bft) 100,00 %
04.11.2015 17:41 7,9 C 89 % 1022,3 hPa 0,0 l/m 0,1 km/h (0 Bft) S 185 0 min 0,000 mm 0,0 UV-I 0 W/m 6,2 C 7,9 C 1,6 km/h (1 Bft) 100,00 %
04.11.2015 17:42 7,9 C 89 % 1022,3 hPa 0,0 l/m 0,0 km/h (0 Bft) S 185 0 min 0,000 mm 0,0 UV-I 0 W/m 6,2 C 7,9 C 0,0 km/h (0 Bft) 100,00 %
04.11.2015 17:43 7,8 C 89 % 1022,3 hPa 0,0 l/m 0,0 km/h (0 Bft) S 185 0 min 0,000 mm 0,0 UV-I 0 W/m 6,1 C 7,8 C 0,0 km/h (0 Bft) 100,00 %
04.11.2015 17:44 7,7 C 89 % 1022,3 hPa 0,0 l/m 0,0 km/h (0 Bft) S 185 0 min 0,000 mm 0,0 UV-I 0 W/m 6,0 C 7,7 C 0,0 km/h (0 Bft) 95,83 %
04.11.2015 17:45 7,7 C 89 % 1022,3 hPa 0,0 l/m 0,0 km/h (0 Bft) S 185 0 min 0,000 mm 0,0 UV-I 0 W/m 6,0 C 7,7 C 0,0 km/h (0 Bft) 100,00 %
04.11.2015 17:46 7,6 C 89 % 1022,3 hPa 0,0 l/m 0,1 km/h (0 Bft) S 185 0 min 0,000 mm 0,0 UV-I 0 W/m 5,9 C 7,6 C 1,6 km/h (1 Bft) 100,00 %
04.11.2015 17:47 7,6 C 90 % 1022,3 hPa 0,0 l/m 0,0 km/h (0 Bft) S 185 0 min 0,000 mm 0,0 UV-I 0 W/m 6,1 C 7,6 C 0,0 km/h (0 Bft) 100,00 %
04.11.2015 17:48 7,5 C 90 % 1022,3 hPa 0,0 l/m 0,0 km/h (0 Bft) S 185 0 min 0,000 mm 0,0 UV-I 0 W/m 6,0 C 7,5 C 0,0 km/h (0 Bft) 100,00 %
04.11.2015 17:49 7,5 C 90 % 1022,3 hPa 0,0 l/m 0,0 km/h (0 Bft) S 185 0 min 0,000 mm 0,0 UV-I 0 W/m 6,0 C 7,5 C 0,0 km/h (0 Bft) 100,00 %
04.11.2015 17:50 7,6 C 90 % 1022,3 hPa 0,0 l/m 0,6 km/h (0 Bft) S 185 0 min 0,000 mm 0,0 UV-I 0 W/m 6,1 C 7,6 C 1,6 km/h (1 Bft) 100,00 %
04.11.2015 17:51 7,6 C 90 % 1022,3 hPa 0,0 l/m 0,3 km/h (0 Bft) S 185 0 min 0,000 mm 0,0 UV-I 0 W/m 6,1 C 7,6 C 1,6 km/h (1 Bft) 100,00 %
04.11.2015 17:52 7,6 C 90 % 1022,3 hPa 0,0 l/m 0,5 km/h (0 Bft) S 185 0 min 0,000 mm 0,0 UV-I 0 W/m 6,1 C 7,6 C 1,6 km/h (1 Bft) 96,55 %
04.11.2015 17:53 7,6 C 90 % 1022,4 hPa 0,0 l/m 0,0 km/h (0 Bft) S 185 0 min 0,000 mm 0,0 UV-I 0 W/m 6,1 C 7,6 C 0,0 km/h (0 Bft) 100,00 %
04.11.2015 17:54 7,5 C 90 % 1022,3 hPa 0,0 l/m 0,0 km/h (0 Bft) S 185 0 min 0,000 mm 0,0 UV-I 0 W/m 6,0 C 7,5 C 0,0 km/h (0 Bft) 100,00 %
04.11.2015 17:55 7,5 C 90 % 1022,3 hPa 0,0 l/m 0,4 km/h (0 Bft) S 185 0 min 0,000 mm 0,0 UV-I 0 W/m 6,0 C 7,5 C 1,6 km/h (1 Bft) 100,00 %
04.11.2015 17:56 7,5 C 90 % 1022,3 hPa 0,0 l/m 0,2 km/h (0 Bft) S 185 0 min 0,000 mm 0,0 UV-I 0 W/m 6,0 C 7,5 C 1,6 km/h (1 Bft) 100,00 %
04.11.2015 17:57 7,5 C 90 % 1022,3 hPa 0,0 l/m 0,3 km/h (0 Bft) S 185 0 min 0,000 mm 0,0 UV-I 0 W/m 6,0 C 7,5 C 1,6 km/h (1 Bft) 95,65 %
04.11.2015 17:58 7,6 C 90 % 1022,4 hPa 0,0 l/m 0,5 km/h (0 Bft) S 185 0 min 0,000 mm 0,0 UV-I 0 W/m 6,1 C 7,6 C 1,6 km/h (1 Bft) 100,00 %
04.11.2015 17:59 7,6 C 90 % 1022,3 hPa 0,0 l/m 1,8 km/h (1 Bft) S 185 0 min 0,000 mm 0,0 UV-I 0 W/m 6,1 C 7,6 C 3,2 km/h (1 Bft) 100,00 %
04.11.2015 18:00 7,6 C 90 % 1022,4 hPa 0,0 l/m 0,9 km/h (0 Bft) S 185 0 min 0,000 mm 0,0 UV-I 0 W/m 6,1 C 7,6 C 3,2 km/h (1 Bft) 100,00 %
04.11.2015 18:01 7,7 C 90 % 1022,4 hPa 0,0 l/m 1,3 km/h (1 Bft) S 185 0 min 0,000 mm 0,0 UV-I 0 W/m 6,2 C 7,7 C 1,6 km/h (1 Bft) 100,00 %
04.11.2015 18:02 7,7 C 89 % 1022,4 hPa 0,0 l/m 1,4 km/h (1 Bft) S 185 0 min 0,000 mm 0,0 UV-I 0 W/m 6,0 C 7,7 C 1,6 km/h (1 Bft) 100,00 %
04.11.2015 18:03 7,7 C 89 % 1022,4 hPa 0,0 l/m 1,7 km/h (1 Bft) S 185 0 min 0,000 mm 0,0 UV-I 0 W/m 6,0 C 7,7 C 3,2 km/h (1 Bft) 95,83 %
04.11.2015 18:04 7,7 C 89 % 1022,4 hPa 0,0 l/m 1,2 km/h (1 Bft) S 185 0 min 0,000 mm 0,0 UV-I 0 W/m 6,0 C 7,7 C 1,6 km/h (1 Bft) 100,00 %
04.11.2015 18:05 7,8 C 89 % 1022,4 hPa 0,0 l/m 1,4 km/h (1 Bft) S 185 0 min 0,000 mm 0,0 UV-I 0 W/m 6,1 C 7,8 C 1,6 km/h (1 Bft) 100,00 %
04.11.2015 18:06 7,8 C 89 % 1022,4 hPa 0,0 l/m 1,9 km/h (1 Bft) S 185 0 min 0,000 mm 0,0 UV-I 0 W/m 6,1 C 7,8 C 3,2 km/h (1 Bft) 100,00 %
04.11.2015 18:07 7,8 C 89 % 1022,4 hPa 0,0 l/m 2,0 km/h (1 Bft) S 185 0 min 0,000 mm 0,0 UV-I 0 W/m 6,1 C 7,8 C 3,2 km/h (1 Bft) 100,00 %
04.11.2015 18:08 7,8 C 89 % 1022,4 hPa 0,0 l/m 2,0 km/h (1 Bft) S 185 0 min 0,000 mm 0,0 UV-I 0 W/m 6,1 C 7,8 C 3,2 km/h (1 Bft) 100,00 %
04.11.2015 18:09 7,8 C 88 % 1022,4 hPa 0,0 l/m 2,0 km/h (1 Bft) S 185 0 min 0,000 mm 0,0 UV-I 0 W/m 5,9 C 7,8 C 3,2 km/h (1 Bft) 100,00 %
04.11.2015 18:10 7,8 C 88 % 1022,4 hPa 0,0 l/m 1,8 km/h (1 Bft) S 185 0 min 0,000 mm 0,0 UV-I 0 W/m 5,9 C 7,8 C 3,2 km/h (1 Bft) 100,00 %
04.11.2015 18:11 7,9 C 88 % 1022,4 hPa 0,0 l/m 1,5 km/h (1 Bft) S 185 0 min 0,000 mm 0,0 UV-I 0 W/m 6,0 C 7,9 C 1,6 km/h (1 Bft) 100,00 %
04.11.2015 18:12 7,9 C 88 % 1022,4 hPa 0,0 l/m 1,0 km/h (0 Bft) S 185 0 min 0,000 mm 0,0 UV-I 0 W/m 6,0 C 7,9 C 1,6 km/h (1 Bft) 99,27 %
04.11.2015 18:13 7,9 C 88 % 1022,4 hPa 0,0 l/m 1,1 km/h (1 Bft) S 185 0 min 0,000 mm 0,0 UV-I 0 W/m 6,0 C 7,9 C 1,6 km/h (1 Bft) 97,37 %
04.11.2015 18:14 7,8 C 88 % 1022,4 hPa 0,0 l/m 1,9 km/h (1 Bft) S 185 0 min 0,000 mm 0,0 UV-I 0 W/m 5,9 C 7,8 C 3,2 km/h (1 Bft) 100,00 %
04.11.2015 18:15 7,9 C 88 % 1022,4 hPa 0,0 l/m 1,7 km/h (1 Bft) S 185 0 min 0,000 mm 0,0 UV-I 0 W/m 6,0 C 7,9 C 3,2 km/h (1 Bft) 100,00 %
04.11.2015 18:16 7,9 C 88 % 1022,4 hPa 0,0 l/m 1,5 km/h (1 Bft) S 185 0 min 0,000 mm 0,0 UV-I 0 W/m 6,0 C 7,9 C 3,2 km/h (1 Bft) 100,00 %
04.11.2015 18:17 7,9 C 88 % 1022,4 hPa 0,0 l/m 0,8 km/h (0 Bft) S 185 0 min 0,000 mm 0,0 UV-I 0 W/m 6,0 C 7,9 C 3,2 km/h (1 Bft) 100,00 %
04.11.2015 18:18 7,9 C 88 % 1022,5 hPa 0,0 l/m 0,5 km/h (0 Bft) S 185 0 min 0,000 mm 0,0 UV-I 0 W/m 6,0 C 7,9 C 1,6 km/h (1 Bft) 100,00 %
04.11.2015 18:19 7,9 C 88 % 1022,5 hPa 0,0 l/m 0,8 km/h (0 Bft) S 185 0 min 0,000 mm 0,0 UV-I 0 W/m 6,0 C 7,9 C 1,6 km/h (1 Bft) 100,00 %
04.11.2015 18:20 7,9 C 88 % 1022,5 hPa 0,0 l/m 0,8 km/h (0 Bft) S 185 0 min 0,000 mm 0,0 UV-I 0 W/m 6,0 C 7,9 C 1,6 km/h (1 Bft) 96,55 %
04.11.2015 18:21 7,9 C 88 % 1022,5 hPa 0,0 l/m 0,3 km/h (0 Bft) S 185 0 min 0,000 mm 0,0 UV-I 0 W/m 6,0 C 7,9 C 1,6 km/h (1 Bft) 100,00 %
04.11.2015 18:22 7,9 C 88 % 1022,5 hPa 0,0 l/m 0,7 km/h (0 Bft) S 185 0 min 0,000 mm 0,0 UV-I 0 W/m 6,0 C 7,9 C 3,2 km/h (1 Bft) 100,00 %
04.11.2015 18:23 7,9 C 88 % 1022,5 hPa 0,0 l/m 1,0 km/h (0 Bft) S 185 0 min 0,000 mm 0,0 UV-I 0 W/m 6,0 C 7,9 C 3,2 km/h (1 Bft) 100,00 %
04.11.2015 18:24 7,9 C 88 % 1022,5 hPa 0,0 l/m 1,3 km/h (1 Bft) S 185 0 min 0,000 mm 0,0 UV-I 0 W/m 6,0 C 7,9 C 3,2 km/h (1 Bft) 100,00 %
04.11.2015 18:25 8,0 C 88 % 1022,5 hPa 0,0 l/m 0,4 km/h (0 Bft) S 185 0 min 0,000 mm 0,0 UV-I 0 W/m 6,1 C 8,0 C 3,2 km/h (1 Bft) 100,00 %
04.11.2015 18:26 8,0 C 88 % 1022,5 hPa 0,0 l/m 0,1 km/h (0 Bft) S 185 0 min 0,000 mm 0,0 UV-I 0 W/m 6,1 C 8,0 C 1,6 km/h (1 Bft) 100,00 %
04.11.2015 18:27 8,1 C 88 % 1022,5 hPa 0,0 l/m 0,5 km/h (0 Bft) S 185 0 min 0,000 mm 0,0 UV-I 0 W/m 6,2 C 8,1 C 1,6 km/h (1 Bft) 100,00 %
04.11.2015 18:28 8,1 C 88 % 1022,5 hPa 0,0 l/m 0,1 km/h (0 Bft) S 185 0 min 0,000 mm 0,0 UV-I 0 W/m 6,2 C 8,1 C 1,6 km/h (1 Bft) 100,00 %
04.11.2015 18:29 8,1 C 88 % 1022,5 hPa 0,0 l/m 0,1 km/h (0 Bft) S 185 0 min 0,000 mm 0,0 UV-I 0 W/m 6,2 C 8,1 C 1,6 km/h (1 Bft) 95,65 %
04.11.2015 18:30 8,1 C 88 % 1022,6 hPa 0,0 l/m 0,3 km/h (0 Bft) S 185 0 min 0,000 mm 0,0 UV-I 0 W/m 6,2 C 8,1 C 1,6 km/h (1 Bft) 100,00 %
04.11.2015 18:31 8,1 C 88 % 1022,6 hPa 0,0 l/m 0,1 km/h (0 Bft) S 185 0 min 0,000 mm 0,0 UV-I 0 W/m 6,2 C 8,1 C 1,6 km/h (1 Bft) 99,27 %
04.11.2015 18:32 8,1 C 88 % 1022,5 hPa 0,0 l/m 0,0 km/h (0 Bft) S 185 0 min 0,000 mm 0,0 UV-I 0 W/m 6,2 C 8,1 C 0,0 km/h (0 Bft) 100,00 %
04.11.2015 18:33 8,1 C 88 % 1022,6 hPa 0,0 l/m 0,1 km/h (0 Bft) S 185 0 min 0,000 mm 0,0 UV-I 0 W/m 6,2 C 8,1 C 1,6 km/h (1 Bft) 100,00 %
04.11.2015 18:34 8,0 C 88 % 1022,6 hPa 0,0 l/m 0,0 km/h (0 Bft) S 185 0 min 0,000 mm 0,0 UV-I 0 W/m 6,1 C 8,0 C 0,0 km/h (0 Bft) 100,00 %
04.11.2015 18:35 8,0 C 88 % 1022,6 hPa 0,0 l/m 0,1 km/h (0 Bft) S 185 0 min 0,000 mm 0,0 UV-I 0 W/m 6,1 C 8,0 C 1,6 km/h (1 Bft) 95,65 %
04.11.2015 18:36 8,0 C 88 % 1022,6 hPa 0,0 l/m 0,0 km/h (0 Bft) S 185 0 min 0,000 mm 0,0 UV-I 0 W/m 6,1 C 8,0 C 0,0 km/h (0 Bft) 100,00 %
04.11.2015 18:37 7,9 C 88 % 1022,6 hPa 0,0 l/m 0,2 km/h (0 Bft) S 185 0 min 0,000 mm 0,0 UV-I 0 W/m 6,0 C 7,9 C 1,6 km/h (1 Bft) 100,00 %
04.11.2015 18:38 7,9 C 88 % 1022,6 hPa 0,0 l/m 1,5 km/h (1 Bft) S 182 0 min 0,000 mm 0,0 UV-I 0 W/m 6,0 C 7,9 C 3,2 km/h (1 Bft) 100,00 %
04.11.2015 18:39 7,9 C 88 % 1022,6 hPa 0,0 l/m 1,5 km/h (1 Bft) S 182 0 min 0,000 mm 0,0 UV-I 0 W/m 6,0 C 7,9 C 1,6 km/h (1 Bft) 100,00 %
04.11.2015 18:40 7,9 C 88 % 1022,6 hPa 0,0 l/m 1,2 km/h (1 Bft) S 182 0 min 0,000 mm 0,0 UV-I 0 W/m 6,0 C 7,9 C 1,6 km/h (1 Bft) 100,00 %
04.11.2015 18:41 8,0 C 88 % 1022,6 hPa 0,0 l/m 1,2 km/h (1 Bft) S 182 0 min 0,000 mm 0,0 UV-I 0 W/m 6,1 C 8,0 C 1,6 km/h (1 Bft) 100,00 %
04.11.2015 18:42 8,0 C 88 % 1022,5 hPa 0,0 l/m 0,3 km/h (0 Bft) S 182 0 min 0,000 mm 0,0 UV-I 0 W/m 6,1 C 8,0 C 1,6 km/h (1 Bft) 100,00 %
04.11.2015 18:43 7,9 C 88 % 1022,6 hPa 0,0 l/m 0,0 km/h (0 Bft) S 182 0 min 0,000 mm 0,0 UV-I 0 W/m 6,0 C 7,9 C 0,0 km/h (0 Bft) 100,00 %
04.11.2015 18:44 7,9 C 89 % 1022,6 hPa 0,0 l/m 0,0 km/h (0 Bft) S 182 0 min 0,000 mm 0,0 UV-I 0 W/m 6,2 C 7,9 C 0,0 km/h (0 Bft) 100,00 %
04.11.2015 18:45 7,8 C 88 % 1022,6 hPa 0,0 l/m 0,0 km/h (0 Bft) S 182 0 min 0,000 mm 0,0 UV-I 0 W/m 5,9 C 7,8 C 0,0 km/h (0 Bft) 100,00 %
04.11.2015 18:46 7,8 C 89 % 1022,6 hPa 0,0 l/m 0,8 km/h (0 Bft) S 182 0 min 0,000 mm 0,0 UV-I 0 W/m 6,1 C 7,8 C 1,6 km/h (1 Bft) 96,15 %
04.11.2015 18:47 7,8 C 89 % 1022,6 hPa 0,0 l/m 0,3 km/h (0 Bft) S 182 0 min 0,000 mm 0,0 UV-I 0 W/m 6,1 C 7,8 C 1,6 km/h (1 Bft) 100,00 %
04.11.2015 18:48 7,8 C 89 % 1022,6 hPa 0,0 l/m 0,1 km/h (0 Bft) S 182 0 min 0,000 mm 0,0 UV-I 0 W/m 6,1 C 7,8 C 1,6 km/h (1 Bft) 100,00 %
04.11.2015 18:49 7,8 C 89 % 1022,6 hPa 0,0 l/m 0,8 km/h (0 Bft) S 182 0 min 0,000 mm 0,0 UV-I 0 W/m 6,1 C 7,8 C 1,6 km/h (1 Bft) 100,00 %
04.11.2015 18:50 7,8 C 89 % 1022,5 hPa 0,0 l/m 1,0 km/h (0 Bft) S 182 0 min 0,000 mm 0,0 UV-I 0 W/m 6,1 C 7,8 C 1,6 km/h (1 Bft) 100,00 %
04.11.2015 18:51 7,7 C 89 % 1022,5 hPa 0,0 l/m 0,1 km/h (0 Bft) S 182 0 min 0,000 mm 0,0 UV-I 0 W/m 6,0 C 7,7 C 1,6 km/h (1 Bft) 100,00 %
04.11.2015 18:52 7,7 C 89 % 1022,6 hPa 0,0 l/m 0,0 km/h (0 Bft) S 182 0 min 0,000 mm 0,0 UV-I 0 W/m 6,0 C 7,7 C 0,0 km/h (0 Bft) 95,65 %
04.11.2015 18:53 7,7 C 89 % 1022,6 hPa 0,0 l/m 0,0 km/h (0 Bft) S 182 0 min 0,000 mm 0,0 UV-I 0 W/m 6,0 C 7,7 C 0,0 km/h (0 Bft) 100,00 %
04.11.2015 18:54 7,7 C 89 % 1022,6 hPa 0,0 l/m 0,4 km/h (0 Bft) S 182 0 min 0,000 mm 0,0 UV-I 0 W/m 6,0 C 7,7 C 1,6 km/h (1 Bft) 99,27 %
04.11.2015 18:55 7,7 C 89 % 1022,6 hPa 0,0 l/m 0,7 km/h (0 Bft) S 182 0 min 0,000 mm 0,0 UV-I 0 W/m 6,0 C 7,7 C 1,6 km/h (1 Bft) 100,00 %
04.11.2015 18:56 7,7 C 89 % 1022,5 hPa 0,0 l/m 0,1 km/h (0 Bft) S 182 0 min 0,000 mm 0,0 UV-I 0 W/m 6,0 C 7,7 C 1,6 km/h (1 Bft) 100,00 %
04.11.2015 18:57 7,7 C 89 % 1022,5 hPa 0,0 l/m 0,6 km/h (0 Bft) S 182 0 min 0,000 mm 0,0 UV-I 0 W/m 6,0 C 7,7 C 1,6 km/h (1 Bft) 100,00 %
04.11.2015 18:58 7,6 C 89 % 1022,6 hPa 0,0 l/m 0,7 km/h (0 Bft) S 182 0 min 0,000 mm 0,0 UV-I 0 W/m 5,9 C 7,6 C 1,6 km/h (1 Bft) 100,00 %
04.11.2015 18:59 7,6 C 90 % 1022,5 hPa 0,0 l/m 1,5 km/h (1 Bft) S 182 0 min 0,000 mm 0,0 UV-I 0 W/m 6,1 C 7,6 C 3,2 km/h (1 Bft) 100,00 %
04.11.2015 19:00 7,6 C 90 % 1022,6 hPa 0,0 l/m 0,5 km/h (0 Bft) S 182 0 min 0,000 mm 0,0 UV-I 0 W/m 6,1 C 7,6 C 1,6 km/h (1 Bft) 100,00 %
04.11.2015 19:02 7,6 C 90 % 1022,6 hPa 0,0 l/m 0,0 km/h (0 Bft) S 182 0 min 0,000 mm 0,0 UV-I 0 W/m 6,1 C 7,6 C 0,0 km/h (0 Bft) 100,00 %
04.11.2015 19:03 7,5 C 90 % 1022,6 hPa 0,0 l/m 0,0 km/h (0 Bft) S 182 0 min 0,000 mm 0,0 UV-I 0 W/m 6,0 C 7,5 C 0,0 km/h (0 Bft) 100,00 %
04.11.2015 19:04 7,4 C 90 % 1022,6 hPa 0,0 l/m 0,0 km/h (0 Bft) S 182 0 min 0,000 mm 0,0 UV-I 0 W/m 5,9 C 7,4 C 0,0 km/h (0 Bft) 100,00 %
04.11.2015 19:05 7,4 C 90 % 1022,6 hPa 0,0 l/m 0,0 km/h (0 Bft) S 182 0 min 0,000 mm 0,0 UV-I 0 W/m 5,9 C 7,4 C 0,0 km/h (0 Bft) 100,00 %
04.11.2015 19:06 7,4 C 90 % 1022,6 hPa 0,0 l/m 0,0 km/h (0 Bft) S 182 0 min 0,000 mm 0,0 UV-I 0 W/m 5,9 C 7,4 C 0,0 km/h (0 Bft) 100,00 %
04.11.2015 19:07 7,4 C 90 % 1022,6 hPa 0,0 l/m 0,0 km/h (0 Bft) S 182 0 min 0,000 mm 0,0 UV-I 0 W/m 5,9 C 7,4 C 0,0 km/h (0 Bft) 100,00 %
04.11.2015 19:08 7,4 C 90 % 1022,6 hPa 0,0 l/m 0,0 km/h (0 Bft) S 182 0 min 0,000 mm 0,0 UV-I 0 W/m 5,9 C 7,4 C 0,0 km/h (0 Bft) 100,00 %
04.11.2015 19:09 7,3 C 90 % 1022,6 hPa 0,0 l/m 0,0 km/h (0 Bft) S 182 0 min 0,000 mm 0,0 UV-I 0 W/m 5,8 C 7,3 C 0,0 km/h (0 Bft) 100,00 %
04.11.2015 19:10 7,3 C 90 % 1022,6 hPa 0,0 l/m 0,0 km/h (0 Bft) S 182 0 min 0,000 mm 0,0 UV-I 0 W/m 5,8 C 7,3 C 0,0 km/h (0 Bft) 100,00 %
04.11.2015 19:11 7,4 C 90 % 1022,6 hPa 0,0 l/m 0,0 km/h (0 Bft) S 182 0 min 0,000 mm 0,0 UV-I 0 W/m 5,9 C 7,4 C 0,0 km/h (0 Bft) 95,65 %
04.11.2015 19:12 7,3 C 90 % 1022,6 hPa 0,0 l/m 0,0 km/h (0 Bft) S 182 0 min 0,000 mm 0,0 UV-I 0 W/m 5,8 C 7,3 C 0,0 km/h (0 Bft) 100,00 %
04.11.2015 19:13 7,3 C 90 % 1022,6 hPa 0,0 l/m 0,0 km/h (0 Bft) S 182 0 min 0,000 mm 0,0 UV-I 0 W/m 5,8 C 7,3 C 0,0 km/h (0 Bft) 100,00 %
04.11.2015 19:14 7,3 C 90 % 1022,6 hPa 0,0 l/m 0,0 km/h (0 Bft) S 182 0 min 0,000 mm 0,0 UV-I 0 W/m 5,8 C 7,3 C 0,0 km/h (0 Bft) 100,00 %
04.11.2015 19:15 7,4 C 90 % 1022,6 hPa 0,0 l/m 0,0 km/h (0 Bft) S 182 0 min 0,000 mm 0,0 UV-I 0 W/m 5,9 C 7,4 C 0,0 km/h (0 Bft) 100,00 %
04.11.2015 19:16 7,3 C 90 % 1022,6 hPa 0,0 l/m 0,0 km/h (0 Bft) S 182 0 min 0,000 mm 0,0 UV-I 0 W/m 5,8 C 7,3 C 0,0 km/h (0 Bft) 100,00 %
04.11.2015 19:17 7,3 C 90 % 1022,7 hPa 0,0 l/m 0,0 km/h (0 Bft) S 182 0 min 0,000 mm 0,0 UV-I 0 W/m 5,8 C 7,3 C 0,0 km/h (0 Bft) 100,00 %
04.11.2015 19:18 7,3 C 90 % 1022,6 hPa 0,0 l/m 0,5 km/h (0 Bft) S 182 0 min 0,000 mm 0,0 UV-I 0 W/m 5,8 C 7,3 C 1,6 km/h (1 Bft) 100,00 %
04.11.2015 19:19 7,3 C 90 % 1022,6 hPa 0,0 l/m 0,6 km/h (0 Bft) S 182 0 min 0,000 mm 0,0 UV-I 0 W/m 5,8 C 7,3 C 1,6 km/h (1 Bft) 96,15 %
04.11.2015 19:20 7,3 C 91 % 1022,7 hPa 0,0 l/m 0,5 km/h (0 Bft) S 182 0 min 0,000 mm 0,0 UV-I 0 W/m 5,9 C 7,3 C 1,6 km/h (1 Bft) 100,00 %
04.11.2015 19:21 7,2 C 91 % 1022,6 hPa 0,0 l/m 0,1 km/h (0 Bft) S 182 0 min 0,000 mm 0,0 UV-I 0 W/m 5,8 C 7,2 C 1,6 km/h (1 Bft) 100,00 %
04.11.2015 19:22 7,2 C 90 % 1022,6 hPa 0,0 l/m 0,0 km/h (0 Bft) S 182 0 min 0,000 mm 0,0 UV-I 0 W/m 5,7 C 7,2 C 0,0 km/h (0 Bft) 96,30 %
04.11.2015 19:23 7,1 C 91 % 1022,7 hPa 0,0 l/m 0,0 km/h (0 Bft) S 182 0 min 0,000 mm 0,0 UV-I 0 W/m 5,7 C 7,1 C 0,0 km/h (0 Bft) 100,00 %
04.11.2015 19:24 7,1 C 91 % 1022,7 hPa 0,0 l/m 0,0 km/h (0 Bft) S 182 0 min 0,000 mm 0,0 UV-I 0 W/m 5,7 C 7,1 C 0,0 km/h (0 Bft) 100,00 %
04.11.2015 19:25 7,1 C 91 % 1022,7 hPa 0,0 l/m 0,0 km/h (0 Bft) S 182 0 min 0,000 mm 0,0 UV-I 0 W/m 5,7 C 7,1 C 0,0 km/h (0 Bft) 100,00 %
04.11.2015 19:26 7,1 C 91 % 1022,7 hPa 0,0 l/m 0,0 km/h (0 Bft) S 182 0 min 0,000 mm 0,0 UV-I 0 W/m 5,7 C 7,1 C 0,0 km/h (0 Bft) 100,00 %
04.11.2015 19:27 7,2 C 91 % 1022,7 hPa 0,0 l/m 0,0 km/h (0 Bft) S 182 0 min 0,000 mm 0,0 UV-I 0 W/m 5,8 C 7,2 C 0,0 km/h (0 Bft) 100,00 %
04.11.2015 19:28 7,2 C 91 % 1022,7 hPa 0,0 l/m 0,0 km/h (0 Bft) S 182 0 min 0,000 mm 0,0 UV-I 0 W/m 5,8 C 7,2 C 0,0 km/h (0 Bft) 100,00 %
04.11.2015 19:29 7,3 C 91 % 1022,7 hPa 0,0 l/m 0,0 km/h (0 Bft) S 182 0 min 0,000 mm 0,0 UV-I 0 W/m 5,9 C 7,3 C 0,0 km/h (0 Bft) 100,00 %
04.11.2015 19:30 7,3 C 91 % 1022,7 hPa 0,0 l/m 0,0 km/h (0 Bft) S 182 0 min 0,000 mm 0,0 UV-I 0 W/m 5,9 C 7,3 C 0,0 km/h (0 Bft) 100,00 %
04.11.2015 19:31 7,3 C 91 % 1022,7 hPa 0,0 l/m 0,0 km/h (0 Bft) S 182 0 min 0,000 mm 0,0 UV-I 0 W/m 5,9 C 7,3 C 0,0 km/h (0 Bft) 100,00 %
04.11.2015 19:32 7,3 C 91 % 1022,6 hPa 0,0 l/m 0,0 km/h (0 Bft) S 182 0 min 0,000 mm 0,0 UV-I 0 W/m 5,9 C 7,3 C 0,0 km/h (0 Bft) 100,00 %
04.11.2015 19:33 7,4 C 91 % 1022,6 hPa 0,0 l/m 0,0 km/h (0 Bft) S 182 0 min 0,000 mm 0,0 UV-I 0 W/m 6,0 C 7,4 C 0,0 km/h (0 Bft) 100,00 %
04.11.2015 19:34 7,4 C 90 % 1022,6 hPa 0,0 l/m 0,0 km/h (0 Bft) S 182 0 min 0,000 mm 0,0 UV-I 0 W/m 5,9 C 7,4 C 0,0 km/h (0 Bft) 100,00 %
04.11.2015 19:35 7,3 C 90 % 1022,7 hPa 0,0 l/m 0,0 km/h (0 Bft) S 182 0 min 0,000 mm 0,0 UV-I 0 W/m 5,8 C 7,3 C 0,0 km/h (0 Bft) 100,00 %
04.11.2015 19:36 7,3 C 90 % 1022,7 hPa 0,0 l/m 0,0 km/h (0 Bft) S 182 0 min 0,000 mm 0,0 UV-I 0 W/m 5,8 C 7,3 C 0,0 km/h (0 Bft) 100,00 %
04.11.2015 19:37 7,3 C 90 % 1022,7 hPa 0,0 l/m 0,0 km/h (0 Bft) S 182 0 min 0,000 mm 0,0 UV-I 0 W/m 5,8 C 7,3 C 0,0 km/h (0 Bft) 100,00 %
04.11.2015 19:38 7,2 C 90 % 1022,7 hPa 0,0 l/m 0,1 km/h (0 Bft) S 182 0 min 0,000 mm 0,0 UV-I 0 W/m 5,7 C 7,2 C 1,6 km/h (1 Bft) 95,65 %
04.11.2015 19:39 7,2 C 91 % 1022,7 hPa 0,0 l/m 0,1 km/h (0 Bft) S 182 0 min 0,000 mm 0,0 UV-I 0 W/m 5,8 C 7,2 C 1,6 km/h (1 Bft) 95,83 %
04.11.2015 19:40 7,1 C 91 % 1022,7 hPa 0,0 l/m 0,0 km/h (0 Bft) S 182 0 min 0,000 mm 0,0 UV-I 0 W/m 5,7 C 7,1 C 0,0 km/h (0 Bft) 100,00 %
04.11.2015 19:41 7,0 C 91 % 1022,6 hPa 0,0 l/m 0,0 km/h (0 Bft) S 182 0 min 0,000 mm 0,0 UV-I 0 W/m 5,6 C 7,0 C 0,0 km/h (0 Bft) 100,00 %
04.11.2015 19:42 7,0 C 92 % 1022,6 hPa 0,0 l/m 0,0 km/h (0 Bft) S 182 0 min 0,000 mm 0,0 UV-I 0 W/m 5,8 C 7,0 C 0,0 km/h (0 Bft) 100,00 %
04.11.2015 19:43 6,9 C 91 % 1022,6 hPa 0,0 l/m 0,0 km/h (0 Bft) S 182 0 min 0,000 mm 0,0 UV-I 0 W/m 5,5 C 6,9 C 0,0 km/h (0 Bft) 100,00 %
04.11.2015 19:44 6,9 C 92 % 1022,6 hPa 0,0 l/m 0,0 km/h (0 Bft) S 182 0 min 0,000 mm 0,0 UV-I 0 W/m 5,7 C 6,9 C 0,0 km/h (0 Bft) 95,83 %
04.11.2015 19:45 6,9 C 92 % 1022,6 hPa 0,0 l/m 0,0 km/h (0 Bft) S 182 0 min 0,000 mm 0,0 UV-I 0 W/m 5,7 C 6,9 C 0,0 km/h (0 Bft) 95,65 %
04.11.2015 19:46 6,9 C 92 % 1022,7 hPa 0,0 l/m 0,0 km/h (0 Bft) S 182 0 min 0,000 mm 0,0 UV-I 0 W/m 5,7 C 6,9 C 0,0 km/h (0 Bft) 100,00 %
04.11.2015 19:47 6,8 C 92 % 1022,6 hPa 0,0 l/m 0,0 km/h (0 Bft) S 182 0 min 0,000 mm 0,0 UV-I 0 W/m 5,6 C 6,8 C 0,0 km/h (0 Bft) 100,00 %
04.11.2015 19:48 6,8 C 92 % 1022,6 hPa 0,0 l/m 0,0 km/h (0 Bft) S 182 0 min 0,000 mm 0,0 UV-I 0 W/m 5,6 C 6,8 C 0,0 km/h (0 Bft) 100,00 %
04.11.2015 19:49 6,7 C 92 % 1022,6 hPa 0,0 l/m 0,0 km/h (0 Bft) S 182 0 min 0,000 mm 0,0 UV-I 0 W/m 5,5 C 6,7 C 0,0 km/h (0 Bft) 100,00 %
04.11.2015 19:50 6,7 C 93 % 1022,6 hPa 0,0 l/m 0,1 km/h (0 Bft) S 182 0 min 0,000 mm 0,0 UV-I 0 W/m 5,6 C 6,7 C 1,6 km/h (1 Bft) 100,00 %
04.11.2015 19:51 6,6 C 93 % 1022,6 hPa 0,0 l/m 0,4 km/h (0 Bft) S 182 0 min 0,000 mm 0,0 UV-I 0 W/m 5,6 C 6,6 C 1,6 km/h (1 Bft) 100,00 %
04.11.2015 19:52 6,6 C 93 % 1022,6 hPa 0,0 l/m 1,1 km/h (1 Bft) S 182 0 min 0,000 mm 0,0 UV-I 0 W/m 5,6 C 6,6 C 1,6 km/h (1 Bft) 100,00 %
04.11.2015 19:53 6,6 C 94 % 1022,6 hPa 0,0 l/m 1,1 km/h (1 Bft) S 182 0 min 0,000 mm 0,0 UV-I 0 W/m 5,7 C 6,6 C 1,6 km/h (1 Bft) 100,00 %
04.11.2015 19:54 6,6 C 94 % 1022,6 hPa 0,0 l/m 0,9 km/h (0 Bft) S 182 0 min 0,000 mm 0,0 UV-I 0 W/m 5,7 C 6,6 C 1,6 km/h (1 Bft) 100,00 %
04.11.2015 19:55 6,6 C 94 % 1022,6 hPa 0,0 l/m 0,6 km/h (0 Bft) S 182 0 min 0,000 mm 0,0 UV-I 0 W/m 5,7 C 6,6 C 1,6 km/h (1 Bft) 100,00 %
04.11.2015 19:56 6,6 C 94 % 1022,6 hPa 0,0 l/m 0,7 km/h (0 Bft) S 182 0 min 0,000 mm 0,0 UV-I 0 W/m 5,7 C 6,6 C 1,6 km/h (1 Bft) 100,00 %
04.11.2015 19:57 6,7 C 94 % 1022,6 hPa 0,0 l/m 0,2 km/h (0 Bft) S 182 0 min 0,000 mm 0,0 UV-I 0 W/m 5,8 C 6,7 C 1,6 km/h (1 Bft) 100,00 %
04.11.2015 19:58 6,8 C 93 % 1022,5 hPa 0,0 l/m 0,2 km/h (0 Bft) S 182 0 min 0,000 mm 0,0 UV-I 0 W/m 5,7 C 6,8 C 1,6 km/h (1 Bft) 100,00 %
04.11.2015 19:59 6,8 C 93 % 1022,6 hPa 0,0 l/m 0,0 km/h (0 Bft) S 182 0 min 0,000 mm 0,0 UV-I 0 W/m 5,7 C 6,8 C 0,0 km/h (0 Bft) 100,00 %
04.11.2015 20:00 6,8 C 93 % 1022,6 hPa 0,0 l/m 0,0 km/h (0 Bft) S 182 0 min 0,000 mm 0,0 UV-I 0 W/m 5,7 C 6,8 C 0,0 km/h (0 Bft) 100,00 %
04.11.2015 20:01 6,8 C 93 % 1022,6 hPa 0,0 l/m 0,0 km/h (0 Bft) S 182 0 min 0,000 mm 0,0 UV-I 0 W/m 5,7 C 6,8 C 0,0 km/h (0 Bft) 100,00 %
04.11.2015 20:02 6,8 C 93 % 1022,6 hPa 0,0 l/m 0,0 km/h (0 Bft) S 182 0 min 0,000 mm 0,0 UV-I 0 W/m 5,7 C 6,8 C 0,0 km/h (0 Bft) 100,00 %
04.11.2015 20:03 6,8 C 93 % 1022,5 hPa 0,0 l/m 0,0 km/h (0 Bft) S 182 0 min 0,000 mm 0,0 UV-I 0 W/m 5,7 C 6,8 C 0,0 km/h (0 Bft) 100,00 %
04.11.2015 20:04 6,8 C 93 % 1022,6 hPa 0,0 l/m 0,1 km/h (0 Bft) S 182 0 min 0,000 mm 0,0 UV-I 0 W/m 5,7 C 6,8 C 1,6 km/h (1 Bft) 100,00 %
04.11.2015 20:05 6,8 C 93 % 1022,5 hPa 0,0 l/m 0,2 km/h (0 Bft) S 182 0 min 0,000 mm 0,0 UV-I 0 W/m 5,7 C 6,8 C 1,6 km/h (1 Bft) 100,00 %
04.11.2015 20:06 6,8 C 93 % 1022,6 hPa 0,0 l/m 0,2 km/h (0 Bft) S 182 0 min 0,000 mm 0,0 UV-I 0 W/m 5,7 C 6,8 C 1,6 km/h (1 Bft) 96,15 %
04.11.2015 20:07 6,8 C 93 % 1022,6 hPa 0,0 l/m 0,0 km/h (0 Bft) S 182 0 min 0,000 mm 0,0 UV-I 0 W/m 5,7 C 6,8 C 0,0 km/h (0 Bft) 100,00 %
04.11.2015 20:08 6,9 C 93 % 1022,6 hPa 0,0 l/m 0,0 km/h (0 Bft) S 182 0 min 0,000 mm 0,0 UV-I 0 W/m 5,8 C 6,9 C 0,0 km/h (0 Bft) 100,00 %
04.11.2015 20:09 6,8 C 93 % 1022,6 hPa 0,0 l/m 0,0 km/h (0 Bft) S 182 0 min 0,000 mm 0,0 UV-I 0 W/m 5,7 C 6,8 C 0,0 km/h (0 Bft) 100,00 %
04.11.2015 20:10 6,8 C 93 % 1022,6 hPa 0,0 l/m 0,0 km/h (0 Bft) S 182 0 min 0,000 mm 0,0 UV-I 0 W/m 5,7 C 6,8 C 0,0 km/h (0 Bft) 100,00 %
04.11.2015 20:11 6,8 C 93 % 1022,6 hPa 0,0 l/m 0,0 km/h (0 Bft) S 182 0 min 0,000 mm 0,0 UV-I 0 W/m 5,7 C 6,8 C 0,0 km/h (0 Bft) 100,00 %
04.11.2015 20:12 6,8 C 93 % 1022,6 hPa 0,0 l/m 0,0 km/h (0 Bft) S 182 0 min 0,000 mm 0,0 UV-I 0 W/m 5,7 C 6,8 C 0,0 km/h (0 Bft) 95,65 %
04.11.2015 20:13 6,8 C 93 % 1022,6 hPa 0,0 l/m 0,0 km/h (0 Bft) S 182 0 min 0,000 mm 0,0 UV-I 0 W/m 5,7 C 6,8 C 0,0 km/h (0 Bft) 100,00 %
04.11.2015 20:14 6,8 C 93 % 1022,6 hPa 0,0 l/m 0,0 km/h (0 Bft) S 182 0 min 0,000 mm 0,0 UV-I 0 W/m 5,7 C 6,8 C 0,0 km/h (0 Bft) 100,00 %
04.11.2015 20:15 6,8 C 93 % 1022,6 hPa 0,0 l/m 0,1 km/h (0 Bft) S 182 0 min 0,000 mm 0,0 UV-I 0 W/m 5,7 C 6,8 C 1,6 km/h (1 Bft) 100,00 %
04.11.2015 20:16 6,8 C 93 % 1022,6 hPa 0,0 l/m 0,9 km/h (0 Bft) S 182 0 min 0,000 mm 0,0 UV-I 0 W/m 5,7 C 6,8 C 1,6 km/h (1 Bft) 100,00 %
04.11.2015 20:17 6,8 C 93 % 1022,6 hPa 0,0 l/m 1,1 km/h (1 Bft) S 182 0 min 0,000 mm 0,0 UV-I 0 W/m 5,7 C 6,8 C 1,6 km/h (1 Bft) 100,00 %
04.11.2015 20:18 6,8 C 93 % 1022,6 hPa 0,0 l/m 1,1 km/h (1 Bft) S 182 0 min 0,000 mm 0,0 UV-I 0 W/m 5,7 C 6,8 C 1,6 km/h (1 Bft) 100,00 %
04.11.2015 20:19 6,8 C 93 % 1022,6 hPa 0,0 l/m 1,1 km/h (1 Bft) S 182 0 min 0,000 mm 0,0 UV-I 0 W/m 5,7 C 6,8 C 1,6 km/h (1 Bft) 100,00 %
04.11.2015 20:20 6,8 C 93 % 1022,7 hPa 0,0 l/m 1,0 km/h (0 Bft) S 182 0 min 0,000 mm 0,0 UV-I 0 W/m 5,7 C 6,8 C 1,6 km/h (1 Bft) 100,00 %
04.11.2015 20:21 6,8 C 93 % 1022,6 hPa 0,0 l/m 0,6 km/h (0 Bft) S 182 0 min 0,000 mm 0,0 UV-I 0 W/m 5,7 C 6,8 C 1,6 km/h (1 Bft) 96,55 %
04.11.2015 20:22 6,7 C 93 % 1022,6 hPa 0,0 l/m 0,2 km/h (0 Bft) S 182 0 min 0,000 mm 0,0 UV-I 0 W/m 5,6 C 6,7 C 1,6 km/h (1 Bft) 100,00 %
04.11.2015 20:23 6,7 C 94 % 1022,7 hPa 0,0 l/m 0,1 km/h (0 Bft) S 182 0 min 0,000 mm 0,0 UV-I 0 W/m 5,8 C 6,7 C 1,6 km/h (1 Bft) 91,30 %
04.11.2015 20:24 6,7 C 94 % 1022,6 hPa 0,0 l/m 0,4 km/h (0 Bft) S 182 0 min 0,000 mm 0,0 UV-I 0 W/m 5,8 C 6,7 C 1,6 km/h (1 Bft) 100,00 %
04.11.2015 20:25 6,7 C 94 % 1022,7 hPa 0,0 l/m 0,5 km/h (0 Bft) S 182 0 min 0,000 mm 0,0 UV-I 0 W/m 5,8 C 6,7 C 1,6 km/h (1 Bft) 100,00 %
04.11.2015 20:26 6,7 C 94 % 1022,6 hPa 0,0 l/m 1,5 km/h (1 Bft) S 182 0 min 0,000 mm 0,0 UV-I 0 W/m 5,8 C 6,7 C 1,6 km/h (1 Bft) 100,00 %
04.11.2015 20:27 6,7 C 94 % 1022,6 hPa 0,0 l/m 1,5 km/h (1 Bft) S 182 0 min 0,000 mm 0,0 UV-I 0 W/m 5,8 C 6,7 C 3,2 km/h (1 Bft) 100,00 %
04.11.2015 20:28 6,7 C 94 % 1022,6 hPa 0,0 l/m 2,1 km/h (1 Bft) S 182 0 min 0,000 mm 0,0 UV-I 0 W/m 5,8 C 6,7 C 3,2 km/h (1 Bft) 100,00 %
04.11.2015 20:29 6,8 C 94 % 1022,6 hPa 0,0 l/m 1,3 km/h (1 Bft) S 182 0 min 0,000 mm 0,0 UV-I 0 W/m 5,9 C 6,8 C 1,6 km/h (1 Bft) 100,00 %
04.11.2015 20:30 6,8 C 94 % 1022,6 hPa 0,0 l/m 0,3 km/h (0 Bft) S 182 0 min 0,000 mm 0,0 UV-I 0 W/m 5,9 C 6,8 C 1,6 km/h (1 Bft) 100,00 %
04.11.2015 20:31 6,8 C 94 % 1022,6 hPa 0,0 l/m 0,1 km/h (0 Bft) S 182 0 min 0,000 mm 0,0 UV-I 0 W/m 5,9 C 6,8 C 1,6 km/h (1 Bft) 91,30 %
04.11.2015 20:32 6,8 C 94 % 1022,6 hPa 0,0 l/m 0,3 km/h (0 Bft) S 182 0 min 0,000 mm 0,0 UV-I 0 W/m 5,9 C 6,8 C 1,6 km/h (1 Bft) 100,00 %
04.11.2015 20:33 6,9 C 93 % 1022,5 hPa 0,0 l/m 0,2 km/h (0 Bft) S 182 0 min 0,000 mm 0,0 UV-I 0 W/m 5,8 C 6,9 C 1,6 km/h (1 Bft) 100,00 %
04.11.2015 20:34 6,9 C 93 % 1022,6 hPa 0,0 l/m 0,5 km/h (0 Bft) S 182 0 min 0,000 mm 0,0 UV-I 0 W/m 5,8 C 6,9 C 1,6 km/h (1 Bft) 96,55 %
04.11.2015 20:35 6,9 C 94 % 1022,6 hPa 0,0 l/m 1,0 km/h (0 Bft) S 182 0 min 0,000 mm 0,0 UV-I 0 W/m 6,0 C 6,9 C 1,6 km/h (1 Bft) 100,00 %
04.11.2015 20:36 7,0 C 93 % 1022,6 hPa 0,0 l/m 0,9 km/h (0 Bft) S 182 0 min 0,000 mm 0,0 UV-I 0 W/m 5,9 C 7,0 C 3,2 km/h (1 Bft) 100,00 %
04.11.2015 20:37 7,1 C 93 % 1022,6 hPa 0,0 l/m 0,6 km/h (0 Bft) S 182 0 min 0,000 mm 0,0 UV-I 0 W/m 6,0 C 7,1 C 1,6 km/h (1 Bft) 100,00 %
04.11.2015 20:38 7,1 C 93 % 1022,7 hPa 0,0 l/m 1,3 km/h (1 Bft) S 182 0 min 0,000 mm 0,0 UV-I 0 W/m 6,0 C 7,1 C 3,2 km/h (1 Bft) 100,00 %
04.11.2015 20:39 7,1 C 93 % 1022,7 hPa 0,0 l/m 1,2 km/h (1 Bft) S 182 0 min 0,000 mm 0,0 UV-I 0 W/m 6,0 C 7,1 C 1,6 km/h (1 Bft) 100,00 %
04.11.2015 20:40 7,2 C 93 % 1022,7 hPa 0,0 l/m 1,1 km/h (1 Bft) S 182 0 min 0,000 mm 0,0 UV-I 0 W/m 6,1 C 7,2 C 1,6 km/h (1 Bft) 100,00 %
04.11.2015 20:41 7,2 C 93 % 1022,7 hPa 0,0 l/m 1,4 km/h (1 Bft) S 182 0 min 0,000 mm 0,0 UV-I 0 W/m 6,1 C 7,2 C 1,6 km/h (1 Bft) 100,00 %
04.11.2015 20:42 7,2 C 93 % 1022,7 hPa 0,0 l/m 1,2 km/h (1 Bft) S 182 0 min 0,000 mm 0,0 UV-I 0 W/m 6,1 C 7,2 C 1,6 km/h (1 Bft) 96,15 %
04.11.2015 20:43 7,2 C 93 % 1022,7 hPa 0,0 l/m 1,4 km/h (1 Bft) S 182 0 min 0,000 mm 0,0 UV-I 0 W/m 6,1 C 7,2 C 3,2 km/h (1 Bft) 100,00 %
04.11.2015 20:44 7,3 C 93 % 1022,6 hPa 0,0 l/m 1,0 km/h (0 Bft) S 182 0 min 0,000 mm 0,0 UV-I 0 W/m 6,2 C 7,3 C 1,6 km/h (1 Bft) 100,00 %
04.11.2015 20:45 7,3 C 93 % 1022,6 hPa 0,0 l/m 1,3 km/h (1 Bft) S 182 0 min 0,000 mm 0,0 UV-I 0 W/m 6,2 C 7,3 C 3,2 km/h (1 Bft) 100,00 %
04.11.2015 20:46 7,3 C 92 % 1022,6 hPa 0,0 l/m 1,0 km/h (0 Bft) S 182 0 min 0,000 mm 0,0 UV-I 0 W/m 6,1 C 7,3 C 1,6 km/h (1 Bft) 100,00 %
04.11.2015 20:47 7,3 C 92 % 1022,6 hPa 0,0 l/m 2,0 km/h (1 Bft) S 173 0 min 0,000 mm 0,0 UV-I 0 W/m 6,1 C 7,3 C 3,2 km/h (1 Bft) 95,83 %
04.11.2015 20:48 7,4 C 93 % 1022,6 hPa 0,0 l/m 1,7 km/h (1 Bft) S 175 0 min 0,000 mm 0,0 UV-I 0 W/m 6,3 C 7,4 C 3,2 km/h (1 Bft) 100,00 %
04.11.2015 20:49 7,4 C 92 % 1022,6 hPa 0,0 l/m 0,3 km/h (0 Bft) S 175 0 min 0,000 mm 0,0 UV-I 0 W/m 6,2 C 7,4 C 1,6 km/h (1 Bft) 100,00 %
04.11.2015 20:50 7,4 C 92 % 1022,6 hPa 0,0 l/m 0,1 km/h (0 Bft) S 175 0 min 0,000 mm 0,0 UV-I 0 W/m 6,2 C 7,4 C 1,6 km/h (1 Bft) 100,00 %
04.11.2015 20:51 7,4 C 92 % 1022,6 hPa 0,0 l/m 0,6 km/h (0 Bft) S 175 0 min 0,000 mm 0,0 UV-I 0 W/m 6,2 C 7,4 C 1,6 km/h (1 Bft) 100,00 %
04.11.2015 20:52 7,5 C 92 % 1022,6 hPa 0,0 l/m 0,0 km/h (0 Bft) S 175 0 min 0,000 mm 0,0 UV-I 0 W/m 6,3 C 7,5 C 0,0 km/h (0 Bft) 100,00 %
04.11.2015 20:53 7,5 C 92 % 1022,6 hPa 0,0 l/m 0,0 km/h (0 Bft) S 175 0 min 0,000 mm 0,0 UV-I 0 W/m 6,3 C 7,5 C 0,0 km/h (0 Bft) 100,00 %
04.11.2015 20:54 7,5 C 92 % 1022,6 hPa 0,0 l/m 0,1 km/h (0 Bft) S 175 0 min 0,000 mm 0,0 UV-I 0 W/m 6,3 C 7,5 C 1,6 km/h (1 Bft) 100,00 %
04.11.2015 20:55 7,5 C 92 % 1022,5 hPa 0,0 l/m 0,2 km/h (0 Bft) S 175 0 min 0,000 mm 0,0 UV-I 0 W/m 6,3 C 7,5 C 1,6 km/h (1 Bft) 100,00 %
04.11.2015 20:56 7,6 C 92 % 1022,6 hPa 0,0 l/m 0,2 km/h (0 Bft) S 175 0 min 0,000 mm 0,0 UV-I 0 W/m 6,4 C 7,6 C 1,6 km/h (1 Bft) 100,00 %
04.11.2015 20:57 7,6 C 92 % 1022,6 hPa 0,0 l/m 0,4 km/h (0 Bft) S 175 0 min 0,000 mm 0,0 UV-I 0 W/m 6,4 C 7,6 C 1,6 km/h (1 Bft) 100,00 %
04.11.2015 20:58 7,6 C 92 % 1022,6 hPa 0,0 l/m 0,6 km/h (0 Bft) S 175 0 min 0,000 mm 0,0 UV-I 0 W/m 6,4 C 7,6 C 1,6 km/h (1 Bft) 100,00 %
04.11.2015 20:59 7,6 C 92 % 1022,5 hPa 0,0 l/m 0,6 km/h (0 Bft) S 175 0 min 0,000 mm 0,0 UV-I 0 W/m 6,4 C 7,6 C 1,6 km/h (1 Bft) 100,00 %
04.11.2015 21:00 7,5 C 92 % 1022,6 hPa 0,0 l/m 0,4 km/h (0 Bft) S 175 0 min 0,000 mm 0,0 UV-I 0 W/m 6,3 C 7,5 C 1,6 km/h (1 Bft) 100,00 %
04.11.2015 21:02 7,4 C 91 % 1022,6 hPa 0,0 l/m 0,9 km/h (0 Bft) S 175 0 min 0,000 mm 0,0 UV-I 0 W/m 6,0 C 7,4 C 1,6 km/h (1 Bft) 100,00 %
04.11.2015 21:03 7,3 C 91 % 1022,6 hPa 0,0 l/m 0,9 km/h (0 Bft) S 175 0 min 0,000 mm 0,0 UV-I 0 W/m 5,9 C 7,3 C 1,6 km/h (1 Bft) 100,00 %
04.11.2015 21:04 7,2 C 92 % 1022,6 hPa 0,0 l/m 0,7 km/h (0 Bft) S 175 0 min 0,000 mm 0,0 UV-I 0 W/m 6,0 C 7,2 C 1,6 km/h (1 Bft) 100,00 %
04.11.2015 21:05 7,1 C 92 % 1022,6 hPa 0,0 l/m 0,1 km/h (0 Bft) S 175 0 min 0,000 mm 0,0 UV-I 0 W/m 5,9 C 7,1 C 1,6 km/h (1 Bft) 100,00 %
04.11.2015 21:06 7,0 C 92 % 1022,6 hPa 0,0 l/m 0,0 km/h (0 Bft) S 175 0 min 0,000 mm 0,0 UV-I 0 W/m 5,8 C 7,0 C 0,0 km/h (0 Bft) 100,00 %
04.11.2015 21:07 6,9 C 92 % 1022,5 hPa 0,0 l/m 0,0 km/h (0 Bft) S 175 0 min 0,000 mm 0,0 UV-I 0 W/m 5,7 C 6,9 C 0,0 km/h (0 Bft) 100,00 %
04.11.2015 21:08 6,8 C 93 % 1022,5 hPa 0,0 l/m 0,7 km/h (0 Bft) S 175 0 min 0,000 mm 0,0 UV-I 0 W/m 5,7 C 6,8 C 1,6 km/h (1 Bft) 100,00 %
04.11.2015 21:09 6,7 C 93 % 1022,5 hPa 0,0 l/m 0,6 km/h (0 Bft) S 175 0 min 0,000 mm 0,0 UV-I 0 W/m 5,6 C 6,7 C 1,6 km/h (1 Bft) 100,00 %
04.11.2015 21:10 6,7 C 93 % 1022,5 hPa 0,0 l/m 0,0 km/h (0 Bft) S 175 0 min 0,000 mm 0,0 UV-I 0 W/m 5,6 C 6,7 C 0,0 km/h (0 Bft) 100,00 %
04.11.2015 21:11 6,7 C 94 % 1022,5 hPa 0,0 l/m 0,0 km/h (0 Bft) S 175 0 min 0,000 mm 0,0 UV-I 0 W/m 5,8 C 6,7 C 0,0 km/h (0 Bft) 99,30 %
04.11.2015 21:12 6,6 C 94 % 1022,5 hPa 0,0 l/m 0,0 km/h (0 Bft) S 175 0 min 0,000 mm 0,0 UV-I 0 W/m 5,7 C 6,6 C 0,0 km/h (0 Bft) 100,00 %
04.11.2015 21:13 6,6 C 94 % 1022,5 hPa 0,0 l/m 0,0 km/h (0 Bft) S 175 0 min 0,000 mm 0,0 UV-I 0 W/m 5,7 C 6,6 C 0,0 km/h (0 Bft) 100,00 %
04.11.2015 21:14 6,6 C 94 % 1022,5 hPa 0,0 l/m 0,9 km/h (0 Bft) S 175 0 min 0,000 mm 0,0 UV-I 0 W/m 5,7 C 6,6 C 1,6 km/h (1 Bft) 100,00 %
04.11.2015 21:15 6,6 C 94 % 1022,5 hPa 0,0 l/m 0,5 km/h (0 Bft) S 175 0 min 0,000 mm 0,0 UV-I 0 W/m 5,7 C 6,6 C 1,6 km/h (1 Bft) 100,00 %
04.11.2015 21:16 6,6 C 94 % 1022,5 hPa 0,0 l/m 0,1 km/h (0 Bft) S 175 0 min 0,000 mm 0,0 UV-I 0 W/m 5,7 C 6,6 C 1,6 km/h (1 Bft) 95,83 %
04.11.2015 21:17 6,6 C 94 % 1022,5 hPa 0,0 l/m 0,0 km/h (0 Bft) S 175 0 min 0,000 mm 0,0 UV-I 0 W/m 5,7 C 6,6 C 0,0 km/h (0 Bft) 100,00 %
04.11.2015 21:18 6,5 C 94 % 1022,5 hPa 0,0 l/m 0,0 km/h (0 Bft) S 175 0 min 0,000 mm 0,0 UV-I 0 W/m 5,6 C 6,5 C 0,0 km/h (0 Bft) 96,15 %
04.11.2015 21:19 6,5 C 94 % 1022,5 hPa 0,0 l/m 0,0 km/h (0 Bft) S 175 0 min 0,000 mm 0,0 UV-I 0 W/m 5,6 C 6,5 C 0,0 km/h (0 Bft) 100,00 %
04.11.2015 21:20 6,5 C 94 % 1022,5 hPa 0,0 l/m 0,0 km/h (0 Bft) S 175 0 min 0,000 mm 0,0 UV-I 0 W/m 5,6 C 6,5 C 0,0 km/h (0 Bft) 96,15 %
04.11.2015 21:21 6,4 C 94 % 1022,5 hPa 0,0 l/m 0,4 km/h (0 Bft) S 175 0 min 0,000 mm 0,0 UV-I 0 W/m 5,5 C 6,4 C 1,6 km/h (1 Bft) 100,00 %
04.11.2015 21:22 6,4 C 94 % 1022,5 hPa 0,0 l/m 0,0 km/h (0 Bft) S 175 0 min 0,000 mm 0,0 UV-I 0 W/m 5,5 C 6,4 C 0,0 km/h (0 Bft) 100,00 %
04.11.2015 21:23 6,4 C 94 % 1022,6 hPa 0,0 l/m 0,0 km/h (0 Bft) S 175 0 min 0,000 mm 0,0 UV-I 0 W/m 5,5 C 6,4 C 0,0 km/h (0 Bft) 100,00 %
04.11.2015 21:24 6,3 C 94 % 1022,5 hPa 0,0 l/m 0,1 km/h (0 Bft) S 175 0 min 0,000 mm 0,0 UV-I 0 W/m 5,4 C 6,3 C 1,6 km/h (1 Bft) 100,00 %
04.11.2015 21:25 6,3 C 94 % 1022,5 hPa 0,0 l/m 0,0 km/h (0 Bft) S 175 0 min 0,000 mm 0,0 UV-I 0 W/m 5,4 C 6,3 C 0,0 km/h (0 Bft) 100,00 %
04.11.2015 21:26 6,2 C 94 % 1022,5 hPa 0,0 l/m 0,0 km/h (0 Bft) S 175 0 min 0,000 mm 0,0 UV-I 0 W/m 5,3 C 6,2 C 0,0 km/h (0 Bft) 100,00 %
04.11.2015 21:27 6,2 C 94 % 1022,5 hPa 0,0 l/m 0,0 km/h (0 Bft) S 175 0 min 0,000 mm 0,0 UV-I 0 W/m 5,3 C 6,2 C 0,0 km/h (0 Bft) 100,00 %
04.11.2015 21:28 6,2 C 94 % 1022,4 hPa 0,0 l/m 0,0 km/h (0 Bft) S 175 0 min 0,000 mm 0,0 UV-I 0 W/m 5,3 C 6,2 C 0,0 km/h (0 Bft) 100,00 %
04.11.2015 21:29 6,1 C 94 % 1022,5 hPa 0,0 l/m 0,0 km/h (0 Bft) S 175 0 min 0,000 mm 0,0 UV-I 0 W/m 5,2 C 6,1 C 0,0 km/h (0 Bft) 100,00 %
04.11.2015 21:30 6,1 C 94 % 1022,5 hPa 0,0 l/m 0,0 km/h (0 Bft) S 175 0 min 0,000 mm 0,0 UV-I 0 W/m 5,2 C 6,1 C 0,0 km/h (0 Bft) 100,00 %
04.11.2015 21:31 6,1 C 94 % 1022,5 hPa 0,0 l/m 0,0 km/h (0 Bft) S 175 0 min 0,000 mm 0,0 UV-I 0 W/m 5,2 C 6,1 C 0,0 km/h (0 Bft) 100,00 %
04.11.2015 21:32 6,1 C 94 % 1022,6 hPa 0,0 l/m 0,0 km/h (0 Bft) S 175 0 min 0,000 mm 0,0 UV-I 0 W/m 5,2 C 6,1 C 0,0 km/h (0 Bft) 100,00 %
04.11.2015 21:33 6,1 C 94 % 1022,6 hPa 0,0 l/m 0,0 km/h (0 Bft) S 175 0 min 0,000 mm 0,0 UV-I 0 W/m 5,2 C 6,1 C 0,0 km/h (0 Bft) 100,00 %
04.11.2015 21:34 6,1 C 94 % 1022,5 hPa 0,0 l/m 0,0 km/h (0 Bft) S 175 0 min 0,000 mm 0,0 UV-I 0 W/m 5,2 C 6,1 C 0,0 km/h (0 Bft) 100,00 %
04.11.2015 21:35 6,1 C 94 % 1022,5 hPa 0,0 l/m 0,0 km/h (0 Bft) S 175 0 min 0,000 mm 0,0 UV-I 0 W/m 5,2 C 6,1 C 0,0 km/h (0 Bft) 100,00 %
04.11.2015 21:36 6,1 C 94 % 1022,5 hPa 0,0 l/m 0,0 km/h (0 Bft) S 175 0 min 0,000 mm 0,0 UV-I 0 W/m 5,2 C 6,1 C 0,0 km/h (0 Bft) 100,00 %
04.11.2015 21:37 6,1 C 94 % 1022,5 hPa 0,0 l/m 0,2 km/h (0 Bft) S 175 0 min 0,000 mm 0,0 UV-I 0 W/m 5,2 C 6,1 C 1,6 km/h (1 Bft) 100,00 %
04.11.2015 21:38 6,1 C 94 % 1022,5 hPa 0,0 l/m 0,2 km/h (0 Bft) S 175 0 min 0,000 mm 0,0 UV-I 0 W/m 5,2 C 6,1 C 1,6 km/h (1 Bft) 100,00 %
04.11.2015 21:39 6,1 C 94 % 1022,5 hPa 0,0 l/m 0,0 km/h (0 Bft) S 175 0 min 0,000 mm 0,0 UV-I 0 W/m 5,2 C 6,1 C 0,0 km/h (0 Bft) 100,00 %
04.11.2015 21:40 6,1 C 95 % 1022,5 hPa 0,0 l/m 0,0 km/h (0 Bft) S 175 0 min 0,000 mm 0,0 UV-I 0 W/m 5,4 C 6,1 C 0,0 km/h (0 Bft) 100,00 %
04.11.2015 21:41 6,1 C 94 % 1022,5 hPa 0,0 l/m 0,0 km/h (0 Bft) S 175 0 min 0,000 mm 0,0 UV-I 0 W/m 5,2 C 6,1 C 0,0 km/h (0 Bft) 100,00 %
04.11.2015 21:42 6,1 C 94 % 1022,5 hPa 0,0 l/m 0,0 km/h (0 Bft) S 175 0 min 0,000 mm 0,0 UV-I 0 W/m 5,2 C 6,1 C 0,0 km/h (0 Bft) 100,00 %
04.11.2015 21:43 6,1 C 94 % 1022,5 hPa 0,0 l/m 0,0 km/h (0 Bft) S 175 0 min 0,000 mm 0,0 UV-I 0 W/m 5,2 C 6,1 C 0,0 km/h (0 Bft) 95,65 %
04.11.2015 21:44 6,1 C 95 % 1022,6 hPa 0,0 l/m 0,0 km/h (0 Bft) S 175 0 min 0,000 mm 0,0 UV-I 0 W/m 5,4 C 6,1 C 0,0 km/h (0 Bft) 95,83 %
04.11.2015 21:45 6,2 C 94 % 1022,5 hPa 0,0 l/m 0,0 km/h (0 Bft) S 175 0 min 0,000 mm 0,0 UV-I 0 W/m 5,3 C 6,2 C 0,0 km/h (0 Bft) 100,00 %
04.11.2015 21:46 6,2 C 94 % 1022,5 hPa 0,0 l/m 0,1 km/h (0 Bft) S 175 0 min 0,000 mm 0,0 UV-I 0 W/m 5,3 C 6,2 C 1,6 km/h (1 Bft) 100,00 %
04.11.2015 21:47 6,2 C 94 % 1022,5 hPa 0,0 l/m 0,1 km/h (0 Bft) S 175 0 min 0,000 mm 0,0 UV-I 0 W/m 5,3 C 6,2 C 1,6 km/h (1 Bft) 100,00 %
04.11.2015 21:48 6,1 C 95 % 1022,6 hPa 0,0 l/m 0,0 km/h (0 Bft) S 175 0 min 0,000 mm 0,0 UV-I 0 W/m 5,4 C 6,1 C 0,0 km/h (0 Bft) 100,00 %
04.11.2015 21:49 6,1 C 94 % 1022,6 hPa 0,0 l/m 0,0 km/h (0 Bft) S 175 0 min 0,000 mm 0,0 UV-I 0 W/m 5,2 C 6,1 C 0,0 km/h (0 Bft) 95,65 %
04.11.2015 21:50 6,1 C 94 % 1022,6 hPa 0,0 l/m 0,0 km/h (0 Bft) S 175 0 min 0,000 mm 0,0 UV-I 0 W/m 5,2 C 6,1 C 0,0 km/h (0 Bft) 100,00 %
04.11.2015 21:51 6,1 C 94 % 1022,6 hPa 0,0 l/m 0,0 km/h (0 Bft) S 175 0 min 0,000 mm 0,0 UV-I 0 W/m 5,2 C 6,1 C 0,0 km/h (0 Bft) 100,00 %
04.11.2015 21:52 6,1 C 94 % 1022,6 hPa 0,0 l/m 0,0 km/h (0 Bft) S 175 0 min 0,000 mm 0,0 UV-I 0 W/m 5,2 C 6,1 C 0,0 km/h (0 Bft) 100,00 %
04.11.2015 21:53 6,1 C 94 % 1022,5 hPa 0,0 l/m 0,0 km/h (0 Bft) S 175 0 min 0,000 mm 0,0 UV-I 0 W/m 5,2 C 6,1 C 0,0 km/h (0 Bft) 100,00 %
04.11.2015 21:54 6,1 C 94 % 1022,5 hPa 0,0 l/m 0,0 km/h (0 Bft) S 175 0 min 0,000 mm 0,0 UV-I 0 W/m 5,2 C 6,1 C 0,0 km/h (0 Bft) 100,00 %
04.11.2015 21:55 6,1 C 94 % 1022,5 hPa 0,0 l/m 0,0 km/h (0 Bft) S 175 0 min 0,000 mm 0,0 UV-I 0 W/m 5,2 C 6,1 C 0,0 km/h (0 Bft) 100,00 %
04.11.2015 21:56 6,1 C 94 % 1022,5 hPa 0,0 l/m 0,0 km/h (0 Bft) S 175 0 min 0,000 mm 0,0 UV-I 0 W/m 5,2 C 6,1 C 0,0 km/h (0 Bft) 100,00 %
04.11.2015 21:57 6,1 C 94 % 1022,6 hPa 0,0 l/m 0,0 km/h (0 Bft) S 175 0 min 0,000 mm 0,0 UV-I 0 W/m 5,2 C 6,1 C 0,0 km/h (0 Bft) 100,00 %
04.11.2015 21:58 6,1 C 94 % 1022,6 hPa 0,0 l/m 0,0 km/h (0 Bft) S 175 0 min 0,000 mm 0,0 UV-I 0 W/m 5,2 C 6,1 C 0,0 km/h (0 Bft) 100,00 %
04.11.2015 21:59 6,2 C 94 % 1022,6 hPa 0,0 l/m 0,0 km/h (0 Bft) S 175 0 min 0,000 mm 0,0 UV-I 0 W/m 5,3 C 6,2 C 0,0 km/h (0 Bft) 100,00 %
04.11.2015 22:00 6,2 C 94 % 1022,6 hPa 0,0 l/m 0,0 km/h (0 Bft) S 175 0 min 0,000 mm 0,0 UV-I 0 W/m 5,3 C 6,2 C 0,0 km/h (0 Bft) 91,30 %
04.11.2015 22:01 6,2 C 94 % 1022,6 hPa 0,0 l/m 0,0 km/h (0 Bft) S 175 0 min 0,000 mm 0,0 UV-I 0 W/m 5,3 C 6,2 C 0,0 km/h (0 Bft) 100,00 %
04.11.2015 22:02 6,2 C 94 % 1022,6 hPa 0,0 l/m 0,0 km/h (0 Bft) S 175 0 min 0,000 mm 0,0 UV-I 0 W/m 5,3 C 6,2 C 0,0 km/h (0 Bft) 95,65 %
04.11.2015 22:03 6,2 C 94 % 1022,6 hPa 0,0 l/m 0,0 km/h (0 Bft) S 175 0 min 0,000 mm 0,0 UV-I 0 W/m 5,3 C 6,2 C 0,0 km/h (0 Bft) 100,00 %
04.11.2015 22:04 6,2 C 94 % 1022,5 hPa 0,0 l/m 0,0 km/h (0 Bft) S 175 0 min 0,000 mm 0,0 UV-I 0 W/m 5,3 C 6,2 C 0,0 km/h (0 Bft) 100,00 %
04.11.2015 22:05 6,2 C 94 % 1022,6 hPa 0,0 l/m 0,0 km/h (0 Bft) S 175 0 min 0,000 mm 0,0 UV-I 0 W/m 5,3 C 6,2 C 0,0 km/h (0 Bft) 100,00 %
04.11.2015 22:06 6,2 C 94 % 1022,6 hPa 0,0 l/m 0,0 km/h (0 Bft) S 175 0 min 0,000 mm 0,0 UV-I 0 W/m 5,3 C 6,2 C 0,0 km/h (0 Bft) 100,00 %
04.11.2015 22:07 6,2 C 94 % 1022,6 hPa 0,0 l/m 0,0 km/h (0 Bft) S 175 0 min 0,000 mm 0,0 UV-I 0 W/m 5,3 C 6,2 C 0,0 km/h (0 Bft) 95,83 %
04.11.2015 22:08 6,2 C 94 % 1022,6 hPa 0,0 l/m 0,0 km/h (0 Bft) S 175 0 min 0,000 mm 0,0 UV-I 0 W/m 5,3 C 6,2 C 0,0 km/h (0 Bft) 100,00 %
04.11.2015 22:09 6,2 C 94 % 1022,6 hPa 0,0 l/m 0,0 km/h (0 Bft) S 175 0 min 0,000 mm 0,0 UV-I 0 W/m 5,3 C 6,2 C 0,0 km/h (0 Bft) 91,67 %
04.11.2015 22:10 6,2 C 94 % 1022,6 hPa 0,0 l/m 0,0 km/h (0 Bft) S 175 0 min 0,000 mm 0,0 UV-I 0 W/m 5,3 C 6,2 C 0,0 km/h (0 Bft) 100,00 %
04.11.2015 22:11 6,2 C 94 % 1022,6 hPa 0,0 l/m 0,1 km/h (0 Bft) S 175 0 min 0,000 mm 0,0 UV-I 0 W/m 5,3 C 6,2 C 1,6 km/h (1 Bft) 95,83 %
04.11.2015 22:12 6,2 C 94 % 1022,5 hPa 0,0 l/m 0,0 km/h (0 Bft) S 175 0 min 0,000 mm 0,0 UV-I 0 W/m 5,3 C 6,2 C 0,0 km/h (0 Bft) 100,00 %
04.11.2015 22:13 6,2 C 94 % 1022,6 hPa 0,0 l/m 0,0 km/h (0 Bft) S 175 0 min 0,000 mm 0,0 UV-I 0 W/m 5,3 C 6,2 C 0,0 km/h (0 Bft) 100,00 %
04.11.2015 22:14 6,3 C 94 % 1022,5 hPa 0,0 l/m 0,7 km/h (0 Bft) S 175 0 min 0,000 mm 0,0 UV-I 0 W/m 5,4 C 6,3 C 1,6 km/h (1 Bft) 100,00 %
04.11.2015 22:15 6,3 C 94 % 1022,6 hPa 0,0 l/m 1,4 km/h (1 Bft) S 175 0 min 0,000 mm 0,0 UV-I 0 W/m 5,4 C 6,3 C 1,6 km/h (1 Bft) 96,55 %
04.11.2015 22:16 6,3 C 94 % 1022,5 hPa 0,0 l/m 1,0 km/h (0 Bft) S 175 0 min 0,000 mm 0,0 UV-I 0 W/m 5,4 C 6,3 C 1,6 km/h (1 Bft) 100,00 %
04.11.2015 22:17 6,3 C 94 % 1022,5 hPa 0,0 l/m 1,0 km/h (0 Bft) S 175 0 min 0,000 mm 0,0 UV-I 0 W/m 5,4 C 6,3 C 1,6 km/h (1 Bft) 95,65 %
04.11.2015 22:18 6,3 C 94 % 1022,5 hPa 0,0 l/m 1,7 km/h (1 Bft) S 175 0 min 0,000 mm 0,0 UV-I 0 W/m 5,4 C 6,3 C 3,2 km/h (1 Bft) 95,83 %
04.11.2015 22:19 6,3 C 95 % 1022,5 hPa 0,0 l/m 1,1 km/h (1 Bft) S 175 0 min 0,000 mm 0,0 UV-I 0 W/m 5,6 C 6,3 C 1,6 km/h (1 Bft) 100,00 %
04.11.2015 22:20 6,3 C 95 % 1022,5 hPa 0,0 l/m 1,0 km/h (0 Bft) S 175 0 min 0,000 mm 0,0 UV-I 0 W/m 5,6 C 6,3 C 1,6 km/h (1 Bft) 100,00 %
04.11.2015 22:21 6,3 C 95 % 1022,4 hPa 0,0 l/m 0,2 km/h (0 Bft) S 175 0 min 0,000 mm 0,0 UV-I 0 W/m 5,6 C 6,3 C 1,6 km/h (1 Bft) 100,00 %
04.11.2015 22:22 6,3 C 94 % 1022,4 hPa 0,0 l/m 0,9 km/h (0 Bft) S 175 0 min 0,000 mm 0,0 UV-I 0 W/m 5,4 C 6,3 C 1,6 km/h (1 Bft) 100,00 %
04.11.2015 22:23 6,3 C 94 % 1022,4 hPa 0,0 l/m 0,6 km/h (0 Bft) S 175 0 min 0,000 mm 0,0 UV-I 0 W/m 5,4 C 6,3 C 1,6 km/h (1 Bft) 100,00 %
04.11.2015 22:24 6,3 C 94 % 1022,4 hPa 0,0 l/m 0,9 km/h (0 Bft) S 175 0 min 0,000 mm 0,0 UV-I 0 W/m 5,4 C 6,3 C 1,6 km/h (1 Bft) 100,00 %
04.11.2015 22:25 6,3 C 95 % 1022,4 hPa 0,0 l/m 1,0 km/h (0 Bft) S 175 0 min 0,000 mm 0,0 UV-I 0 W/m 5,6 C 6,3 C 1,6 km/h (1 Bft) 100,00 %
04.11.2015 22:26 6,4 C 95 % 1022,4 hPa 0,0 l/m 2,3 km/h (1 Bft) S-SO 163 0 min 0,000 mm 0,0 UV-I 0 W/m 5,7 C 6,4 C 3,2 km/h (1 Bft) 100,00 %
04.11.2015 22:27 6,4 C 95 % 1022,4 hPa 0,0 l/m 1,5 km/h (1 Bft) S-SO 162 0 min 0,000 mm 0,0 UV-I 0 W/m 5,7 C 6,4 C 3,2 km/h (1 Bft) 100,00 %
04.11.2015 22:28 6,4 C 95 % 1022,4 hPa 0,0 l/m 2,1 km/h (1 Bft) S-SO 157 0 min 0,000 mm 0,0 UV-I 0 W/m 5,7 C 6,4 C 3,2 km/h (1 Bft) 100,00 %
04.11.2015 22:29 6,5 C 95 % 1022,5 hPa 0,0 l/m 1,7 km/h (1 Bft) S 180 0 min 0,000 mm 0,0 UV-I 0 W/m 5,8 C 6,5 C 3,2 km/h (1 Bft) 100,00 %
04.11.2015 22:30 6,6 C 95 % 1022,5 hPa 0,0 l/m 1,8 km/h (1 Bft) S 180 0 min 0,000 mm 0,0 UV-I 0 W/m 5,9 C 6,6 C 3,2 km/h (1 Bft) 100,00 %
04.11.2015 22:31 6,6 C 95 % 1022,5 hPa 0,0 l/m 1,1 km/h (1 Bft) S 180 0 min 0,000 mm 0,0 UV-I 0 W/m 5,9 C 6,6 C 3,2 km/h (1 Bft) 100,00 %
04.11.2015 22:32 6,7 C 95 % 1022,5 hPa 0,0 l/m 1,2 km/h (1 Bft) S 180 0 min 0,000 mm 0,0 UV-I 0 W/m 6,0 C 6,7 C 1,6 km/h (1 Bft) 100,00 %
04.11.2015 22:33 6,7 C 95 % 1022,5 hPa 0,0 l/m 1,7 km/h (1 Bft) S 180 0 min 0,000 mm 0,0 UV-I 0 W/m 6,0 C 6,7 C 3,2 km/h (1 Bft) 100,00 %
04.11.2015 22:34 6,7 C 95 % 1022,4 hPa 0,0 l/m 1,0 km/h (0 Bft) S 180 0 min 0,000 mm 0,0 UV-I 0 W/m 6,0 C 6,7 C 1,6 km/h (1 Bft) 96,15 %
04.11.2015 22:35 6,7 C 95 % 1022,5 hPa 0,0 l/m 1,6 km/h (1 Bft) W-SW 237 0 min 0,000 mm 0,0 UV-I 0 W/m 6,0 C 6,7 C 3,2 km/h (1 Bft) 100,00 %
04.11.2015 22:36 6,8 C 95 % 1022,5 hPa 0,0 l/m 0,8 km/h (0 Bft) W-SW 237 0 min 0,000 mm 0,0 UV-I 0 W/m 6,1 C 6,8 C 1,6 km/h (1 Bft) 100,00 %
04.11.2015 22:37 6,8 C 95 % 1022,4 hPa 0,0 l/m 1,6 km/h (1 Bft) W-SW 237 0 min 0,000 mm 0,0 UV-I 0 W/m 6,1 C 6,8 C 3,2 km/h (1 Bft) 100,00 %
04.11.2015 22:38 6,9 C 94 % 1022,4 hPa 0,0 l/m 1,4 km/h (1 Bft) W-SW 237 0 min 0,000 mm 0,0 UV-I 0 W/m 6,0 C 6,9 C 3,2 km/h (1 Bft) 100,00 %
04.11.2015 22:39 6,9 C 94 % 1022,5 hPa 0,0 l/m 0,9 km/h (0 Bft) W-SW 237 0 min 0,000 mm 0,0 UV-I 0 W/m 6,0 C 6,9 C 1,6 km/h (1 Bft) 100,00 %
04.11.2015 22:40 6,9 C 94 % 1022,5 hPa 0,0 l/m 1,1 km/h (1 Bft) W-SW 237 0 min 0,000 mm 0,0 UV-I 0 W/m 6,0 C 6,9 C 1,6 km/h (1 Bft) 91,30 %
04.11.2015 22:41 6,9 C 94 % 1022,6 hPa 0,0 l/m 1,3 km/h (1 Bft) W-SW 237 0 min 0,000 mm 0,0 UV-I 0 W/m 6,0 C 6,9 C 1,6 km/h (1 Bft) 100,00 %
04.11.2015 22:42 6,9 C 94 % 1022,5 hPa 0,0 l/m 0,8 km/h (0 Bft) W-SW 237 0 min 0,000 mm 0,0 UV-I 0 W/m 6,0 C 6,9 C 1,6 km/h (1 Bft) 100,00 %
04.11.2015 22:43 6,9 C 94 % 1022,5 hPa 0,0 l/m 0,2 km/h (0 Bft) W-SW 237 0 min 0,000 mm 0,0 UV-I 0 W/m 6,0 C 6,9 C 1,6 km/h (1 Bft) 100,00 %
04.11.2015 22:44 6,9 C 94 % 1022,6 hPa 0,0 l/m 0,0 km/h (0 Bft) W-SW 237 0 min 0,000 mm 0,0 UV-I 0 W/m 6,0 C 6,9 C 0,0 km/h (0 Bft) 100,00 %
04.11.2015 22:45 6,9 C 94 % 1022,5 hPa 0,0 l/m 0,0 km/h (0 Bft) W-SW 237 0 min 0,000 mm 0,0 UV-I 0 W/m 6,0 C 6,9 C 0,0 km/h (0 Bft) 100,00 %
04.11.2015 22:46 6,8 C 94 % 1022,6 hPa 0,0 l/m 0,0 km/h (0 Bft) W-SW 237 0 min 0,000 mm 0,0 UV-I 0 W/m 5,9 C 6,8 C 0,0 km/h (0 Bft) 100,00 %
04.11.2015 22:47 6,8 C 94 % 1022,6 hPa 0,0 l/m 0,0 km/h (0 Bft) W-SW 237 0 min 0,000 mm 0,0 UV-I 0 W/m 5,9 C 6,8 C 0,0 km/h (0 Bft) 95,83 %
04.11.2015 22:48 6,8 C 94 % 1022,6 hPa 0,0 l/m 0,6 km/h (0 Bft) W-SW 237 0 min 0,000 mm 0,0 UV-I 0 W/m 5,9 C 6,8 C 1,6 km/h (1 Bft) 100,00 %
04.11.2015 22:49 6,8 C 94 % 1022,6 hPa 0,0 l/m 1,1 km/h (1 Bft) W-SW 237 0 min 0,000 mm 0,0 UV-I 0 W/m 5,9 C 6,8 C 1,6 km/h (1 Bft) 95,83 %
04.11.2015 22:50 6,8 C 94 % 1022,6 hPa 0,0 l/m 1,1 km/h (1 Bft) SW 217 0 min 0,000 mm 0,0 UV-I 0 W/m 5,9 C 6,8 C 3,2 km/h (1 Bft) 100,00 %
04.11.2015 22:51 6,8 C 94 % 1022,5 hPa 0,0 l/m 1,5 km/h (1 Bft) S-SW 201 0 min 0,000 mm 0,0 UV-I 0 W/m 5,9 C 6,8 C 3,2 km/h (1 Bft) 95,83 %
04.11.2015 22:52 6,8 C 94 % 1022,6 hPa 0,0 l/m 1,3 km/h (1 Bft) S-SW 201 0 min 0,000 mm 0,0 UV-I 0 W/m 5,9 C 6,8 C 1,6 km/h (1 Bft) 100,00 %
04.11.2015 22:53 6,8 C 94 % 1022,5 hPa 0,0 l/m 1,1 km/h (1 Bft) S-SW 201 0 min 0,000 mm 0,0 UV-I 0 W/m 5,9 C 6,8 C 1,6 km/h (1 Bft) 100,00 %
04.11.2015 22:54 6,8 C 94 % 1022,5 hPa 0,0 l/m 0,4 km/h (0 Bft) S-SW 201 0 min 0,000 mm 0,0 UV-I 0 W/m 5,9 C 6,8 C 1,6 km/h (1 Bft) 92,31 %
04.11.2015 22:55 6,8 C 94 % 1022,4 hPa 0,0 l/m 0,0 km/h (0 Bft) S-SW 201 0 min 0,000 mm 0,0 UV-I 0 W/m 5,9 C 6,8 C 0,0 km/h (0 Bft) 100,00 %
04.11.2015 22:56 6,8 C 94 % 1022,4 hPa 0,0 l/m 0,0 km/h (0 Bft) S-SW 201 0 min 0,000 mm 0,0 UV-I 0 W/m 5,9 C 6,8 C 0,0 km/h (0 Bft) 100,00 %
04.11.2015 22:57 6,8 C 94 % 1022,4 hPa 0,0 l/m 0,0 km/h (0 Bft) S-SW 201 0 min 0,000 mm 0,0 UV-I 0 W/m 5,9 C 6,8 C 0,0 km/h (0 Bft) 100,00 %
04.11.2015 22:58 6,8 C 94 % 1022,4 hPa 0,0 l/m 0,0 km/h (0 Bft) S-SW 201 0 min 0,000 mm 0,0 UV-I 0 W/m 5,9 C 6,8 C 0,0 km/h (0 Bft) 100,00 %
04.11.2015 22:59 6,8 C 94 % 1022,4 hPa 0,0 l/m 0,0 km/h (0 Bft) S-SW 201 0 min 0,000 mm 0,0 UV-I 0 W/m 5,9 C 6,8 C 0,0 km/h (0 Bft) 100,00 %
04.11.2015 23:00 6,8 C 94 % 1022,4 hPa 0,0 l/m 0,4 km/h (0 Bft) S-SW 201 0 min 0,000 mm 0,0 UV-I 0 W/m 5,9 C 6,8 C 1,6 km/h (1 Bft) 95,83 %
04.11.2015 23:01 6,8 C 94 % 1022,4 hPa 0,0 l/m 0,0 km/h (0 Bft) S-SW 201 0 min 0,000 mm 0,0 UV-I 0 W/m 5,9 C 6,8 C 0,0 km/h (0 Bft) 92,86 %
04.11.2015 23:02 6,8 C 94 % 1022,4 hPa 0,0 l/m 0,1 km/h (0 Bft) S-SW 201 0 min 0,000 mm 0,0 UV-I 0 W/m 5,9 C 6,8 C 1,6 km/h (1 Bft) 100,00 %
04.11.2015 23:03 6,8 C 94 % 1022,4 hPa 0,0 l/m 1,3 km/h (1 Bft) S-SW 201 0 min 0,000 mm 0,0 UV-I 0 W/m 5,9 C 6,8 C 1,6 km/h (1 Bft) 96,15 %
04.11.2015 23:04 6,8 C 94 % 1022,4 hPa 0,0 l/m 1,9 km/h (1 Bft) S-SW 201 0 min 0,000 mm 0,0 UV-I 0 W/m 5,9 C 6,8 C 3,2 km/h (1 Bft) 100,00 %
04.11.2015 23:05 6,8 C 94 % 1022,5 hPa 0,0 l/m 2,4 km/h (1 Bft) S-SW 201 0 min 0,000 mm 0,0 UV-I 0 W/m 5,9 C 6,8 C 3,2 km/h (1 Bft) 100,00 %
04.11.2015 23:06 6,7 C 94 % 1022,5 hPa 0,0 l/m 2,1 km/h (1 Bft) S-SW 201 0 min 0,000 mm 0,0 UV-I 0 W/m 5,8 C 6,7 C 3,2 km/h (1 Bft) 100,00 %
04.11.2015 23:07 6,7 C 94 % 1022,5 hPa 0,0 l/m 1,3 km/h (1 Bft) S-SW 201 0 min 0,000 mm 0,0 UV-I 0 W/m 5,8 C 6,7 C 3,2 km/h (1 Bft) 100,00 %
04.11.2015 23:08 6,7 C 94 % 1022,5 hPa 0,0 l/m 1,2 km/h (1 Bft) S-SW 201 0 min 0,000 mm 0,0 UV-I 0 W/m 5,8 C 6,7 C 1,6 km/h (1 Bft) 100,00 %
04.11.2015 23:09 6,8 C 95 % 1022,5 hPa 0,0 l/m 0,6 km/h (0 Bft) S-SW 201 0 min 0,000 mm 0,0 UV-I 0 W/m 6,1 C 6,8 C 1,6 km/h (1 Bft) 100,00 %
04.11.2015 23:10 6,8 C 95 % 1022,5 hPa 0,0 l/m 0,1 km/h (0 Bft) S-SW 201 0 min 0,000 mm 0,0 UV-I 0 W/m 6,1 C 6,8 C 1,6 km/h (1 Bft) 100,00 %
04.11.2015 23:11 6,8 C 95 % 1022,5 hPa 0,0 l/m 0,0 km/h (0 Bft) S-SW 201 0 min 0,000 mm 0,0 UV-I 0 W/m 6,1 C 6,8 C 0,0 km/h (0 Bft) 96,15 %
04.11.2015 23:12 6,8 C 95 % 1022,4 hPa 0,0 l/m 0,0 km/h (0 Bft) S-SW 201 0 min 0,000 mm 0,0 UV-I 0 W/m 6,1 C 6,8 C 0,0 km/h (0 Bft) 100,00 %
04.11.2015 23:13 6,9 C 95 % 1022,4 hPa 0,0 l/m 0,0 km/h (0 Bft) S-SW 201 0 min 0,000 mm 0,0 UV-I 0 W/m 6,2 C 6,9 C 0,0 km/h (0 Bft) 100,00 %
04.11.2015 23:14 6,9 C 95 % 1022,5 hPa 0,0 l/m 0,1 km/h (0 Bft) S-SW 201 0 min 0,000 mm 0,0 UV-I 0 W/m 6,2 C 6,9 C 1,6 km/h (1 Bft) 100,00 %
04.11.2015 23:15 6,9 C 94 % 1022,5 hPa 0,0 l/m 1,5 km/h (1 Bft) S-SW 201 0 min 0,000 mm 0,0 UV-I 0 W/m 6,0 C 6,9 C 3,2 km/h (1 Bft) 100,00 %
04.11.2015 23:16 6,9 C 94 % 1022,5 hPa 0,0 l/m 1,9 km/h (1 Bft) S-SW 201 0 min 0,000 mm 0,0 UV-I 0 W/m 6,0 C 6,9 C 3,2 km/h (1 Bft) 100,00 %
04.11.2015 23:17 6,9 C 94 % 1022,5 hPa 0,0 l/m 1,3 km/h (1 Bft) S-SW 201 0 min 0,000 mm 0,0 UV-I 0 W/m 6,0 C 6,9 C 3,2 km/h (1 Bft) 100,00 %
04.11.2015 23:18 6,9 C 94 % 1022,5 hPa 0,0 l/m 0,1 km/h (0 Bft) S-SW 201 0 min 0,000 mm 0,0 UV-I 0 W/m 6,0 C 6,9 C 1,6 km/h (1 Bft) 100,00 %
04.11.2015 23:19 6,9 C 94 % 1022,5 hPa 0,0 l/m 0,9 km/h (0 Bft) S-SW 201 0 min 0,000 mm 0,0 UV-I 0 W/m 6,0 C 6,9 C 1,6 km/h (1 Bft) 100,00 %
04.11.2015 23:20 6,9 C 94 % 1022,4 hPa 0,0 l/m 1,3 km/h (1 Bft) S-SW 201 0 min 0,000 mm 0,0 UV-I 0 W/m 6,0 C 6,9 C 1,6 km/h (1 Bft) 100,00 %
04.11.2015 23:21 6,9 C 94 % 1022,4 hPa 0,0 l/m 0,9 km/h (0 Bft) S-SW 201 0 min 0,000 mm 0,0 UV-I 0 W/m 6,0 C 6,9 C 1,6 km/h (1 Bft) 100,00 %
04.11.2015 23:22 6,9 C 94 % 1022,4 hPa 0,0 l/m 0,1 km/h (0 Bft) S-SW 201 0 min 0,000 mm 0,0 UV-I 0 W/m 6,0 C 6,9 C 1,6 km/h (1 Bft) 100,00 %
04.11.2015 23:23 6,8 C 94 % 1022,5 hPa 0,0 l/m 0,0 km/h (0 Bft) S-SW 201 0 min 0,000 mm 0,0 UV-I 0 W/m 5,9 C 6,8 C 0,0 km/h (0 Bft) 100,00 %
04.11.2015 23:24 6,8 C 94 % 1022,4 hPa 0,0 l/m 0,0 km/h (0 Bft) S-SW 201 0 min 0,000 mm 0,0 UV-I 0 W/m 5,9 C 6,8 C 0,0 km/h (0 Bft) 96,55 %
04.11.2015 23:25 6,8 C 94 % 1022,5 hPa 0,0 l/m 0,1 km/h (0 Bft) S-SW 201 0 min 0,000 mm 0,0 UV-I 0 W/m 5,9 C 6,8 C 1,6 km/h (1 Bft) 100,00 %
04.11.2015 23:26 6,8 C 94 % 1022,5 hPa 0,0 l/m 0,1 km/h (0 Bft) S-SW 201 0 min 0,000 mm 0,0 UV-I 0 W/m 5,9 C 6,8 C 1,6 km/h (1 Bft) 100,00 %
04.11.2015 23:27 6,8 C 94 % 1022,6 hPa 0,0 l/m 0,0 km/h (0 Bft) S-SW 201 0 min 0,000 mm 0,0 UV-I 0 W/m 5,9 C 6,8 C 0,0 km/h (0 Bft) 100,00 %
04.11.2015 23:28 6,8 C 94 % 1022,6 hPa 0,0 l/m 0,0 km/h (0 Bft) S-SW 201 0 min 0,000 mm 0,0 UV-I 0 W/m 5,9 C 6,8 C 0,0 km/h (0 Bft) 100,00 %
04.11.2015 23:29 6,8 C 94 % 1022,6 hPa 0,0 l/m 0,0 km/h (0 Bft) S-SW 201 0 min 0,000 mm 0,0 UV-I 0 W/m 5,9 C 6,8 C 0,0 km/h (0 Bft) 100,00 %
04.11.2015 23:30 6,8 C 94 % 1022,6 hPa 0,0 l/m 0,0 km/h (0 Bft) S-SW 201 0 min 0,000 mm 0,0 UV-I 0 W/m 5,9 C 6,8 C 0,0 km/h (0 Bft) 100,00 %
04.11.2015 23:31 6,8 C 94 % 1022,6 hPa 0,0 l/m 0,0 km/h (0 Bft) S-SW 201 0 min 0,000 mm 0,0 UV-I 0 W/m 5,9 C 6,8 C 0,0 km/h (0 Bft) 100,00 %
04.11.2015 23:32 6,8 C 94 % 1022,6 hPa 0,0 l/m 0,1 km/h (0 Bft) S-SW 201 0 min 0,000 mm 0,0 UV-I 0 W/m 5,9 C 6,8 C 1,6 km/h (1 Bft) 100,00 %
04.11.2015 23:33 6,7 C 94 % 1022,6 hPa 0,0 l/m 0,0 km/h (0 Bft) S-SW 201 0 min 0,000 mm 0,0 UV-I 0 W/m 5,8 C 6,7 C 0,0 km/h (0 Bft) 100,00 %
04.11.2015 23:34 6,7 C 94 % 1022,6 hPa 0,0 l/m 0,0 km/h (0 Bft) S-SW 201 0 min 0,000 mm 0,0 UV-I 0 W/m 5,8 C 6,7 C 0,0 km/h (0 Bft) 96,15 %
04.11.2015 23:35 6,7 C 94 % 1022,6 hPa 0,0 l/m 0,0 km/h (0 Bft) S-SW 201 0 min 0,000 mm 0,0 UV-I 0 W/m 5,8 C 6,7 C 0,0 km/h (0 Bft) 100,00 %
04.11.2015 23:36 6,7 C 94 % 1022,7 hPa 0,0 l/m 0,0 km/h (0 Bft) S-SW 201 0 min 0,000 mm 0,0 UV-I 0 W/m 5,8 C 6,7 C 0,0 km/h (0 Bft) 100,00 %
04.11.2015 23:37 6,6 C 95 % 1022,7 hPa 0,0 l/m 0,1 km/h (0 Bft) S-SW 201 0 min 0,000 mm 0,0 UV-I 0 W/m 5,9 C 6,6 C 1,6 km/h (1 Bft) 100,00 %
04.11.2015 23:38 6,6 C 95 % 1022,7 hPa 0,0 l/m 0,0 km/h (0 Bft) S-SW 201 0 min 0,000 mm 0,0 UV-I 0 W/m 5,9 C 6,6 C 0,0 km/h (0 Bft) 100,00 %
04.11.2015 23:39 6,7 C 95 % 1022,7 hPa 0,0 l/m 0,0 km/h (0 Bft) S-SW 201 0 min 0,000 mm 0,0 UV-I 0 W/m 6,0 C 6,7 C 0,0 km/h (0 Bft) 100,00 %
04.11.2015 23:40 6,7 C 95 % 1022,6 hPa 0,0 l/m 0,0 km/h (0 Bft) S-SW 201 0 min 0,000 mm 0,0 UV-I 0 W/m 6,0 C 6,7 C 0,0 km/h (0 Bft) 100,00 %
04.11.2015 23:41 6,7 C 95 % 1022,6 hPa 0,0 l/m 0,0 km/h (0 Bft) S-SW 201 0 min 0,000 mm 0,0 UV-I 0 W/m 6,0 C 6,7 C 0,0 km/h (0 Bft) 100,00 %
04.11.2015 23:42 6,7 C 95 % 1022,6 hPa 0,0 l/m 0,0 km/h (0 Bft) S-SW 201 0 min 0,000 mm 0,0 UV-I 0 W/m 6,0 C 6,7 C 0,0 km/h (0 Bft) 100,00 %
04.11.2015 23:43 6,7 C 94 % 1022,6 hPa 0,0 l/m 0,0 km/h (0 Bft) S-SW 201 0 min 0,000 mm 0,0 UV-I 0 W/m 5,8 C 6,7 C 0,0 km/h (0 Bft) 95,65 %
04.11.2015 23:44 6,7 C 94 % 1022,6 hPa 0,0 l/m 0,0 km/h (0 Bft) S-SW 201 0 min 0,000 mm 0,0 UV-I 0 W/m 5,8 C 6,7 C 0,0 km/h (0 Bft) 100,00 %
04.11.2015 23:45 6,6 C 94 % 1022,6 hPa 0,0 l/m 0,0 km/h (0 Bft) S-SW 201 0 min 0,000 mm 0,0 UV-I 0 W/m 5,7 C 6,6 C 0,0 km/h (0 Bft) 100,00 %
04.11.2015 23:46 6,6 C 95 % 1022,6 hPa 0,0 l/m 0,0 km/h (0 Bft) S-SW 201 0 min 0,000 mm 0,0 UV-I 0 W/m 5,9 C 6,6 C 0,0 km/h (0 Bft) 100,00 %
04.11.2015 23:47 6,6 C 95 % 1022,6 hPa 0,0 l/m 0,0 km/h (0 Bft) S-SW 201 0 min 0,000 mm 0,0 UV-I 0 W/m 5,9 C 6,6 C 0,0 km/h (0 Bft) 100,00 %
04.11.2015 23:48 6,6 C 95 % 1022,6 hPa 0,0 l/m 0,0 km/h (0 Bft) S-SW 201 0 min 0,000 mm 0,0 UV-I 0 W/m 5,9 C 6,6 C 0,0 km/h (0 Bft) 100,00 %
04.11.2015 23:49 6,7 C 95 % 1022,6 hPa 0,0 l/m 0,0 km/h (0 Bft) S-SW 201 0 min 0,000 mm 0,0 UV-I 0 W/m 6,0 C 6,7 C 0,0 km/h (0 Bft) 100,00 %
04.11.2015 23:50 6,7 C 95 % 1022,7 hPa 0,0 l/m 0,0 km/h (0 Bft) S-SW 201 0 min 0,000 mm 0,0 UV-I 0 W/m 6,0 C 6,7 C 0,0 km/h (0 Bft) 100,00 %
04.11.2015 23:51 6,7 C 95 % 1022,7 hPa 0,0 l/m 0,0 km/h (0 Bft) S-SW 201 0 min 0,000 mm 0,0 UV-I 0 W/m 6,0 C 6,7 C 0,0 km/h (0 Bft) 100,00 %
04.11.2015 23:52 6,7 C 95 % 1022,6 hPa 0,0 l/m 0,0 km/h (0 Bft) S-SW 201 0 min 0,000 mm 0,0 UV-I 0 W/m 6,0 C 6,7 C 0,0 km/h (0 Bft) 95,83 %
04.11.2015 23:53 6,7 C 95 % 1022,6 hPa 0,0 l/m 0,0 km/h (0 Bft) S-SW 201 0 min 0,000 mm 0,0 UV-I 0 W/m 6,0 C 6,7 C 0,0 km/h (0 Bft) 95,65 %
04.11.2015 23:54 6,7 C 94 % 1022,6 hPa 0,0 l/m 0,0 km/h (0 Bft) S-SW 201 0 min 0,000 mm 0,0 UV-I 0 W/m 5,8 C 6,7 C 0,0 km/h (0 Bft) 100,00 %
04.11.2015 23:55 6,8 C 94 % 1022,5 hPa 0,0 l/m 0,0 km/h (0 Bft) S-SW 201 0 min 0,000 mm 0,0 UV-I 0 W/m 5,9 C 6,8 C 0,0 km/h (0 Bft) 100,00 %
04.11.2015 23:56 6,8 C 95 % 1022,5 hPa 0,0 l/m 0,0 km/h (0 Bft) S-SW 201 0 min 0,000 mm 0,0 UV-I 0 W/m 6,1 C 6,8 C 0,0 km/h (0 Bft) 100,00 %
04.11.2015 23:57 6,7 C 95 % 1022,5 hPa 0,0 l/m 0,0 km/h (0 Bft) S-SW 201 0 min 0,000 mm 0,0 UV-I 0 W/m 6,0 C 6,7 C 0,0 km/h (0 Bft) 100,00 %
04.11.2015 23:58 6,7 C 94 % 1022,5 hPa 0,0 l/m 0,3 km/h (0 Bft) S-SW 201 0 min 0,000 mm 0,0 UV-I 0 W/m 5,8 C 6,7 C 1,6 km/h (1 Bft) 100,00 %
04.11.2015 23:59 6,7 C 94 % 1022,4 hPa 0,0 l/m 1,4 km/h (1 Bft) S-SW 201 0 min 0,000 mm 0,0 UV-I 0 W/m 5,8 C 6,7 C 3,2 km/h (1 Bft) 100,00 %
_ Min-Zeit 03:45 14:25 16:42 - 00:06 - - - - - - 03:45 03:45 00:06 02:25
Minimum _ 0,3 C 82 % 1022,2 hPa - 0,0 km/h (0 Bft) - - - - - - 0,0 C 0,3 C 0,0 km/h (0 Bft) 83,33 %
_ Max-Zeit 15:10 10:00 08:45 00:00 06:34 - - 11:53 13:00 11:45 11:47 15:09 14:55 06:34 00:01
Maximum _ 9,8 C 99 % 1025,3 hPa 0,0 l/m 5,6 km/h
S-SW (1 Bft)
- - 3 min 0,127 mm 1,3 UV-I 479 W/m 7,1 C 9,7 C 8,0 km/h
S-SW (2 Bft)
100,00 %
Durchschnitt _ 4,4 C 94 % 1023,5 hPa #0,0 l/m 1,1 km/h (1 Bft) SW - #2:55 h #0,533 mm 0,9 UV-I 148 W/m 3,4 C 4,4 C 2,2 km/h (1 Bft) 99,29 %